[[{"header":{"parameterUnit":"m.s-1","parameterCategory":1,"la1":30.6,"la2":29.2853,"lo1":-89.7004,"lo2":-87.6739,"dy":0.0162,"dx":0.0183,"nx":112,"ny":82,"refTime":"2023-04-05T12:00:00:Z","depth":0,"parameterNumber":2,"parameterNumberName":"U-component_of_WINDS"},"data":[0.0,0.0,0.0,0.0,0.0,0.0,0.0,0.0,0.0,0.0,0.0,0.0,0.0,0.0,0.0,0.0,0.0,0.0,0.0,0.0,0.0,0.0,0.0,0.0,0.0,0.0,0.0,0.0,0.0,0.0,0.0,0.0,0.0,0.0,0.0,0.0,0.0,0.0,0.0,0.0,0.0,0.0,0.0,0.0,0.0,0.0,0.0,0.0,0.0,0.0,0.0,0.0,0.0,0.0,0.0,0.0,0.0,0.0,0.0,0.0,0.0,0.0,0.0,0.0,0.0,0.0,0.0,0.0,0.0,0.0,0.0,0.0,0.0,0.0,0.0,0.0,0.0,0.0,0.0,0.0,0.0,0.0,0.0,0.0,0.0,0.0,0.0,0.0,0.0,0.0,0.7627,0.7429,0.8494,0.9094,0.8798,0.9307,0.8944,0.7324,0.0,0.0,0.0,0.0,0.0,0.0,0.0,0.0,0.0,0.0,0.0,0.0,0.0,0.0,0.0,0.0,0.0,0.0,0.0,0.0,0.0,0.0,0.0,0.0,0.0,0.0,0.0,0.0,0.0,0.0,0.0,0.0,0.0,0.0,0.0,0.0,0.0,0.0,0.0,0.0,0.0,0.0,0.0,0.0,0.0,0.0,0.0,0.0,0.0,0.0,0.0,0.0,0.0,0.0,0.0,0.0,0.0,0.0,0.0,0.0,0.0,0.0,0.0,0.0,0.0,0.0,0.0,0.0,0.0,0.0,0.0,0.0,0.0,0.0,0.0,0.0,0.0,0.0,0.0,0.0,0.0,0.0,0.0,0.0,0.0,0.0,0.0,0.0,0.0,0.0,0.0,0.0,0.0,0.0,0.0,0.0,0.0,0.0,0.0,0.0,0.0,0.0,0.0,0.0,0.7683,0.8685,0.8545,0.859,0.908,0.8717,0.8127,0.7332,0.0,0.0,0.0,0.0,0.0,0.0,0.0,0.0,0.0,0.0,0.0,0.0,0.0,0.0,0.0,0.0,0.0,0.0,0.0,0.0,0.0,0.0,0.0,0.0,0.0,0.0,0.0,0.0,0.0,0.0,0.0,0.0,0.0,0.0,0.0,0.0,0.0,0.0,0.0,0.0,0.0,0.0,0.0,0.0,0.0,0.0,0.0,0.0,0.0,0.0,0.0,0.0,0.0,0.0,0.0,0.0,0.0,0.0,0.0,0.0,0.0,0.0,0.0,0.0,0.0,0.0,0.0,0.0,0.0,0.0,0.0,0.0,0.0,0.0,0.0,0.0,0.0,0.0,0.0,0.0,0.0,0.0,0.0,0.0,0.0,0.0,0.0,0.0,0.0,0.0,0.0,0.0,0.0,0.0,0.0,0.0,0.0,0.0,0.0,0.0,0.0,0.0,0.0,0.6809,0.7216,0.8524,0.8353,0.8238,0.8479,0.832,0.7841,0.6972,0.715,0.0,0.0,0.0,0.0,0.0,0.0,0.0,0.0,0.0,0.0,0.0,0.0,0.0,0.0,0.0,0.0,0.0,0.0,0.0,0.0,0.0,0.0,0.0,0.0,0.0,0.0,0.0,0.0,0.0,0.0,0.0,0.0,0.0,0.0,0.0,0.0,0.0,0.0,0.0,0.0,0.0,0.0,0.0,0.0,0.0,0.0,0.0,0.0,0.0,0.0,0.0,0.0,0.0,0.0,0.0,0.0,0.0,0.0,0.0,0.0,0.0,0.0,0.0,0.0,0.0,0.0,0.0,0.0,0.0,0.0,0.0,0.0,0.0,0.0,0.0,0.0,0.0,0.0,0.0,0.0,0.0,0.0,0.0,0.0,0.0,0.0,0.0,0.0,0.0,0.0,0.0,0.0,0.0,0.0,0.0,0.0,0.0,0.0,0.0,0.0,0.0,0.0,0.6932,0.6953,0.8149,0.803,0.786,0.7853,0.7869,0.7497,0.6607,0.6432,0.0,0.0,0.0,0.0,0.0,0.0,0.0,0.0,0.0,0.0,0.0,0.0,0.0,0.0,0.0,0.0,0.0,0.0,0.0,0.0,0.0,0.0,0.0,0.0,0.0,0.0,0.0,0.0,0.0,0.0,0.0,0.0,0.0,0.0,0.0,0.0,0.0,0.0,0.0,0.0,0.0,0.0,0.0,0.0,0.0,0.0,0.0,0.0,0.0,0.0,0.0,0.0,0.0,0.0,0.0,0.0,0.0,0.0,0.0,0.0,0.0,0.0,0.0,0.0,0.0,0.0,0.0,0.0,0.0,0.0,0.0,0.0,0.0,0.0,0.0,0.0,0.0,0.0,0.0,0.0,0.0,0.0,0.0,0.0,0.0,0.0,0.0,0.0,0.0,0.0,0.0,0.0,0.0,0.0,0.0,0.0,0.0,0.0,0.0,0.0,0.0,0.0,0.7194,0.7346,0.8123,0.7585,0.732,0.7679,0.7214,0.6764,0.643,0.5945,0.0,0.0,0.0,0.0,0.0,0.0,0.0,0.0,0.0,0.0,0.0,0.0,0.0,0.0,0.0,0.0,0.0,0.0,0.0,0.0,0.0,0.0,0.0,0.0,0.0,0.0,0.0,0.0,0.0,0.0,0.0,0.0,0.0,0.0,0.0,0.0,0.0,0.0,0.0,0.0,0.0,0.0,0.0,0.0,0.0,0.0,0.0,0.0,0.0,0.0,0.0,0.0,0.0,0.0,0.0,0.0,0.0,0.0,0.0,0.0,0.0,0.0,0.0,0.0,0.0,0.0,0.0,0.0,0.0,0.0,0.0,0.0,0.0,0.0,0.0,0.0,0.0,0.0,0.0,0.0,0.0,0.0,0.0,0.0,0.0,0.0,0.0,0.0,0.0,0.0,0.0,0.0,0.0,0.0,0.0,0.0,0.0,0.0,0.0,0.0,0.0,0.0,0.7035,0.7127,0.0,0.7405,0.7194,0.7264,0.7167,0.6741,0.5897,0.0,0.0,0.0,0.0,0.0,0.0,0.0,0.0,0.0,0.0,0.0,0.0,0.0,0.0,0.0,0.0,0.0,0.0,0.0,0.0,0.0,0.0,0.0,0.0,0.0,0.0,0.0,0.0,0.0,0.0,0.0,0.0,0.0,0.0,0.0,0.0,0.0,0.0,0.0,0.0,0.0,0.0,0.0,0.0,0.0,0.0,0.0,0.0,0.0,0.0,0.0,0.0,0.0,0.0,0.0,0.0,0.0,0.0,0.0,0.0,0.0,0.0,0.0,0.0,0.0,0.0,0.0,0.0,0.0,0.0,0.0,0.0,0.0,0.0,0.0,0.0,0.0,0.0,0.0,0.0,0.0,0.0,0.0,0.0,0.0,0.0,0.0,0.0,0.0,0.0,0.0,0.0,0.0,0.0,0.0,0.0,0.0,0.0,0.0,0.0,0.0,0.0,0.7062,0.6984,0.7035,0.0,0.7233,0.7088,0.7032,0.7073,0.6688,0.5691,0.0,0.0,0.0,0.0,0.0,0.0,0.0,0.0,0.0,0.0,0.0,0.0,0.0,0.0,0.0,0.0,0.0,0.0,0.0,0.0,0.0,0.0,0.0,0.0,0.0,0.0,0.0,0.0,0.0,0.0,0.0,0.0,0.0,0.0,0.0,0.0,0.0,0.0,0.0,0.0,0.0,0.0,0.0,0.0,0.0,0.0,0.0,0.0,0.0,0.0,0.0,0.0,0.0,0.0,0.0,0.0,0.0,0.0,0.0,0.0,0.0,0.0,0.0,0.0,0.0,0.0,0.0,0.0,0.0,0.0,0.0,0.0,0.0,0.0,0.0,0.0,0.0,0.0,0.0,0.0,0.0,0.0,0.0,0.0,0.0,0.0,0.0,0.0,0.0,0.0,0.0,0.0,0.0,0.0,0.0,0.0,0.0,0.0,0.0,0.0,0.0,0.0,0.7098,0.7102,0.7156,0.7289,0.7058,0.6951,0.7085,0.6856,0.6473,0.0,0.0,0.0,0.0,0.0,0.0,0.0,0.0,0.0,0.0,0.0,0.0,0.0,0.0,0.0,0.0,0.0,0.0,0.0,0.0,0.0,0.0,0.0,0.0,0.0,0.0,0.0,0.0,0.0,0.0,0.0,0.0,0.0,0.0,0.0,0.0,0.0,0.0,0.0,0.0,0.0,0.0,0.0,0.0,0.0,0.0,0.0,0.0,0.0,0.0,0.0,0.0,0.0,0.0,0.0,0.0,0.0,0.0,0.0,0.0,0.0,0.0,0.0,0.0,0.0,0.0,0.0,0.0,0.0,0.0,0.0,0.0,0.0,0.0,0.0,0.0,0.0,0.0,0.0,0.0,0.0,0.0,0.0,0.0,0.0,0.0,0.0,0.0,0.0,0.0,0.0,0.0,0.0,0.0,0.0,0.0,0.0,0.0,0.0,0.0,0.0,0.0,0.0,0.6767,0.6915,0.706,0.7144,0.683,0.6635,0.6678,0.6784,0.6509,0.5738,0.0,0.0,0.0,0.0,0.0,0.0,0.0,0.0,0.0,0.0,0.0,0.0,0.0,0.0,0.0,0.0,0.0,0.0,0.0,0.0,0.0,0.0,0.0,0.0,0.0,0.0,0.0,0.0,0.0,0.0,0.0,0.0,0.0,0.0,0.0,0.0,0.0,0.0,0.0,0.0,0.0,0.0,0.0,0.0,0.0,0.0,0.0,0.0,0.0,0.0,0.0,0.0,0.0,0.0,0.0,0.0,0.0,0.0,0.0,0.0,0.0,0.0,0.0,0.0,0.0,0.0,0.0,0.0,0.0,0.0,0.0,0.0,0.0,0.0,0.0,0.0,0.0,0.0,0.0,0.0,0.0,0.0,0.0,0.0,0.0,0.0,0.0,0.0,0.0,0.0,0.0,0.0,0.0,0.0,0.0,0.0,0.0,0.0,0.0,0.0,0.0,0.0,0.6564,0.6755,0.6921,0.7052,0.6769,0.6576,0.6576,0.6724,0.6524,0.5846,0.0,0.0,0.0,0.0,0.0,0.0,0.0,0.0,0.0,0.0,0.0,0.0,0.0,0.0,0.0,0.0,0.0,0.0,0.0,0.0,0.0,0.0,0.0,0.0,0.0,0.0,0.0,0.0,0.0,0.0,0.0,0.0,0.0,0.0,0.0,0.0,0.0,0.0,0.0,0.0,0.0,0.0,0.0,0.0,0.0,0.0,0.0,0.0,0.0,0.0,0.0,0.0,0.0,0.0,0.0,0.0,0.0,0.0,0.0,0.0,0.0,0.0,0.0,0.0,0.0,0.0,0.0,0.0,0.0,0.0,0.0,0.0,0.0,0.0,0.0,0.0,0.0,0.0,0.0,0.0,0.0,0.0,0.0,0.0,0.0,0.0,0.0,0.0,0.0,0.0,0.0,0.0,0.0,0.0,0.0,0.0,0.0,0.0,0.0,0.0,0.0,0.0,0.6401,0.6562,0.6742,0.6907,0.6766,0.6659,0.6652,0.6652,0.6495,0.6103,0.0,0.0,0.0,0.0,0.0,0.0,0.0,0.0,0.0,0.0,0.0,0.0,0.0,0.0,0.0,0.0,0.0,0.0,0.0,0.0,0.0,0.0,0.0,0.0,0.0,0.0,0.0,0.0,0.0,0.0,0.0,0.0,0.0,0.0,0.0,0.0,0.0,0.0,0.0,0.0,0.0,0.0,0.0,0.0,0.0,0.0,0.0,0.0,0.0,0.0,0.0,0.0,0.0,0.0,0.0,0.0,0.0,0.0,0.0,0.0,0.747,0.0,0.0,0.0,0.0,0.0,0.0,0.0,0.0,0.0,0.0,0.0,0.0,0.0,0.0,0.0,0.0,0.0,0.0,0.0,0.0,0.0,0.0,0.0,0.0,0.0,0.0,0.0,0.0,0.0,0.0,0.0,0.0,0.0,0.0,0.0,0.0,0.0,0.0,0.0,0.0,0.0,0.572,0.615,0.6437,0.6371,0.6379,0.6365,0.631,0.6309,0.6205,0.5964,0.6055,0.0,0.0,0.0,0.0,0.0,0.0,0.0,0.0,0.0,0.0,0.0,0.0,0.0,0.0,0.0,0.0,0.0,0.0,0.0,0.0,0.0,0.0,0.0,0.0,0.0,0.0,0.0,0.0,0.0,0.0,0.0,0.0,0.0,0.0,0.0,0.0,0.0,0.0,0.0,0.0,0.0,0.0,0.0,0.0,0.0,0.0,0.0,0.0,0.0,0.0,0.0,0.0,0.0,0.0,0.0,0.0,0.0,0.0,0.0,0.0,0.7248,0.0,0.0,0.0,0.0,0.0,0.0,0.0,0.0,0.0,0.0,0.0,0.0,0.0,0.0,0.0,0.0,0.0,0.0,0.0,0.0,0.0,0.0,0.0,0.0,0.0,0.0,0.0,0.0,0.0,0.0,0.0,0.0,0.0,0.0,0.0,0.0,0.0,0.0,0.0,0.0,0.5507,0.5859,0.6161,0.6284,0.6158,0.608,0.6151,0.6069,0.5964,0.5859,0.5959,0.0,0.0,0.0,0.0,0.0,0.0,0.0,0.0,0.0,0.0,0.0,0.0,0.0,0.0,0.0,0.0,0.0,0.0,0.0,0.0,0.0,0.0,0.0,0.0,0.0,0.0,0.0,0.0,0.0,0.0,0.0,0.0,0.0,0.0,0.0,0.0,0.0,0.0,0.0,0.0,0.0,0.0,0.0,0.0,0.0,0.0,0.0,0.0,0.0,0.0,0.0,0.0,0.0,0.7294,0.7588,0.7925,0.8079,0.8052,0.7843,0.7534,0.7442,0.748,0.7272,0.0,0.0,0.0,0.0,0.0,0.0,0.0,0.0,0.0,0.0,0.0,0.0,0.0,0.0,0.0,0.0,0.0,0.0,0.0,0.0,0.0,0.0,0.0,0.0,0.6798,0.6556,0.7502,0.0,0.0,0.0,0.0,0.0,0.0,0.0,0.0,0.0,0.0,0.0,0.5392,0.5627,0.591,0.6198,0.5979,0.5852,0.5953,0.5833,0.5748,0.5717,0.5712,0.5671,0.0,0.0,0.0,0.0,0.0,0.0,0.0,0.0,0.0,0.0,0.0,0.0,0.0,0.0,0.0,0.0,0.0,0.0,0.0,0.0,0.0,0.0,0.0,0.0,0.0,0.0,0.0,0.0,0.0,0.0,0.0,0.0,0.4954,0.5068,0.0,0.0,0.0,0.0,0.0,0.0,0.0,0.0,0.0,0.0,0.0,0.0,0.0,0.6683,0.6948,0.6843,0.6918,0.718,0.7107,0.724,0.7567,0.7587,0.7773,0.8059,0.7886,0.0,0.6701,0.7295,0.0,0.0,0.0,0.0,0.0,0.0,0.0,0.0,0.0,0.0,0.0,0.0,0.0,0.0,0.0,0.0,0.0,0.0,0.0,0.0,0.0,0.0,0.6655,0.7253,0.7213,0.7176,0.0,0.728,0.6981,0.7189,0.7091,0.0,0.0,0.0,0.0,0.0,0.0,0.0,0.4981,0.5455,0.5733,0.5551,0.5741,0.5765,0.5442,0.5534,0.5557,0.5378,0.5632,0.5654,0.5357,0.5449,0.0,0.0,0.0,0.0,0.0,0.0,0.0,0.0,0.0,0.0,0.0,0.0,0.0,0.0,0.0,0.0,0.0,0.0,0.0,0.0,0.0,0.0,0.0,0.0,0.0,0.0,0.0,0.0,0.0,0.3893,0.4091,0.4089,0.4501,0.4714,0.0,0.0,0.0,0.0,0.0,0.0,0.0,0.0,0.0,0.6318,0.6568,0.6717,0.6764,0.6858,0.7066,0.7369,0.7379,0.7599,0.7952,0.7952,0.8041,0.8215,0.8159,0.7725,0.7076,0.7281,0.706,0.6584,0.0,0.0,0.0,0.0,0.6582,0.6692,0.6943,0.7001,0.6935,0.6766,0.0,0.0,0.0,0.0,0.0,0.0,0.0,0.0,0.0,0.0,0.615,0.6795,0.6391,0.6,0.6522,0.6367,0.6308,0.0,0.6856,0.6501,0.599,0.0,0.0,0.0,0.0,0.4796,0.4984,0.5238,0.543,0.5498,0.557,0.5578,0.5476,0.5479,0.5454,0.5366,0.5459,0.5424,0.5191,0.5314,0.5326,0.0,0.0,0.0,0.0,0.0,0.0,0.0,0.0,0.0,0.0,0.0,0.0,0.0,0.0,0.0,0.0,0.0,0.0,0.0,0.0,0.0,0.0,0.0,0.0,0.0,0.0,0.0,0.0,0.3453,0.3586,0.3446,0.3886,0.4234,0.0,0.0,0.0,0.0,0.0,0.0,0.5961,0.6303,0.6555,0.6652,0.6741,0.6796,0.678,0.7024,0.7277,0.7571,0.7722,0.7922,0.8226,0.8226,0.825,0.8317,0.8281,0.8076,0.776,0.755,0.7257,0.6937,0.6845,0.6679,0.6563,0.7011,0.7085,0.7006,0.7304,0.7331,0.72,0.6843,0.6624,0.6427,0.6087,0.0,0.0,0.0,0.0,0.5995,0.651,0.6054,0.5587,0.6165,0.5572,0.5043,0.5576,0.552,0.5617,0.0,0.6539,0.6229,0.5739,0.0,0.0,0.0,0.0,0.4504,0.4784,0.482,0.4896,0.512,0.5208,0.5194,0.507,0.5139,0.5139,0.5006,0.494,0.4874,0.4803,0.4893,0.496,0.4995,0.0,0.0,0.0,0.0,0.0,0.0,0.0,0.0,0.0,0.0,0.0,0.0,0.0,0.0,0.0,0.0,0.0,0.0,0.0,0.0,0.0,0.0,0.0,0.0,0.0,0.0,0.0,0.0,0.0,0.3818,0.4514,0.0,0.0,0.0,0.0,0.5282,0.582,0.6076,0.5904,0.6284,0.6672,0.705,0.707,0.7241,0.7539,0.7692,0.777,0.778,0.7933,0.7986,0.8014,0.8014,0.8163,0.8375,0.8258,0.8327,0.8513,0.8271,0.7741,0.7124,0.7498,0.7515,0.7367,0.7581,0.7654,0.768,0.7886,0.7956,0.788,0.748,0.6839,0.621,0.6195,0.5788,0.0,0.0,0.5256,0.5261,0.537,0.5345,0.5324,0.5429,0.532,0.5217,0.5387,0.5016,0.4958,0.0,0.627,0.6265,0.6099,0.0,0.4813,0.4795,0.4245,0.3898,0.404,0.4062,0.4012,0.3902,0.445,0.45,0.3668,0.4248,0.4417,0.3911,0.3882,0.3904,0.3963,0.3969,0.3937,0.3885,0.3947,0.0,0.0,0.0,0.0,0.0,0.0,0.0,0.0,0.0,0.0,0.0,0.0,0.0,0.0,0.0,0.0,0.0,0.0,0.0,0.0,0.0,0.0,0.0,0.0,0.0,0.0,0.0,0.0,0.4139,0.4583,0.0,0.4871,0.507,0.5222,0.5245,0.5717,0.6084,0.6273,0.6629,0.7014,0.7405,0.7503,0.753,0.7476,0.7596,0.7664,0.7664,0.772,0.7842,0.7988,0.7988,0.8063,0.8134,0.8082,0.8077,0.8062,0.76,0.7483,0.7539,0.7423,0.7339,0.7313,0.7688,0.7709,0.7602,0.7906,0.7858,0.7568,0.6911,0.6245,0.5681,0.5677,0.5529,0.534,0.5276,0.507,0.4933,0.5176,0.4829,0.4451,0.4692,0.4331,0.3952,0.4145,0.4061,0.4118,0.4616,0.4882,0.4951,0.4726,0.4421,0.4171,0.4042,0.3716,0.3574,0.3834,0.376,0.3711,0.3787,0.401,0.4038,0.372,0.3931,0.3998,0.3811,0.3675,0.3619,0.3642,0.3727,0.3869,0.4058,0.4255,0.4262,0.0,0.0,0.0,0.0,0.0,0.0,0.0,0.0,0.0,0.0,0.0,0.0,0.0,0.0,0.0,0.0,0.0,0.0,0.0,0.0,0.0,0.0,0.0,0.0,0.0,0.0,0.4465,0.4462,0.4881,0.5138,0.5037,0.5196,0.5365,0.5488,0.5866,0.6222,0.6585,0.6864,0.7151,0.7455,0.7544,0.7519,0.7327,0.7421,0.7469,0.7469,0.7469,0.7466,0.7462,0.7462,0.7363,0.7188,0.7188,0.7137,0.7027,0.6685,0.6727,0.704,0.6845,0.6752,0.6795,0.7113,0.7116,0.6997,0.7216,0.7104,0.676,0.6203,0.563,0.5121,0.502,0.4916,0.4811,0.4714,0.4506,0.4359,0.4538,0.416,0.3766,0.3919,0.3539,0.3159,0.3293,0.3272,0.3287,0.3487,0.3923,0.4209,0.4027,0.3798,0.3603,0.3517,0.3134,0.2957,0.3225,0.304,0.2963,0.318,0.3287,0.3317,0.3201,0.3274,0.3272,0.3173,0.2994,0.2949,0.3052,0.3078,0.3255,0.3614,0.3825,0.3866,0.3722,0.0,0.0,0.0,0.0,0.0,0.0,0.0,0.0,0.0,0.0,0.0,0.0,0.0,0.0,0.0,0.0,0.0,0.0,0.0,0.0,0.0,0.0,0.0,0.3938,0.4568,0.4979,0.4855,0.548,0.5819,0.557,0.5775,0.598,0.6123,0.6293,0.6523,0.6801,0.6918,0.7054,0.7191,0.7213,0.7188,0.7188,0.7163,0.7138,0.7138,0.7138,0.6836,0.6359,0.6359,0.6059,0.5584,0.5584,0.5584,0.5584,0.5559,0.5536,0.5565,0.579,0.5889,0.5889,0.5887,0.5884,0.5881,0.5884,0.5743,0.5565,0.5497,0.5056,0.4521,0.4259,0.3958,0.3676,0.3528,0.3533,0.3559,0.3417,0.3387,0.3339,0.3147,0.3054,0.301,0.2982,0.2732,0.2567,0.2751,0.3522,0.4128,0.4142,0.3544,0.3096,0.3229,0.2531,0.0,0.2169,0.1904,0.1768,0.197,0.2275,0.2342,0.2013,0.2218,0.2234,0.192,0.1781,0.1856,0.2179,0.1996,0.2084,0.2478,0.2561,0.2668,0.2809,0.0,0.0,0.0,0.0,0.0,0.0,0.0,0.0,0.0,0.0,0.0,0.0,0.0,0.0,0.0,0.0,0.0,0.0,0.0,0.0,0.0,0.4378,0.4582,0.4687,0.5172,0.5597,0.5847,0.6276,0.6529,0.6439,0.6516,0.657,0.6603,0.6665,0.6769,0.6938,0.6967,0.7054,0.7191,0.7213,0.7113,0.6917,0.6337,0.6037,0.6037,0.5457,0.5204,0.5252,0.5252,0.5152,0.5027,0.5027,0.5027,0.4977,0.4379,0.4155,0.4252,0.5273,0.5669,0.5684,0.5802,0.5745,0.5611,0.555,0.5222,0.481,0.4782,0.4431,0.4015,0.3926,0.3843,0.3725,0.3488,0.3437,0.3419,0.322,0.3187,0.3163,0.3115,0.3078,0.2994,0.277,0.2627,0.2522,0.232,0.2505,0.2706,0.2808,0.2452,0.2171,0.2213,0.197,0.0,0.1908,0.1782,0.1714,0.1768,0.1819,0.1802,0.1718,0.1773,0.1797,0.1766,0.1724,0.1798,0.2054,0.1813,0.1894,0.235,0.2468,0.2718,0.0,0.0,0.0,0.0,0.0,0.0,0.0,0.0,0.0,0.0,0.0,0.0,0.0,0.0,0.0,0.0,0.0,0.0,0.0,0.0,0.0,0.0,0.4003,0.4283,0.4695,0.5433,0.6072,0.638,0.6646,0.6801,0.6801,0.6801,0.6801,0.6801,0.685,0.6905,0.6914,0.6959,0.7006,0.7029,0.6639,0.6359,0.6209,0.5394,0.497,0.4935,0.449,0.4233,0.4124,0.4124,0.3949,0.3623,0.375,0.3723,0.3597,0.3123,0.2923,0.0,0.0,0.0,0.0,0.0,0.4304,0.4195,0.4167,0.3911,0.3605,0.3577,0.3399,0.3155,0.313,0.314,0.3135,0.299,0.296,0.2961,0.2845,0.2804,0.2804,0.2804,0.2787,0.2705,0.2527,0.2381,0.2276,0.2157,0.1986,0.0,0.2061,0.1883,0.173,0.1791,0.1649,0.1564,0.1666,0.1585,0.1563,0.1657,0.1525,0.1463,0.155,0.148,0.0,0.0,0.0,0.1596,0.1832,0.1767,0.0,0.0,0.0,0.2564,0.2951,0.311,0.0,0.0,0.4467,0.4684,0.0,0.0,0.0,0.0,0.0,0.0,0.0,0.0,0.0,0.0,0.0,0.0,0.0,0.0,0.0,0.0,0.3275,0.3534,0.4296,0.5376,0.6164,0.6352,0.6608,0.6736,0.6682,0.6778,0.6828,0.6842,0.6931,0.6937,0.6775,0.0,0.0,0.0,0.0,0.5266,0.5266,0.4383,0.394,0.3881,0.3813,0.3497,0.2982,0.2957,0.2551,0.1866,0.2118,0.2093,0.1866,0.1866,0.1866,0.1891,0.2194,0.232,0.232,0.232,0.232,0.2346,0.2346,0.0,0.0,0.2324,0.2288,0.2255,0.222,0.2258,0.2312,0.2312,0.2365,0.2396,0.2396,0.2396,0.2396,0.2396,0.2365,0.231,0.2281,0.2082,0.1951,0.2099,0.1781,0.1536,0.1733,0.1666,0.1608,0.173,0.1482,0.1349,0.1469,0.1376,0.1373,0.1546,0.0,0.0,0.1449,0.1296,0.1178,0.1125,0.1214,0.1371,0.1598,0.1828,0.1998,0.2136,0.2241,0.2442,0.2729,0.3429,0.4223,0.5065,0.4652,0.4808,0.0,0.0,0.0,0.0,0.0,0.0,0.0,0.0,0.0,0.0,0.0,0.0,0.0,0.0,0.0,0.3609,0.3729,0.3899,0.4268,0.4622,0.4903,0.5055,0.5866,0.6288,0.6012,0.6567,0.7016,0.7108,0.7051,0.6864,0.6568,0.6125,0.5712,0.5349,0.4688,0.4362,0.4362,0.3544,0.3116,0.3106,0.0,0.0,0.1652,0.1394,0.1178,0.1035,0.1086,0.1086,0.1035,0.1035,0.1035,0.1086,0.1564,0.1765,0.1765,0.1765,0.1891,0.2068,0.2068,0.2068,0.2116,0.231,0.2232,0.2106,0.2298,0.2377,0.0,0.2383,0.2389,0.2396,0.2396,0.2396,0.2396,0.2396,0.2389,0.2323,0.2094,0.2008,0.1918,0.169,0.1524,0.1442,0.1481,0.1466,0.1427,0.1397,0.135,0.1303,0.133,0.1312,0.1287,0.1281,0.1231,0.122,0.1257,0.1217,0.1214,0.1263,0.1483,0.1621,0.1689,0.2035,0.2269,0.2349,0.2719,0.3135,0.3562,0.3976,0.4624,0.5473,0.5448,0.5763,0.0,0.0,0.0,0.0,0.0,0.0,0.0,0.0,0.0,0.0,0.0,0.2036,0.2335,0.0,0.2697,0.2864,0.2877,0.2956,0.3197,0.3316,0.3659,0.451,0.5067,0.5343,0.5178,0.5484,0.5741,0.5838,0.5764,0.5642,0.552,0.5043,0.472,0.4502,0.3625,0.3137,0.3162,0.2315,0.1874,0.184,0.1348,0.1084,0.1039,0.0865,0.0733,0.0597,0.0753,0.0723,0.0589,0.0608,0.053,0.0429,0.0707,0.0959,0.1211,0.1211,0.1287,0.1388,0.1388,0.1388,0.1413,0.1564,0.1514,0.1413,0.1564,0.159,0.1615,0.1767,0.1792,0.1843,0.1969,0.1994,0.1994,0.1994,0.1994,0.1964,0.1822,0.1794,0.1759,0.1579,0.1524,0.1493,0.1463,0.1433,0.1371,0.1313,0.1299,0.1294,0.1298,0.1296,0.1291,0.1256,0.1259,0.1231,0.1212,0.1231,0.1257,0.1299,0.1434,0.1556,0.1702,0.1954,0.217,0.2294,0.2668,0.3056,0.3454,0.3997,0.446,0.4851,0.5191,0.5752,0.0,0.0,0.0,0.0,0.0,0.0,0.0,0.1555,0.1376,0.1541,0.1799,0.199,0.193,0.2066,0.2154,0.2054,0.1912,0.1875,0.209,0.2121,0.2592,0.3801,0.4183,0.4313,0.4227,0.4315,0.4409,0.45,0.4366,0.4292,0.4331,0.3895,0.3614,0.3582,0.2514,0.1958,0.1951,0.1263,0.0875,0.0821,0.0796,0.0774,0.0709,0.0666,0.0535,0.0347,0.056,0.0528,0.0311,0.0332,0.0203,0.0,0.0,0.0253,0.0657,0.0657,0.0682,0.0732,0.0732,0.0732,0.0732,0.0783,0.0758,0.0733,0.0786,0.0811,0.0834,0.1065,0.1114,0.1162,0.139,0.144,0.144,0.144,0.144,0.144,0.144,0.144,0.1433,0.1436,0.1423,0.1426,0.1427,0.1314,0.1263,0.1302,0.129,0.1292,0.1306,0.1305,0.1308,0.1294,0.1309,0.1278,0.1221,0.1271,0.132,0.1318,0.1327,0.1449,0.1703,0.182,0.1989,0.2197,0.2518,0.2836,0.3165,0.3873,0.4203,0.4205,0.4698,0.5287,0.1524,0.1299,0.1159,0.1238,0.127,0.1305,0.0,0.1412,0.1419,0.149,0.1583,0.1716,0.1957,0.1873,0.1856,0.214,0.1961,0.181,0.184,0.1837,0.188,0.2012,0.2999,0.3586,0.3277,0.3888,0.4352,0.4496,0.4121,0.3831,0.3714,0.2878,0.2292,0.2046,0.1399,0.1054,0.1035,0.0941,0.0884,0.0895,0.0608,0.0442,0.0435,0.0191,0.0081,0.0053,0.008,0.0079,0.0052,0.0052,0.0026,0.0,0.0,0.0025,0.0101,0.0101,0.0253,0.0455,0.0455,0.0455,0.048,0.0732,0.0631,0.0481,0.0721,0.0793,0.0811,0.0825,0.0844,0.0859,0.0884,0.0884,0.0884,0.0884,0.0884,0.0884,0.0884,0.0884,0.0883,0.0881,0.0833,0.0884,0.1094,0.0894,0.0825,0.1239,0.1298,0.1307,0.1301,0.1297,0.1308,0.1294,0.1293,0.1307,0.1289,0.134,0.1384,0.1382,0.1387,0.1514,0.1781,0.18,0.1931,0.2198,0.2699,0.3099,0.3371,0.3985,0.4384,0.4541,0.4603,0.4639,0.124,0.1195,0.1167,0.1354,0.1346,0.1337,0.1392,0.139,0.142,0.1534,0.1167,0.0892,0.1038,0.058,0.0242,0.0387,0.0747,0.102,0.0985,0.1409,0.1665,0.1492,0.1925,0.2208,0.2066,0.2229,0.2339,0.2397,0.2192,0.2058,0.2039,0.1486,0.1099,0.0981,0.0589,0.0389,0.0383,0.0386,0.0384,0.0377,0.0247,0.0165,0.0164,0.0055,0.0,0.0,0.0,0.0,0.0,0.0,0.0,0.0,0.0,0.0,0.0,0.0,0.0076,0.0177,0.0177,0.0177,0.0177,0.0303,0.0254,0.018,0.0307,0.0333,0.0359,0.0511,0.0559,0.0606,0.0758,0.0808,0.0808,0.0808,0.0808,0.0808,0.0808,0.0808,0.0808,0.0808,0.0773,0.0786,0.0899,0.0771,0.0723,0.0914,0.1046,0.1122,0.112,0.1235,0.1319,0.1348,0.1355,0.1356,0.1351,0.1389,0.14,0.1392,0.1396,0.1458,0.157,0.1727,0.1861,0.1974,0.2334,0.2682,0.2993,0.3205,0.3359,0.3439,0.3439,0.3262,0.0991,0.1135,0.1242,0.137,0.1426,0.1442,0.136,0.1412,0.1457,0.132,0.0772,0.029,0.0158,-0.0426,-0.0864,-0.0854,-0.0272,0.0162,0.0054,0.0612,0.097,0.0734,0.0778,0.0829,0.0839,0.0871,0.0905,0.0889,0.0767,0.072,0.075,0.0465,0.0301,0.028,0.0112,0.0,0.0,0.0,0.0,0.0,0.0,-0.0138,-0.0358,-0.0363,-0.0224,0.0,0.0,0.0,0.0,0.0,0.0,0.0,0.0,0.0,0.0,0.0,0.0,0.0,0.0,0.0,0.0,0.0,0.0,0.0,0.0,0.0,0.0051,0.0231,0.028,0.0328,0.053,0.0581,0.0581,0.0581,0.0581,0.0581,0.0581,0.0581,0.0581,0.0581,0.0583,0.0608,0.0675,0.0586,0.0527,0.0617,0.0734,0.0854,0.0904,0.1054,0.1161,0.1192,0.1216,0.1247,0.1318,0.1311,0.1357,0.1416,0.1436,0.1421,0.1391,0.1583,0.1694,0.1682,0.193,0.2193,0.2452,0.2465,0.2461,0.2462,0.2462,0.2269,0.0797,0.0999,0.1156,0.0971,0.1252,0.1524,0.1277,0.1448,0.1458,0.069,0.0458,0.0189,-0.0444,-0.0694,-0.0788,-0.0722,-0.063,-0.0627,-0.0824,-0.0723,-0.0656,-0.0732,-0.0505,-0.0354,0.0,0.0411,0.091,0.091,0.0607,0.0403,0.0411,0.0167,0.0,0.0,0.0,0.0,0.0,0.0,0.0,0.0,0.0,-0.0448,-0.1261,-0.1262,-0.0813,0.0,0.0,0.0,0.0,0.0,0.0,0.0,0.0,0.0,0.0,0.0,0.0,0.0,0.0,0.0,0.0,0.0,0.0,0.0,0.0,0.0,0.0,0.0,0.0,0.0025,0.0025,0.0025,0.0025,0.0025,0.0025,0.0025,0.0025,0.0025,0.0025,0.0025,0.0026,0.0104,0.0363,0.0201,0.0099,0.0377,0.0407,0.0484,0.0692,0.0704,0.0708,0.0717,0.0729,0.0833,0.1094,0.1118,0.1227,0.148,0.1502,0.1466,0.1414,0.1407,0.1406,0.1412,0.1614,0.1745,0.1824,0.2018,0.2123,0.2121,0.2121,0.2075,0.0879,0.1122,0.1331,0.1308,0.1477,0.1639,0.1564,0.1215,0.0849,0.0603,-0.0309,-0.1107,-0.1285,-0.1868,-0.2329,-0.2294,-0.187,-0.1558,-0.1673,-0.1152,-0.0832,-0.1033,-0.1023,0.0,0.0,0.0,0.0,0.0312,0.0209,0.0133,0.0137,0.0054,0.0,0.0,0.0,-0.028,-0.0863,-0.0867,-0.1174,-0.1778,-0.1788,-0.1933,-0.2241,-0.2241,-0.1737,-0.0869,-0.0859,-0.0525,0.0,0.0,0.0,0.0,0.0,-0.0104,-0.0232,-0.0077,-0.0103,-0.0231,-0.0051,0.0,0.0,0.0,0.0,0.0,0.0,0.0,0.0,0.0,0.0,0.0,0.0,0.0,0.0,0.0,0.0,0.0,0.0,0.0,0.0,0.0,0.0,0.0026,0.013,0.0051,0.0025,0.0126,0.0295,0.0479,0.0685,0.0729,0.0762,0.0772,0.0759,0.0813,0.09,0.0899,0.0988,0.1229,0.1235,0.1314,0.1466,0.1414,0.1402,0.139,0.1636,0.175,0.1738,0.1854,0.1877,0.1828,0.1662,0.1655,0.0988,0.1249,0.1414,0.1285,0.1405,0.1455,0.1082,0.0689,0.0264,-0.0179,-0.1066,-0.1842,-0.2056,-0.2585,-0.2982,-0.2954,-0.2569,-0.2294,-0.2432,-0.1956,-0.17,-0.2012,-0.1911,-0.1889,0.0,0.0,0.0,-0.0303,-0.0357,-0.0286,-0.0027,0.0,-0.0136,-0.0448,-0.0477,-0.0897,-0.1793,-0.1793,-0.2101,-0.2716,-0.3024,-0.2996,-0.2716,-0.3024,-0.266,-0.1793,-0.1801,-0.1465,-0.0942,-0.0916,-0.0799,-0.0559,-0.0578,-0.0572,-0.0516,-0.0389,-0.0443,-0.0549,-0.0257,-0.0154,-0.0154,-0.0153,-0.0233,-0.0289,-0.0077,-0.0077,-0.013,-0.0026,-0.0076,-0.0152,-0.0153,-0.0153,-0.0179,-0.0283,-0.0234,-0.0184,-0.0288,-0.0317,-0.032,-0.032,-0.0322,-0.0322,-0.0318,-0.0316,-0.0286,-0.0152,-0.0075,0.0099,0.0415,0.0497,0.0503,0.0521,0.0527,0.0553,0.0645,0.0645,0.0762,0.0989,0.0993,0.1049,0.1203,0.1171,0.1158,0.1143,0.1304,0.1443,0.1585,0.1271,0.1278,0.1534,0.0967,0.0921,0.1123,0.1349,0.1385,0.0925,0.104,0.0974,-0.0052,-0.0105,-0.0261,-0.1529,-0.1772,-0.1945,-0.2631,-0.2782,-0.2772,-0.2717,-0.2724,-0.2838,-0.3093,-0.3098,-0.3198,-0.3582,0.0,0.0,0.0,0.0,0.0,-0.1003,0.0,-0.0864,-0.0182,-0.0134,-0.0495,-0.1345,-0.1374,-0.1821,-0.2772,-0.2856,-0.2884,-0.2856,-0.3723,-0.3666,-0.2853,-0.3689,-0.3604,-0.2765,-0.2763,-0.2682,-0.2586,-0.2592,-0.2203,-0.1643,-0.1637,-0.134,-0.0903,-0.0965,-0.097,-0.0903,-0.0601,-0.0473,-0.0425,-0.0417,-0.0648,-0.0779,-0.0208,-0.0231,-0.0381,-0.0129,-0.0231,-0.0431,-0.0414,-0.0416,-0.0496,-0.0823,-0.0667,-0.0507,-0.0828,-0.0909,-0.0909,-0.0909,-0.0893,-0.0902,-0.0901,-0.0889,-0.079,-0.0457,-0.0631,-0.0606,-0.0076,-0.0025,-0.0025,0.0,0.0,0.0101,0.0354,0.0379,0.0501,0.0762,0.0771,0.0732,0.0648,0.0668,0.066,0.0628,0.0604,0.0831,0.1303,0.034,0.0337,0.1136,0.0084,-0.0062,0.1303,0.1363,0.1258,0.1203,0.0753,0.0241,-0.0133,-0.0806,-0.1449,-0.1738,-0.2064,-0.2316,-0.2356,-0.248,-0.2651,-0.2887,-0.3141,-0.338,-0.3663,-0.3681,-0.3715,-0.382,0.0,-0.3627,-0.37,-0.3749,0.0,0.0,-0.2192,-0.1965,-0.195,-0.1844,-0.1958,-0.2322,-0.2353,-0.2884,-0.4032,-0.4929,-0.5264,-0.5009,-0.5487,-0.5313,-0.4589,-0.5054,-0.4637,-0.353,-0.3511,-0.3108,-0.2457,-0.246,-0.2346,-0.2188,-0.2189,-0.2233,-0.2276,-0.2087,-0.1902,-0.1722,-0.1688,-0.1275,-0.0756,-0.0716,-0.0744,-0.0803,-0.0639,-0.064,-0.0697,-0.0674,-0.0692,-0.0713,-0.0762,-0.0761,-0.0783,-0.0876,-0.0835,-0.0788,-0.0869,-0.0906,-0.0914,-0.0914,-0.0907,-0.0898,-0.0888,-0.09,-0.0856,-0.071,-0.0758,-0.0682,-0.0354,-0.0303,-0.0227,-0.0025,0.0,0.0025,0.0101,0.0101,0.0225,0.0492,0.0506,0.0331,-0.0023,0.0293,0.0223,-0.0336,0.0178,0.0329,0.0065,-0.0197,-0.0415,-0.0559,-0.0646,-0.0494,0.1257,0.1052,0.0634,0.0434,-0.0134,-0.0729,-0.1149,-0.1718,-0.2187,-0.2232,-0.2423,-0.2544,-0.2405,-0.2468,-0.2623,-0.2881,-0.3151,-0.3424,-0.3717,-0.3803,-0.3873,-0.406,-0.4067,0.0,-0.4115,-0.4351,-0.4332,0.0,-0.319,-0.2753,-0.2597,-0.252,-0.2784,-0.3467,-0.3501,-0.406,-0.5264,-0.5824,-0.6026,-0.5925,-0.5917,-0.57,-0.5322,-0.5441,-0.5138,-0.4549,0.0,-0.4302,-0.388,-0.3882,-0.3729,-0.3453,-0.3317,-0.3228,-0.313,-0.2875,-0.2775,-0.2747,-0.2799,-0.263,-0.2249,-0.1311,-0.1107,-0.1139,-0.0889,-0.0896,-0.1013,-0.0935,-0.0959,-0.1015,-0.1071,-0.107,-0.1121,-0.1249,-0.1181,-0.1106,-0.1271,-0.1309,-0.129,-0.129,-0.1308,-0.1234,-0.1097,-0.1163,-0.1197,-0.1014,-0.1086,-0.1061,-0.0783,-0.0556,-0.0354,-0.0202,-0.0076,0.0,0.0,0.0,-0.0075,-0.0246,-0.0072,-0.0213,-0.0764,-0.034,-0.0269,-0.0695,-0.0291,-0.0134,-0.022,-0.0646,-0.0891,-0.099,-0.1167,-0.1095,0.0888,0.0426,-0.032,-0.0758,-0.1245,-0.179,-0.2466,-0.2613,-0.2637,-0.2784,-0.2745,-0.2658,-0.2581,-0.2569,-0.264,-0.2866,-0.3048,-0.3285,-0.3685,-0.3756,-0.3942,-0.4319,-0.4319,-0.4356,-0.4453,-0.4663,-0.4773,-0.4747,-0.4122,-0.3513,-0.2971,-0.2985,-0.3539,-0.4698,-0.476,-0.5292,-0.633,-0.6089,-0.6035,-0.6142,-0.5781,-0.5557,-0.5545,-0.5388,-0.5402,-0.5523,-0.5523,-0.5602,-0.5774,-0.5774,-0.544,-0.4885,-0.4663,-0.4284,-0.3836,-0.3667,-0.3716,-0.3845,-0.3845,-0.4047,-0.3988,-0.2183,-0.1736,-0.1759,-0.1193,-0.1177,-0.1299,-0.1067,-0.1185,-0.1364,-0.1364,-0.1369,-0.1427,-0.1731,-0.157,-0.1458,-0.1739,-0.1795,-0.1821,-0.1929,-0.1956,-0.1908,-0.174,-0.1783,-0.1764,-0.1477,-0.1546,-0.152,-0.1289,-0.0808,-0.0505,-0.0455,-0.0253,-0.0101,-0.0101,-0.0101,-0.04,-0.1102,-0.077,-0.0873,-0.1568,-0.1155,-0.0919,-0.0986,-0.0942,-0.0718,-0.0336,-0.1143,-0.1345,-0.1008,-0.1592,-0.1754,-0.0414,-0.0869,-0.1327,-0.1312,-0.206,-0.2795,-0.2772,-0.2961,-0.3117,-0.2923,-0.269,-0.2511,-0.2453,-0.2442,-0.2649,-0.3268,-0.3414,-0.3661,-0.4326,-0.4334,-0.4363,-0.4612,-0.448,-0.4486,-0.4697,-0.472,0.0,0.0,-0.5029,-0.498,-0.4755,-0.4954,-0.5355,-0.5959,-0.6212,-0.6406,-0.6631,-0.6733,-0.6676,-0.6433,-0.6526,-0.6263,-0.5747,-0.595,-0.5873,-0.559,-0.559,0.0,-0.5637,-0.5637,-0.5575,-0.5461,-0.5411,-0.5334,-0.5261,-0.5201,-0.4958,-0.4605,-0.4605,-0.4429,-0.4095,-0.3413,-0.302,-0.2685,-0.2257,-0.1892,-0.1615,-0.1584,-0.1594,-0.1637,-0.1689,-0.1713,-0.173,-0.1788,-0.1767,-0.1739,-0.1795,-0.1795,-0.2011,-0.2669,-0.2798,-0.2997,-0.3655,-0.3164,-0.2693,-0.269,-0.2117,-0.1645,-0.1544,-0.1263,-0.0985,-0.0758,-0.0682,-0.0657,-0.0657,-0.0657,-0.0871,-0.1393,-0.1362,-0.1711,-0.2594,-0.2179,-0.213,-0.2509,-0.213,-0.1974,-0.2064,-0.2221,-0.2377,-0.2509,-0.2242,-0.2305,-0.12,-0.1812,-0.243,-0.2488,-0.3177,-0.3728,-0.3321,-0.3418,-0.3455,-0.2908,-0.2724,-0.2624,-0.253,-0.2538,-0.2725,-0.3213,-0.3378,-0.3675,-0.4352,-0.4409,-0.448,-0.4687,-0.501,-0.5263,-0.5324,-0.5852,-0.6101,-0.5843,-0.6079,-0.6003,-0.5481,-0.59,-0.6277,-0.649,-0.6796,-0.6934,-0.6851,-0.6793,-0.6674,-0.6553,-0.6402,-0.6182,-0.5895,-0.5977,-0.5917,-0.5814,-0.5814,-0.5887,-0.6012,-0.6012,-0.6012,-0.6012,-0.5864,-0.5814,-0.5794,-0.5724,-0.5618,-0.5519,-0.5519,-0.5592,-0.5587,-0.5105,-0.4398,-0.3694,-0.3509,-0.3282,-0.307,-0.2932,-0.3012,-0.3127,-0.2985,-0.3062,-0.3217,-0.3216,-0.3194,-0.3194,-0.3194,-0.3194,-0.3325,-0.3712,-0.3789,-0.3906,-0.4297,-0.3988,-0.3658,-0.3638,-0.3161,-0.2757,-0.2655,-0.2397,-0.2019,-0.1489,-0.1539,-0.164,-0.164,-0.164,-0.1895,-0.2495,-0.2322,-0.2519,-0.3285,-0.2871,-0.263,-0.2691,-0.2467,-0.2401,-0.2491,-0.2491,-0.2647,-0.2889,-0.2535,-0.2467,-0.2073,-0.2751,-0.3483,-0.3631,-0.4091,-0.4354,-0.3729,-0.3691,-0.3602,-0.2859,-0.2748,-0.2765,-0.2698,-0.2699,-0.2802,-0.3131,-0.3283,-0.3563,-0.4194,-0.4334,-0.4507,-0.49,-0.5539,0.0,-0.6131,-0.7012,0.0,-0.6981,-0.7105,-0.6847,-0.5952,-0.6415,-0.674,-0.6796,-0.7074,-0.7138,-0.7048,-0.675,-0.6642,-0.6672,-0.6295,-0.6115,-0.6131,-0.6014,-0.6019,-0.6092,-0.6092,-0.6214,-0.6412,-0.6412,-0.6412,-0.6387,-0.6164,-0.6092,-0.6077,-0.5961,-0.607,-0.6256,-0.628,-0.6563,-0.6853,-0.6456,-0.5572,-0.4652,-0.4599,-0.4482,-0.4344,-0.4142,-0.4281,-0.4451,-0.417,-0.4311,-0.4508,-0.4508,-0.4508,-0.4508,-0.4508,-0.4508,-0.4559,-0.4708,-0.4732,-0.4795,-0.4922,-0.4787,-0.4597,-0.4519,-0.4126,-0.3808,-0.3611,-0.3506,-0.3204,-0.2572,-0.2548,-0.2573,-0.2573,-0.2573,-0.2852,-0.3555,-0.3234,-0.3259,-0.3776,-0.3429,-0.3103,-0.2798,-0.2751,-0.2722,-0.2688,-0.2653,-0.2691,-0.2756,-0.2579,-0.2491,-0.347,-0.3972,-0.426,-0.4153,-0.4367,-0.4408,-0.3673,-0.3524,-0.3381,-0.2818,-0.2711,-0.2766,-0.2928,-0.2818,-0.2863,-0.338,-0.3319,-0.3446,-0.4124,-0.4213,-0.4616,-0.5654,0.0,0.0,-0.7162,-0.7359,-0.7591,-0.801,-0.7956,-0.7517,-0.6642,-0.668,-0.6851,-0.7154,-0.7182,-0.7204,-0.7193,-0.7037,-0.6945,-0.695,-0.6797,-0.6655,-0.6551,-0.6536,-0.6475,-0.6362,-0.6362,-0.6387,0.0,-0.6412,-0.6412,-0.6387,-0.6362,-0.6362,-0.6362,-0.6348,-0.6353,-0.6394,-0.653,-0.6609,-0.6642,-0.6731,-0.6184,-0.5448,-0.5214,-0.4739,-0.4329,-0.4346,-0.4421,-0.448,-0.4451,-0.4479,-0.4508,-0.4508,-0.4508,-0.4508,-0.4508,-0.4508,-0.471,-0.5374,-0.5496,-0.5766,-0.6603,-0.6002,-0.5426,-0.5461,-0.4678,-0.3959,-0.3636,-0.4009,-0.4262,-0.4187,-0.3556,-0.313,-0.313,-0.313,-0.3328,-0.3826,-0.3823,-0.3907,-0.4135,-0.4059,-0.3935,-0.3769,-0.359,-0.344,-0.3321,-0.319,-0.2825,-0.2266,-0.2424,-0.2491,-0.4,-0.4398,-0.4619,-0.4472,-0.4495,-0.4355,-0.3663,-0.346,-0.3295,-0.2797,-0.2705,-0.2732,-0.2804,-0.276,-0.2788,-0.3036,-0.3117,0.0,-0.3715,-0.3955,-0.4485,-0.5598,-0.6333,-0.7156,0.0,0.0,-0.9327,-0.9346,-0.8592,-0.7968,-0.7616,-0.7224,-0.7074,-0.721,-0.721,-0.7149,-0.7081,-0.7035,-0.691,-0.6766,-0.679,-0.67,-0.6488,-0.6561,-0.6566,-0.652,-0.652,-0.652,0.0,-0.652,-0.6477,-0.6412,-0.6412,-0.6412,-0.642,-0.6493,-0.652,-0.6528,-0.6577,-0.6642,-0.6725,-0.67,-0.6458,-0.6221,-0.628,-0.6102,-0.5906,-0.5818,-0.5955,-0.6068,-0.5875,-0.5986,-0.6123,-0.6123,-0.6123,-0.6123,-0.6123,-0.6123,-0.6223,-0.6511,-0.6558,-0.6651,-0.6942,-0.6673,-0.6352,-0.6216,-0.5719,-0.5295,-0.5073,-0.5087,-0.5112,-0.5112,-0.4686,-0.4411,-0.4411,-0.4411,-0.4422,-0.4436,-0.4434,-0.4472,-0.4488,-0.4474,-0.4423,-0.4312,-0.4054,-0.3872,-0.3813,-0.3555,-0.316,-0.2623,-0.2825,-0.2781,-0.4124,-0.446,-0.4722,-0.4569,-0.4483,-0.4266,-0.3651,-0.3425,-0.3237,-0.2789,-0.2705,-0.2717,-0.2774,-0.2789,-0.2824,-0.2899,0.0,-0.3231,-0.3497,-0.3818,-0.4433,-0.5504,0.0,-0.7701,-0.8721,-0.9987,-1.0591,-1.0225,-0.9439,-0.8767,-0.8303,-0.7731,-0.7337,-0.721,-0.7149,-0.7092,-0.7013,-0.7046,-0.6912,-0.6647,-0.6798,-0.6728,-0.6469,-0.6593,-0.6628,-0.6596,-0.6631,-0.6628,0.0,-0.6593,-0.6523,-0.6414,-0.645,-0.6463,-0.6479,-0.6601,-0.6647,-0.6653,-0.6714,-0.6736,-0.6747,-0.6733,-0.673,-0.6797,-0.7044,-0.704,-0.6937,-0.6865,-0.7018,-0.7154,-0.6907,-0.7018,-0.721,-0.721,-0.721,-0.721,-0.721,-0.721,-0.721,-0.721,-0.721,-0.7147,-0.7032,-0.6956,-0.6861,-0.6623,-0.6413,-0.6207,-0.6027,-0.5839,-0.5712,-0.5712,-0.5539,-0.5416,-0.5313,-0.5313,-0.5238,-0.506,-0.5035,-0.5007,-0.497,-0.4943,-0.4847,-0.4636,-0.4354,-0.4135,-0.3974,-0.3735,-0.3361,-0.2911,-0.3114,-0.2983,-0.3908,-0.4304,-0.4576,-0.4436,-0.4342,-0.4161,-0.3618,-0.3391,-0.3187,-0.2789,-0.2705,-0.2758,-0.2967,-0.3,-0.3045,-0.3178,-0.3192,0.0,-0.3568,-0.3881,-0.4488,0.0,-0.6461,-0.7512,-0.878,-1.0222,-1.0891,-1.0437,-1.0625,0.0,-0.8585,-0.8104,-0.7686,-0.7207,-0.7073,-0.7013,-0.7013,-0.7125,-0.7062,-0.6801,-0.6923,-0.6855,-0.6596,-0.6744,-0.6736,-0.6601,-0.6747,-0.6733,0.0,-0.6593,-0.6523,-0.6423,-0.6544,-0.6593,-0.6607,-0.6755,-0.6801,-0.6817,-0.694,-0.6823,-0.6636,-0.6904,-0.7034,-0.7139,-0.7336,-0.7113,-0.6853,-0.7117,-0.721,-0.721,-0.721,-0.721,-0.721,-0.721,-0.721,-0.721,-0.721,-0.721,-0.721,-0.721,-0.721,-0.7147,-0.7032,-0.6883,-0.676,-0.6612,-0.649,-0.6289,-0.6042,-0.5992,-0.5992,-0.5992,-0.5992,-0.5889,-0.5611,-0.5584,-0.5584,-0.5584,-0.5584,-0.5584,-0.5584,-0.5514,-0.524,-0.4698,-0.4573,-0.4229,-0.3701,-0.3624,-0.3361,-0.2911,-0.3114,-0.3094,-0.3635,-0.3946,-0.4145,-0.3906,-0.3868,-0.377,-0.3326,-0.3123,-0.2969,-0.2751,-0.274,-0.2786,-0.2856,-0.2982,-0.3082,-0.3124,-0.3286,-0.3619,0.0,0.0,0.0,-0.7236,-0.8709,-0.9805,0.0,0.0,-1.1258,-1.0958,-1.0863,-1.0463,-0.9697,-0.8618,-0.7737,-0.7089,-0.6757,-0.6669,-0.6861,-0.6896,-0.6834,-0.6653,-0.6801,-0.6733,-0.6474,-0.6596,-0.6631,-0.6596,-0.6634,-0.6628,-0.6593,-0.6593,-0.6572,-0.6567,-0.6839,-0.6958,-0.7006,-0.7048,-0.7165,-0.7257,-0.7064,-0.6949,-0.6895,-0.6974,-0.7081,-0.7194,-0.7362,-0.7466,-0.7573,-0.7717,-0.774,-0.774,-0.774,-0.774,-0.774,-0.774,-0.774,-0.774,-0.774,-0.7601,-0.7465,-0.7465,-0.7324,-0.7147,-0.7032,-0.6883,-0.676,-0.6612,-0.649,-0.6362,-0.6287,-0.6262,-0.6262,-0.6262,-0.6114,-0.5967,-0.5889,-0.5864,-0.5639,-0.5085,-0.506,-0.4885,-0.4533,-0.4802,-0.495,-0.497,-0.4925,-0.4687,-0.4252,-0.3959,-0.365,-0.3384,-0.3452,-0.3609,-0.33,-0.3616,-0.3766,-0.3612,-0.3602,-0.3554,-0.3248,-0.3124,-0.304,-0.2884,-0.2762,-0.2727,-0.2847,-0.2855,-0.2902,-0.3063,-0.3481,-0.3997,-0.4666,0.0,0.0,-0.8311,-0.9617,0.0,0.0,-1.1203,-1.1373,-1.1321,-1.1227,-1.0924,-1.0352,-0.9405,-0.8542,-0.7773,-0.6926,-0.6547,-0.6733,-0.6779,-0.6873,-0.698,-0.7113,-0.7218,-0.731,-0.7122,-0.7052,-0.7032,-0.6797,-0.6714,0.0,-0.675,-0.6773,-0.6862,-0.7118,-0.724,-0.729,-0.7387,-0.7504,-0.7602,-0.7446,-0.7352,-0.7343,-0.7367,-0.7514,-0.7726,-0.7922,-0.7947,-0.7926,-0.7932,-0.795,-0.7989,-0.7989,-0.7851,-0.7712,-0.7826,-0.7687,-0.7546,-0.7681,-0.7573,-0.7438,-0.7438,-0.7407,-0.7298,-0.7104,-0.7092,-0.7032,-0.6856,-0.6662,-0.6514,-0.6412,-0.6312,-0.6212,-0.6112,-0.5939,-0.5839,-0.5839,-0.5839,-0.5639,-0.5135,-0.511,-0.496,-0.4609,-0.4883,-0.4967,-0.4798,-0.4964,-0.4791,-0.4231,-0.4173,-0.404,-0.3853,-0.3853,-0.4032,0.0,-0.3282,-0.346,-0.3442,-0.3455,-0.343,-0.3303,-0.3332,0.0,-0.3144,-0.2789,-0.261,-0.2907,-0.2699,-0.2628,-0.3055,-0.3786,-0.4485,-0.5065,-0.6198,0.0,0.0,-0.9449,0.0,-1.0459,-1.0914,-1.1243,-1.1457,-1.1669,-1.1441,-1.0586,-1.0327,-0.9866,-0.9085,-0.7575,-0.6733,-0.6682,-0.6798,-0.7099,-0.7605,-0.7715,-0.8138,-0.8779,-0.8152,-0.7881,0.0,-0.722,-0.7,-0.7126,-0.7075,-0.7158,-0.7288,-0.7391,-0.7449,-0.746,-0.7733,-0.7825,-0.787,-0.7971,-0.7959,-0.793,-0.7987,-0.8229,-0.854,-0.8813,-0.8502,-0.8033,-0.7904,-0.7959,-0.8057,-0.8057,-0.7676,-0.7379,-0.7607,-0.7243,-0.6907,-0.7182,-0.7238,-0.7238,-0.7238,-0.741,-0.7502,-0.726,-0.7419,-0.7484,-0.7255,-0.7004,-0.6742,-0.6487,-0.6239,-0.5989,-0.5737,-0.5687,-0.5687,-0.5687,-0.5661,-0.5611,-0.5536,-0.5584,-0.5559,-0.5484,-0.5529,-0.5185,-0.4358,-0.4774,-0.4635,-0.3908,-0.4304,-0.4466,-0.4354,-0.4354,-0.4373,-0.3057,0.0,-0.3017,-0.2911,-0.3037,-0.3158,0.0,0.0,0.0,0.0,0.0,-0.2714,-0.2629,-0.304,-0.3394,-0.3401,-0.4366,-0.5491,-0.6538,-0.8284,0.0,-0.9256,-0.9817,-1.0082,-0.9655,-1.0332,-1.0934,-1.1254,-1.1609,-1.1573,-1.1056,-1.0555,-1.0117,-0.9768,-0.8806,-0.7982,-0.7381,-0.739,-0.7472,-0.7605,-0.7641,-0.8062,-0.88,-0.8638,-0.8557,-0.856,-0.8396,-0.8342,-0.8335,-0.7939,-0.7834,-0.795,-0.7833,-0.7814,-0.7867,-0.793,-0.8111,-0.8302,-0.8073,-0.7983,-0.8004,-0.8177,-0.8346,-0.852,-0.8689,-0.8655,-0.8537,-0.8501,-0.8517,-0.8544,-0.8544,-0.852,-0.8463,-0.8322,-0.818,-0.8014,-0.7851,-0.7657,-0.7493,-0.7493,-0.7379,-0.7332,-0.7471,-0.7377,-0.7331,-0.7484,-0.7271,-0.7089,-0.7011,-0.6964,-0.6889,-0.6836,-0.6639,-0.6517,-0.6517,-0.6142,-0.5639,-0.5035,-0.5386,-0.5236,-0.441,-0.4918,-0.507,-0.4757,-0.5013,-0.5055,-0.4871,-0.4716,-0.4773,-0.4995,-0.4995,-0.5137,-0.32,-0.3067,-0.2888,-0.2805,-0.2954,-0.3077,-0.3009,0.0,0.0,0.0,0.0,-0.2719,-0.292,-0.3088,-0.3293,-0.3581,-0.4674,-0.5865,0.0,0.0,-0.9043,-0.878,-0.9316,-0.9692,0.0,-1.03,-1.0816,-1.1007,-1.1421,-1.1539,-1.1212,-1.0868,-1.056,-1.0368,-0.9941,-0.9097,-0.7786,-0.8031,-0.8261,-0.8481,-0.8635,-0.916,-1.0042,-0.9663,-0.9444,-0.9331,-0.9162,-0.9083,-0.9091,-0.8815,-0.8866,-0.9111,-0.8534,-0.8404,-0.8513,-0.8228,-0.8294,-0.8492,-0.8352,-0.8368,-0.8437,-0.8546,-0.8622,-0.8686,-0.8699,-0.871,-0.8696,-0.8625,-0.8604,-0.8621,-0.8693,-0.8553,-0.8407,-0.8468,-0.8294,-0.8072,-0.8017,-0.7798,-0.759,-0.7529,-0.7453,-0.7401,-0.7421,-0.7439,-0.7499,-0.7578,-0.7416,-0.7254,-0.7125,-0.7049,-0.6964,-0.6836,-0.6714,-0.6614,-0.6614,-0.6467,-0.6139,-0.5561,-0.5809,-0.5712,-0.5135,-0.5483,-0.5601,-0.5374,-0.5339,-0.5359,-0.5432,-0.5303,-0.537,-0.5616,-0.5616,-0.5699,-0.3373,-0.3243,-0.3028,-0.2953,-0.3023,-0.3102,-0.3144,0.0,0.0,0.0,0.0,-0.2896,-0.3421,-0.3258,-0.3215,-0.3754,-0.493,0.0,-0.7118,-0.7704,-0.8057,-0.8117,-0.8614,0.0,-0.9832,-1.0398,-1.0806,-1.0973,-1.1314,-1.1437,-1.1277,-1.112,-1.0984,-1.0811,-1.0801,-0.999,-0.8311,-0.8754,-0.917,-0.9569,-0.9871,-1.0525,-1.1493,-1.0801,-1.0437,-1.0282,0.0,0.0,-0.9913,-0.9786,-1.0053,-1.0442,-0.9426,-0.9132,-0.9197,-0.8646,-0.8455,-0.8495,-0.8598,-0.8716,-0.8838,-0.8818,-0.8825,-0.8821,-0.8716,-0.8696,-0.8655,-0.8547,-0.8526,-0.8532,-0.8615,-0.828,-0.8005,-0.8393,-0.8072,-0.775,-0.7959,-0.7826,-0.7631,-0.7517,-0.7587,-0.7617,-0.7419,-0.7672,-0.7857,-0.7773,-0.7666,-0.7496,-0.7261,-0.7101,-0.6946,-0.6718,-0.6673,-0.6637,-0.6637,-0.6842,-0.6892,-0.6661,-0.6562,-0.6512,-0.6462,-0.642,-0.624,-0.5971,-0.5747,-0.5705,-0.5857,-0.5967,-0.6107,-0.6256,-0.6256,-0.6244,-0.3563,-0.3655,-0.3635,-0.3185,-0.3091,-0.3144,-0.3316,0.0,0.0,0.0,0.0,0.0,-0.3622,-0.4392,-0.4843,-0.4161,0.0,-0.6972,0.0,0.0,-0.8843,-0.826,0.0,-0.9223,-0.9389,-1.0042,-1.0826,-1.1756,-1.1668,-1.1575,-1.1541,-1.1104,-1.0838,-1.0801,-1.0801,-1.0433,-0.9698,-0.9772,-0.9859,-0.9912,-0.9982,-1.0549,-1.159,-1.1467,-1.1521,-1.1688,0.0,-1.1696,-1.1817,-1.1148,-1.1173,-1.1545,-1.0471,-0.9843,-0.9503,-0.9182,-0.8747,-0.8332,-0.8355,-0.8457,-0.8533,-0.8437,-0.8481,-0.857,-0.8679,-0.8618,-0.854,-0.8645,-0.8581,-0.8485,-0.8389,-0.8376,-0.8372,-0.8335,-0.8263,-0.8155,-0.802,-0.7962,-0.7928,-0.7907,-0.7919,-0.8005,-0.8262,-0.8261,-0.8302,-0.8491,-0.8415,-0.8318,-0.8262,-0.8143,-0.8056,-0.8002,-0.7865,-0.7764,-0.7764,-0.7789,-0.7789,-0.7764,-0.7338,-0.6964,-0.6742,-0.647,-0.6287,-0.6244,-0.6193,-0.6306,-0.655,-0.6629,-0.6771,-0.6955,-0.6955,-0.6876,-0.3687,-0.3722,-0.3701,-0.353,-0.3612,-0.3825,-0.4092,0.0,0.0,0.0,0.0,0.0,0.0,0.0,-0.4995,-0.5627,0.0,-0.7114,-0.7554,-0.7956,-0.8096,0.0,0.0,-0.8864,-0.9416,-1.0157,-1.0875,-1.1512,-1.1707,-1.181,-1.181,-1.1169,-1.0801,-1.0801,-1.0511,-1.0314,-1.0216,-1.0507,-1.0634,-1.0608,-1.0782,-1.1255,-1.1994,-1.1994,-1.1998,-1.2015,0.0,-1.2309,-1.2274,-1.1887,-1.1971,-1.2222,-1.1191,-1.0739,-1.0569,-0.9654,-0.8885,-0.8308,-0.8386,-0.8509,-0.8594,-0.853,-0.8554,-0.8618,-0.8689,-0.8604,-0.8584,-0.8966,-0.896,-0.8729,-0.8306,-0.8565,-0.8818,-0.8309,-0.842,-0.8586,-0.8405,-0.8323,-0.8244,-0.8172,-0.8078,-0.7999,-0.8014,-0.8026,-0.8037,-0.8098,-0.8118,-0.8127,-0.8127,-0.8133,-0.8147,-0.8147,-0.8057,-0.7988,-0.7988,-0.7988,-0.7988,-0.7988,-0.7764,-0.759,-0.7466,-0.7161,-0.6857,-0.6586,-0.6435,-0.6333,-0.6311,-0.634,-0.6487,-0.6725,-0.6725,-0.6693,-0.3717,-0.3739,-0.3716,-0.373,-0.3874,-0.4138,-0.4561,-0.4712,0.0,0.0,0.0,0.0,0.0,-0.4216,0.0,-0.6583,-0.6985,-0.7091,-0.7093,-0.7353,-0.7622,-0.7804,-0.8186,-0.8793,-0.9698,-1.0393,-1.0928,-1.1269,-1.173,-1.2002,-1.2002,-1.1365,-1.0924,-1.0801,-1.0458,-1.0314,-1.0413,-1.0924,-1.12,-1.122,-1.154,-1.1899,-1.2318,-1.2318,-1.2271,-1.2191,-1.2515,-1.2602,-1.247,-1.2425,-1.2581,-1.2808,-1.19,-1.156,-1.1433,-1.0121,-0.9145,-0.8533,-0.862,-0.8609,-0.8527,-0.8527,-0.8577,-0.8608,-0.8608,-0.8524,-0.8511,-0.8958,-0.913,-0.9071,-0.8641,-0.895,-0.922,-0.863,-0.8691,-0.8842,-0.8837,-0.8638,-0.8434,-0.8412,-0.8285,-0.8136,-0.7896,-0.7965,-0.7996,-0.783,-0.7923,-0.7988,-0.7978,-0.8029,-0.8067,-0.8067,-0.8037,-0.7967,-0.7917,-0.7839,-0.7814,-0.7814,-0.7939,-0.7967,-0.7917,-0.7643,-0.7294,-0.682,-0.6589,-0.6414,-0.6289,-0.6289,-0.6414,-0.6689,-0.6612,-0.6587,-0.3607,-0.3833,-0.3969,-0.3612,-0.3353,-0.3372,-0.4075,-0.3818,0.0,-0.4199,0.0,0.0,0.0,-0.4399,-0.4999,-0.6,-0.6482,-0.7086,-0.8129,0.0,-0.8519,-0.9002,-0.9116,-0.9452,-1.0261,-1.0613,-1.1006,-1.1534,-1.1843,-1.201,-1.201,-1.1724,-1.1316,-1.083,-1.0998,-1.0875,-1.0413,-1.0924,-1.1326,-1.156,-1.1839,-1.2107,-1.2396,-1.2396,-1.2508,-1.274,-1.2772,-1.2877,-1.3029,-1.277,-1.2977,-1.3381,-1.2813,-1.2192,-1.1492,-1.0647,-0.9809,-0.9137,-0.9149,-0.867,-0.806,-0.806,-0.8184,-0.8328,-0.8328,-0.8232,-0.8144,-0.8187,-0.8755,-0.9443,-0.9776,-0.9714,-0.9606,-0.9661,-0.9189,-0.8815,-0.9186,-0.8758,-0.8375,-0.8632,-0.8753,-0.8803,-0.8642,-0.874,-0.874,-0.8474,-0.8541,-0.8601,-0.8459,-0.8343,-0.8281,-0.8281,-0.8101,-0.7892,-0.7646,-0.7391,-0.7263,-0.7263,-0.7711,-0.7892,-0.7646,-0.7366,-0.7089,-0.6795,-0.677,-0.6892,-0.7113,-0.7113,-0.7241,-0.7497,-0.7266,-0.7138,-0.3444,-0.3787,-0.4001,-0.3301,-0.33,-0.3682,-0.4512,-0.4647,-0.4588,-0.4501,-0.5335,0.0,0.0,0.0,-0.6547,-0.6856,-0.7316,-0.7876,-0.8548,-0.8783,-0.9034,-0.9406,-0.938,-0.9506,-0.9991,-1.0413,-1.0833,-1.1207,-1.1742,-1.2113,-1.2238,-1.168,-1.1332,-1.1292,-1.09,-1.0683,-1.0659,-1.1027,-1.1316,-1.1609,-1.1878,-1.2224,-1.2643,-1.2643,-1.2686,-1.2813,-1.2813,-1.2837,-1.2918,-1.2801,-1.2879,-1.3048,-1.2838,-1.2277,-1.1536,-1.1071,-1.0384,-0.9595,-0.8924,-0.8596,-0.8358,-0.7848,-0.7734,-0.784,-0.8013,-0.7813,-0.7709,-0.8555,-0.9017,-0.9226,-0.8992,-0.9585,-1.0083,-0.9551,-0.9257,-0.9094,-0.9157,-0.8779,-0.8491,-0.8666,-0.873,-0.872,-0.8594,-0.8615,-0.8554,-0.8226,-0.808,-0.7994,-0.7938,-0.7756,-0.762,-0.762,-0.77,-0.7718,-0.7596,-0.7665,-0.769,-0.769,-0.7562,-0.7462,-0.7366,-0.7092,-0.6992,-0.7042,-0.6892,-0.6942,-0.7213,-0.7213,-0.7163,-0.7095,-0.6992,-0.6864,-0.3365,-0.3635,-0.3807,-0.3053,-0.3213,-0.3716,-0.4405,-0.4878,-0.5146,-0.5054,-0.5439,-0.5892,-0.622,0.0,0.0,0.0,-0.7655,-0.829,-0.8736,-0.8952,-0.9184,-0.9498,-0.9453,-0.9451,-0.956,-1.0111,-1.0544,-1.0727,-1.1503,-1.2066,-1.2285,-1.1753,-1.1514,-1.1604,-1.1071,-1.0777,-1.0801,-1.1071,-1.1394,-1.1736,-1.1902,-1.2248,-1.2691,-1.2837,-1.2886,-1.2886,-1.2886,-1.2886,-1.2886,-1.2837,-1.2813,-1.2789,-1.271,-1.2346,-1.1829,-1.1561,-1.0949,-1.0142,-0.9418,-0.8903,-0.852,-0.7962,-0.7664,-0.7522,-0.7637,-0.7437,-0.7409,-0.8523,-0.8942,-0.9046,-0.8887,-0.9803,-1.0625,-0.999,-0.9681,-0.9526,-0.9507,-0.8999,-0.8615,-0.8851,-0.8749,-0.8621,-0.8564,-0.8539,-0.8414,-0.8182,-0.7967,-0.7815,-0.7815,-0.7594,-0.7413,-0.7341,-0.7494,-0.7572,-0.7469,-0.764,-0.7739,-0.7739,-0.7413,-0.7238,-0.7316,-0.7141,-0.7092,-0.7188,-0.7092,-0.7144,-0.7316,-0.7316,-0.7241,-0.7045,-0.687,-0.6692,-0.3398,-0.3388,-0.3395,-0.2913,-0.3008,-0.3279,-0.3539,-0.4161,-0.4932,-0.5824,-0.5511,-0.5478,-0.6677,-0.6184,0.0,-0.6229,-0.7263,-0.8184,-0.8726,-0.88,-0.8962,-0.9352,-0.94,-0.9307,-0.9112,-0.9776,-1.02,-1.02,-1.1136,-1.1823,-1.2101,-1.2041,-1.1873,-1.1604,-1.1609,-1.134,-1.0806,-1.1071,-1.1463,-1.2005,-1.2005,-1.2151,-1.2419,-1.288,-1.3098,-1.3098,-1.3098,-1.3098,-1.3069,-1.288,-1.2807,-1.2764,-1.2492,-1.2395,-1.237,-1.2102,-1.1487,-1.0806,-1.0801,-0.9739,-0.8407,-0.8407,-0.7985,-0.7469,-0.7256,-0.7162,-0.7243,-0.7835,-0.8382,-0.8998,-0.9793,-1.0609,-1.1194,-1.1194,-1.058,-1.0068,-1.0364,-0.9511,-0.8819,-0.9216,-0.8879,-0.853,-0.8682,-0.8584,-0.8509,-0.8509,-0.8389,-0.8298,-0.8298,-0.8111,-0.7892,-0.7621,-0.7596,-0.7494,-0.7213,-0.7213,-0.7213,-0.7213,-0.7213,-0.7316,-0.7596,-0.7596,-0.7469,-0.7213,-0.7469,-0.7596,-0.7596,-0.7596,-0.7596,-0.7596,-0.7045,-0.6795,-0.2895,-0.3182,-0.3335,-0.2678,-0.3178,-0.3808,-0.3692,-0.3944,0.0,0.0,-0.5462,-0.547,-0.603,-0.6347,0.0,-0.6377,-0.7283,-0.8183,-0.8717,-0.8952,-0.9166,-0.9376,-0.927,-0.91,-0.8899,-0.9589,-1.0111,-1.026,-1.1167,-1.1888,-1.2282,-1.193,-1.1768,-1.1886,-1.1512,-1.1243,-1.1071,-1.1169,-1.1463,-1.2005,-1.22,-1.2492,-1.288,-1.2886,-1.308,-1.337,-1.3031,-1.2884,-1.2879,-1.2612,-1.2638,-1.2764,-1.2492,-1.2395,-1.2346,-1.1883,-1.1565,-1.1243,-1.0511,-0.992,-0.9348,-0.8205,-0.7709,-0.7481,-0.6932,-0.7089,-0.756,-0.8019,-0.8864,-0.9743,-1.0167,-1.0875,-1.1487,-1.1487,-1.0875,-1.0413,-1.085,-0.9809,-0.8898,-0.9295,-0.8901,-0.8522,-0.854,-0.8445,-0.8395,-0.8499,-0.8108,-0.779,-0.774,-0.769,-0.75,-0.7079,-0.7372,-0.7494,-0.7213,-0.754,-0.7764,-0.7764,-0.7764,-0.764,-0.7341,-0.7316,-0.7366,-0.7469,-0.7572,-0.7696,-0.7892,-0.7892,-0.7793,-0.7596,-0.7447,-0.7269,-0.2944,-0.3135,-0.3252,-0.2852,-0.331,-0.3884,-0.3987,-0.4471,0.0,0.0,-0.6003,-0.5864,-0.6391,-0.6576,0.0,-0.702,-0.7664,-0.8339,-0.8963,-0.9172,-0.9381,-0.9652,-0.9567,-0.9399,-0.9139,-0.9905,-1.0392,-1.0429,-1.13,-1.193,-1.2226,-1.1826,-1.1659,-1.1845,-1.1521,-1.1365,-1.1365,-1.1463,-1.178,-1.2322,-1.237,-1.2686,-1.3244,-1.3128,-1.3177,-1.3322,-1.2958,-1.2732,-1.2626,-1.2358,-1.2346,-1.2467,-1.22,-1.2151,-1.2175,-1.1634,-1.1512,-1.1487,-1.0732,-1.0265,-0.9846,-0.8874,-0.8326,-0.7945,-0.7229,-0.7497,-0.8123,-0.8363,-0.9203,-1.0117,-1.058,-1.1169,-1.1609,-1.1609,-1.1218,-1.0973,-1.1292,-1.0355,-0.9524,-0.9826,-0.9356,-0.8988,-0.9115,-0.8697,-0.8452,-0.8771,-0.8282,-0.783,-0.7712,-0.7693,-0.756,-0.7153,-0.7494,-0.7643,-0.7391,-0.7764,-0.7988,-0.7988,-0.7988,-0.7864,-0.7537,-0.7512,-0.759,-0.7743,-0.7768,-0.7842,-0.7988,-0.7988,-0.7917,-0.7743,-0.7646,-0.7519,-0.3288,-0.3187,-0.3126,-0.3285,-0.3465,-0.3776,-0.4454,-0.5398,-0.6377,-0.7183,0.0,-0.6437,-0.7212,-0.6848,-0.6767,-0.7806,-0.8202,-0.8609,-0.9208,-0.9392,-0.9612,-1.0016,-1.0064,-0.9943,-0.9619,-1.0409,-1.0843,-1.0629,-1.1467,-1.1991,-1.1997,-1.1787,-1.1654,-1.1638,-1.1639,-1.1609,-1.1609,-1.1878,-1.2248,-1.2764,-1.2565,-1.2832,-1.3491,-1.3467,-1.3298,-1.305,-1.2888,-1.2646,-1.237,-1.2106,-1.2009,-1.198,-1.1736,-1.178,-1.1927,-1.1438,-1.1414,-1.1565,-1.1316,-1.0728,-1.0093,-1.0019,-0.9496,-0.8751,-0.7854,-0.8202,-0.8899,-0.8825,-0.9422,-1.029,-1.0998,-1.1419,-1.1634,-1.1634,-1.1614,-1.1614,-1.1634,-1.0998,-1.0441,-1.0595,-1.0079,-0.9729,-1.0027,-0.9136,-0.8574,-0.9049,-0.8736,-0.8362,-0.8104,-0.8133,-0.803,-0.7696,-0.7917,-0.7939,-0.7621,-0.7842,-0.7988,-0.7988,-0.7988,-0.7988,-0.7988,-0.7988,-0.7988,-0.7988,-0.7988,-0.7988,-0.7988,-0.7988,-0.7988,-0.7988,-0.7743,-0.7646,-0.2973,-0.3051,-0.3094,-0.3381,-0.3948,-0.4614,-0.523,-0.5547,-0.5701,-0.5585,-0.5892,-0.6205,-0.6227,-0.6835,-0.7249,-0.7024,-0.8121,-0.8892,-0.8578,-0.9342,-0.9927,-0.9865,-0.9871,-0.9802,-0.9606,-1.0069,-1.044,-1.0582,-1.1478,-1.1999,-1.2006,-1.2114,-1.2086,-1.191,-1.1913,-1.181,-1.1609,-1.1878,-1.2151,-1.2492,-1.2807,-1.3147,-1.3491,-1.3128,-1.2934,-1.2851,-1.2809,-1.2645,-1.2379,-1.2105,-1.1992,-1.198,-1.1932,-1.1956,-1.198,-1.1878,-1.1736,-1.1585,-1.1541,-1.1267,-1.0826,-1.0216,-0.9895,-0.9472,-0.8028,-0.8598,-0.962,-0.8973,-0.9838,-1.0973,-1.1169,-1.1561,-1.1902,-1.1902,-1.1756,-1.1663,-1.1878,-1.112,-1.0475,-1.0713,-1.0208,-0.9776,-0.9852,-0.9043,-0.8222,-0.7737,-0.8821,-0.9419,-0.8642,-0.9044,-0.9117,-0.8322,-0.8482,-0.8357,-0.7671,-0.7842,-0.7988,-0.7988,-0.7988,-0.7988,-0.7988,-0.7988,-0.7988,-0.7988,-0.7988,-0.7988,-0.7988,-0.7988,-0.7988,-0.7988,-0.7939,-0.7917,-0.3066,-0.3104,-0.3146,-0.3782,-0.4444,-0.5034,-0.5413,-0.5638,-0.5666,-0.5394,-0.5895,-0.6423,-0.654,-0.7118,-0.7568,-0.7594,-0.8351,-0.8796,-0.8452,-0.9136,-0.9706,-0.9837,-0.9647,-0.9615,-0.9903,-1.0101,-1.0404,-1.0897,-1.1521,-1.1887,-1.1987,-1.2008,-1.1956,-1.1815,-1.1935,-1.1995,-1.1975,-1.2248,-1.2492,-1.2735,-1.2977,-1.3244,-1.3491,-1.3104,-1.2886,-1.2783,-1.2659,-1.2531,-1.2384,-1.2119,-1.1995,-1.2005,-1.2005,-1.2078,-1.2175,-1.2054,-1.198,-1.1956,-1.1688,-1.1512,-1.1292,-1.0752,-1.056,-1.0359,-0.9122,-0.9616,-1.0408,-0.9595,-1.0261,-1.1218,-1.1365,-1.1688,-1.2005,-1.2005,-1.198,-1.198,-1.2005,-1.1468,-1.0978,-1.0998,-1.071,-1.0479,-1.0479,-0.9856,-0.9078,-0.8284,-0.9133,-0.9694,-0.92,-0.9587,-0.9697,-0.9208,-0.9398,-0.9398,-0.8977,-0.9076,-0.915,-0.915,-0.8779,-0.8581,-0.8581,-0.8212,-0.7988,-0.7988,-0.7988,-0.7988,-0.7988,-0.7988,-0.7988,-0.7988,-0.7988,-0.7988,-0.322,-0.3242,-0.3376,-0.4272,-0.4829,-0.5198,-0.5358,-0.5623,-0.5837,-0.5852,-0.6349,-0.6901,-0.7274,-0.7552,-0.79,-0.8354,-0.8528,-0.8536,-0.8384,-0.878,-0.9268,-0.9693,-0.9336,-0.933,-1.0051,-1.0115,-1.0414,-1.1148,-1.1507,-1.1749,-1.1864,-1.1839,-1.176,-1.1619,-1.1918,-1.2128,-1.2274,-1.2582,-1.2796,-1.2917,-1.3125,-1.334,-1.3563,-1.334,-1.3098,-1.2837,-1.2589,-1.2443,-1.237,-1.2151,-1.2054,-1.2005,-1.2054,-1.22,-1.237,-1.22,-1.2248,-1.2346,-1.1883,-1.1683,-1.1561,-1.134,-1.1243,-1.1047,-1.024,-1.056,-1.1022,-1.024,-1.0585,-1.1267,-1.1541,-1.181,-1.2005,-1.2054,-1.2273,-1.237,-1.2078,-1.1829,-1.1585,-1.1316,-1.1218,-1.1169,-1.1027,-1.0732,-1.0212,-0.9266,-0.9546,-0.9821,-0.9677,-1.0019,-1.024,-1.0142,-1.0388,-1.0507,-1.0413,-1.0413,-1.0413,-1.0413,-0.9641,-0.9266,-0.939,-0.863,-0.8262,-0.8411,-0.8137,-0.7988,-0.7988,-0.7988,-0.8063,-0.8212,-0.8212,-0.8287,-0.3003,-0.3404,-0.3972,-0.4738,-0.4967,-0.5087,0.0,0.0,-0.5722,0.0,-0.7059,-0.7526,-0.7479,-0.8146,-0.8503,-0.7848,-0.823,-0.8407,-0.7877,-0.8303,-0.8798,-0.9095,-0.8751,-0.8741,-0.9371,-0.9639,-1.0049,-1.0721,-1.1302,-1.1555,-1.1407,-1.1975,-1.2117,-1.1706,-1.2129,-1.2164,-1.1793,-1.2238,-1.2339,-1.2154,-1.3281,-1.3811,-1.3859,-1.3811,-1.3528,-1.305,-1.2832,-1.2619,-1.2395,-1.237,-1.22,-1.2024,-1.2248,-1.237,-1.2419,-1.2613,-1.257,-1.2395,-1.2322,-1.198,-1.1585,-1.1561,-1.1389,-1.1047,-1.024,-1.056,-1.1022,-1.024,-1.0585,-1.1267,-1.1541,-1.181,-1.2054,-1.2297,-1.254,-1.2619,-1.2102,-1.198,-1.1878,-1.1609,-1.1365,-1.0978,-1.029,-1.0679,-1.0576,-0.9069,-1.006,-1.0732,-1.0043,-1.0777,-1.1218,-1.0728,-1.0924,-1.09,-1.0437,-1.0413,-1.0413,-1.0413,-0.9641,-0.9513,-1.0212,-0.9464,-0.9369,-1.0064,-0.8705,-0.7988,-0.7988,-0.7988,-0.8357,-0.9044,-0.9044,-0.9418,-0.3171,-0.3556,-0.4016,-0.4768,-0.506,-0.5205,-0.5359,-0.5517,-0.5767,-0.6331,-0.702,-0.7659,-0.8045,-0.8449,-0.8527,-0.7912,-0.8072,-0.8005,-0.7238,-0.7584,-0.7962,-0.8096,-0.7712,-0.789,-0.9029,-0.9247,-0.9751,-1.0777,-1.1353,-1.1681,-1.1685,-1.2004,-1.207,-1.1876,-1.2095,-1.2133,-1.1934,-1.2244,-1.2414,-1.2467,-1.3126,-1.3622,-1.3892,-1.3579,-1.3413,-1.3298,-1.2953,-1.274,-1.2613,-1.2613,-1.254,-1.2467,-1.257,-1.2539,-1.2398,-1.2517,-1.2432,-1.2219,-1.2055,-1.1925,-1.1769,-1.1481,-1.139,-1.1316,-1.0826,-1.0924,-1.1169,-1.0949,-1.1145,-1.1512,-1.1932,-1.2151,-1.2297,-1.2565,-1.271,-1.274,-1.2497,-1.2322,-1.2151,-1.1883,-1.1614,-1.1316,-1.0949,-1.1071,-1.0949,-1.0256,-1.0748,-1.1071,-1.0728,-1.134,-1.1736,-1.1492,-1.1858,-1.2005,-1.1756,-1.1731,-1.1731,-1.1731,-1.0993,-1.0699,-1.1071,-1.031,-1.0039,-1.0388,-0.9694,-0.9348,-0.9348,-0.9348,-0.9521,-0.9862,-0.9862,-1.0064,-0.3288,-0.3591,-0.3936,-0.4648,-0.498,-0.5187,0.0,0.0,-0.582,0.0,-0.7061,-0.7737,-0.8621,-0.8718,-0.8537,-0.8098,-0.7963,-0.7635,-0.6858,-0.7002,-0.7193,-0.727,-0.701,-0.7334,-0.8639,-0.9085,-0.9749,-1.0898,-1.1472,-1.1842,-1.1998,-1.2121,-1.2132,-1.2009,-1.2118,-1.2126,-1.2006,-1.2159,-1.2357,-1.2633,-1.2965,-1.3339,-1.3701,-1.3371,-1.3322,-1.3467,-1.3007,-1.2813,-1.2813,-1.2813,-1.2813,-1.2813,-1.2813,-1.2681,-1.2495,-1.2507,-1.2366,-1.2152,-1.195,-1.1912,-1.1882,-1.1513,-1.15,-1.1565,-1.1351,-1.134,-1.1438,-1.1561,-1.1663,-1.181,-1.2273,-1.2395,-1.2467,-1.274,-1.2813,-1.2813,-1.2813,-1.2589,-1.2346,-1.2151,-1.1883,-1.1707,-1.1707,-1.1541,-1.1389,-1.1316,-1.1292,-1.1267,-1.1218,-1.1614,-1.1932,-1.198,-1.2419,-1.274,-1.2789,-1.2813,-1.2813,-1.2813,-1.2054,-1.1688,-1.1907,-1.112,-1.0703,-1.0703,-1.09,-1.0806,-1.0413,-1.0413,-1.0507,-1.0703,-1.0703,-1.0806,-0.313,-0.3455,-0.3856,-0.4458,-0.4682,-0.4851,0.0,0.0,-0.5885,-0.7162,-0.7577,-0.8015,-0.9063,-0.9059,-0.8713,-0.8172,-0.7825,-0.7448,-0.6951,-0.6689,-0.6649,-0.689,-0.7068,-0.743,-0.809,-0.9299,-1.0316,-1.0946,-1.1603,-1.1984,-1.1996,-1.2483,-1.2523,-1.2013,-1.2254,-1.217,-1.1722,-1.1728,-1.1872,-1.2139,-1.2867,-1.3209,-1.3233,-1.3395,-1.3491,-1.3467,-1.3007,-1.2813,-1.2813,-1.2813,-1.2813,-1.2813,-1.2813,-1.2778,-1.2794,-1.2786,-1.2598,-1.2384,-1.2383,-1.2077,-1.1733,-1.1911,-1.1804,-1.1612,-1.1575,-1.1756,-1.1902,-1.1658,-1.178,-1.2054,-1.2322,-1.2395,-1.2467,-1.274,-1.2813,-1.2813,-1.2813,-1.2589,-1.2395,-1.237,-1.2151,-1.198,-1.198,-1.198,-1.1878,-1.1614,-1.159,-1.1487,-1.1218,-1.1438,-1.1707,-1.198,-1.2248,-1.2516,-1.2789,-1.2813,-1.2813,-1.2813,-1.2054,-1.1927,-1.271,-1.198,-1.1541,-1.1541,-1.2297,-1.1932,-1.0413,-1.0413,-1.0777,-1.1541,-1.1541,-1.1956,-0.3191,-0.3416,-0.3634,-0.415,-0.4532,-0.4838,-0.5095,-0.5464,-0.6131,-0.7426,-0.77,-0.8151,-0.9657,-0.9652,-0.9078,-0.8069,-0.7906,-0.7585,-0.6654,-0.6438,-0.6549,-0.703,-0.7274,-0.7797,-0.8838,-0.9925,-1.0742,-1.1155,-1.1973,-1.248,-1.2502,-1.2822,-1.2926,-1.2768,-1.2524,-1.2231,-1.1904,-1.1899,-1.1942,-1.2047,-1.2609,-1.2911,-1.2946,-1.302,-1.3224,-1.3467,-1.3007,-1.2813,-1.2813,-1.2813,-1.2813,-1.2813,-1.2813,-1.2793,-1.2773,-1.2619,-1.2408,-1.2174,-1.2021,-1.1832,-1.1675,-1.1584,-1.1594,-1.1662,-1.1607,-1.1672,-1.1798,-1.2037,-1.2322,-1.2546,-1.2638,-1.288,-1.3128,-1.3225,-1.3123,-1.2983,-1.2983,-1.2813,-1.2667,-1.2667,-1.2443,-1.2248,-1.2248,-1.2102,-1.198,-1.1878,-1.1858,-1.1756,-1.1487,-1.1834,-1.2078,-1.2005,-1.2395,-1.2691,-1.2789,-1.2813,-1.2813,-1.2813,-1.2516,-1.2497,-1.2789,-1.2516,-1.237,-1.237,-1.2643,-1.2273,-1.1169,-1.1688,-1.2102,-1.237,-1.237,-1.2516,-0.3077,0.0,0.0,0.0,-0.4278,-0.4686,-0.5044,-0.5498,-0.6156,-0.7266,-0.7739,-0.8334,-0.9657,-1.0033,-0.9692,-0.8332,-0.8213,-0.7857,-0.6619,-0.6625,-0.6921,-0.7312,-0.7884,-0.858,-0.9423,-1.046,-1.1197,-1.1411,-1.2209,-1.2756,-1.2901,-1.3099,-1.3254,-1.3325,-1.2814,-1.2417,-1.2143,-1.2037,-1.1998,-1.2003,-1.2507,-1.2757,-1.2814,-1.2952,-1.317,-1.3346,-1.3031,-1.2861,-1.2813,-1.2813,-1.2813,-1.2813,-1.2813,-1.2836,-1.2862,-1.2608,-1.2387,-1.2165,-1.1899,-1.1696,-1.1552,-1.1472,-1.1554,-1.1699,-1.1657,-1.1733,-1.1949,-1.2291,-1.2627,-1.2934,-1.3007,-1.3273,-1.3491,-1.3491,-1.337,-1.3225,-1.3225,-1.3007,-1.2813,-1.2813,-1.2667,-1.2516,-1.2516,-1.2395,-1.2248,-1.2151,-1.2127,-1.2054,-1.1761,-1.2054,-1.2224,-1.2151,-1.2443,-1.2686,-1.2789,-1.2813,-1.2813,-1.2813,-1.2813,-1.2813,-1.2813,-1.2813,-1.2662,-1.2395,-1.2662,-1.2395,-1.1609,-1.2419,-1.2813,-1.2813,-1.2813,-1.2813,0.0,0.0,0.0,0.0,0.0,0.0,-0.5193,0.0,-0.5929,-0.6743,-0.7696,-0.8541,-0.9015,-1.0121,-1.0471,-0.8978,-0.8721,-0.823,-0.6874,-0.7263,-0.7699,-0.7724,-0.8889,-0.9705,-0.974,-1.0919,-1.1711,-1.1723,-1.2316,-1.2792,-1.3099,-1.337,-1.3532,-1.3584,-1.3089,-1.2686,-1.2403,-1.2136,-1.2016,-1.2027,-1.2557,-1.2791,-1.2808,-1.3264,-1.3329,-1.3087,-1.3087,-1.2972,-1.2813,-1.2813,-1.2813,-1.2813,-1.2813,-1.2934,-1.3095,-1.2881,-1.266,-1.241,-1.2115,-1.1723,-1.1375,-1.1618,-1.1688,-1.1686,-1.1689,-1.2037,-1.2393,-1.2409,-1.2743,-1.319,-1.3437,-1.3515,-1.3515,-1.3515,-1.3515,-1.3515,-1.3515,-1.3152,-1.2813,-1.2813,-1.2813,-1.2813,-1.2813,-1.2813,-1.271,-1.2443,-1.2419,-1.2322,-1.2054,-1.2029,-1.2127,-1.237,-1.2419,-1.2516,-1.2789,-1.2813,-1.2813,-1.2813,-1.2813,-1.2813,-1.2813,-1.2813,-1.2419,-1.1663,-1.2395,-1.2419,-1.1634,-1.2419,-1.2813,-1.2813,-1.2813,-1.2813,-0.3052,0.0,0.0,0.0,0.0,0.0,0.0,0.0,-0.5959,-0.6851,-0.7498,-0.8228,-0.933,-0.9817,-0.9903,-0.9426,-0.9139,-0.8394,-0.6651,-0.7065,-0.7718,-0.8145,-0.8966,-0.9847,-1.0765,-1.1198,-1.1638,0.0,-1.2147,-1.2491,-1.334,-1.3833,-1.3848,-1.3336,-1.3166,-1.2862,-1.2394,-1.2318,-1.2283,-1.2289,-1.26,-1.2645,-1.2523,-1.2659,-1.2766,-1.2868,-1.2678,-1.268,-1.2813,-1.2813,-1.2813,-1.2813,-1.2958,-1.3177,-1.3385,-1.3325,-1.3298,-1.32,-1.2742,-1.2258,-1.1855,-1.1745,-1.1581,-1.1467,-1.1809,-1.2018,-1.2212,-1.2769,-1.3132,-1.3513,-1.3962,-1.3919,-1.3829,-1.404,-1.3925,-1.3786,-1.3786,-1.3539,-1.3249,-1.305,-1.3026,-1.2977,-1.2837,-1.2813,-1.2764,-1.2686,-1.2691,-1.2589,-1.2322,-1.2467,-1.2516,-1.2419,-1.257,-1.2716,-1.2789,-1.2813,-1.2813,-1.2813,-1.2813,-1.2813,-1.2813,-1.2813,-1.2691,-1.2467,-1.2691,-1.2691,-1.2467,-1.2691,-1.2813,-1.2813,-1.2813,-1.2813,0.0,0.0,0.0,0.0,0.0,0.0,-0.4647,-0.511,-0.5709,-0.6581,-0.7381,-0.8164,-0.8997,-0.9672,-0.9961,-0.9572,-0.9421,-0.8895,-0.7568,-0.8037,-0.8638,-0.8977,-0.9622,-1.0315,-1.1057,-1.1303,-1.1607,-1.2022,-1.2075,-1.2436,-1.3286,-1.3851,-1.3872,-1.335,-1.3338,-1.3113,-1.2713,-1.2685,-1.2647,-1.254,-1.2661,-1.268,-1.2581,-1.2575,-1.2584,-1.2642,-1.2695,-1.2751,-1.2816,-1.3011,-1.3031,-1.2953,-1.3171,-1.3418,-1.3643,-1.3535,-1.3531,-1.352,-1.3,-1.25,-1.2065,-1.1798,-1.1591,-1.1532,-1.18,-1.2015,-1.2288,-1.2825,-1.3315,-1.3749,-1.4178,-1.4184,-1.4118,-1.425,-1.4184,-1.407,-1.407,-1.3943,-1.3727,-1.334,-1.3171,-1.3098,-1.3104,-1.3007,-1.2958,-1.308,-1.3007,-1.288,-1.271,-1.2764,-1.2735,-1.2589,-1.271,-1.2813,-1.2813,-1.2813,-1.2813,-1.2813,-1.2813,-1.2813,-1.2813,-1.2813,-1.2813,-1.2813,-1.2813,-1.2813,-1.2813,-1.2813,-1.2813,-1.2813,-1.2691,-1.2691,0.0,0.0,0.0,0.0,0.0,0.0,-0.4782,-0.5019,-0.5271,-0.5981,-0.7112,-0.8033,-0.8205,-0.937,-1.0075,-0.9407,-0.9509,-0.9483,-0.8892,-0.9405,-0.9837,-0.984,-1.0412,-1.0854,-1.093,-1.1287,-1.1552,-1.1681,-1.2117,-1.2581,-1.3033,-1.3551,-1.372,-1.3455,-1.3449,-1.3322,-1.3057,-1.3057,-1.293,-1.2705,-1.2748,-1.2756,-1.2761,-1.2693,-1.2592,-1.2471,-1.2921,-1.301,-1.29,-1.3352,-1.3394,-1.3171,-1.3443,-1.369,-1.3859,-1.366,-1.3635,-1.3608,-1.3095,-1.2615,-1.2171,-1.1902,-1.1786,-1.1742,-1.1764,-1.2061,-1.2463,-1.274,-1.3347,-1.3971,-1.4237,-1.428,-1.431,-1.434,-1.4322,-1.4298,-1.4298,-1.4298,-1.4154,-1.3678,-1.337,-1.3244,-1.3418,-1.3268,-1.3225,-1.3467,-1.3298,-1.3123,-1.3098,-1.2929,-1.2813,-1.2813,-1.2813,-1.2813,-1.2813,-1.2813,-1.2813,-1.2813,-1.2813,-1.2813,-1.2813,-1.2813,-1.2813,-1.2813,-1.2813,-1.2813,-1.2813,-1.2813,-1.2813,-1.2789,-1.2565,-1.257,0.0,0.0,0.0,0.0,0.0,0.0,-0.4066,-0.4512,-0.4959,-0.5008,-0.5892,-0.6784,-0.7137,-0.7877,-0.8475,-0.8647,-0.9216,-0.9304,-0.8376,-0.8927,-0.9448,-0.9483,-0.9988,-1.0576,-1.1158,-1.1062,-1.1288,-1.2104,-1.265,-1.2894,-1.2768,-1.3296,-1.3449,-1.3189,-1.3177,-1.3045,-1.2789,-1.2783,-1.2759,-1.2705,-1.2552,-1.2476,-1.2473,-1.2098,-1.2209,-1.2717,-1.2602,-1.2849,-1.3399,-1.3691,-1.3666,-1.3443,-1.3714,-1.3859,-1.3931,-1.4088,-1.4148,-1.4112,-1.3801,-1.3383,-1.2942,-1.2669,-1.2296,-1.1973,-1.2198,-1.234,-1.2486,-1.2929,-1.3462,-1.3956,-1.4221,-1.4266,-1.4297,-1.4567,-1.4466,-1.4298,-1.4298,-1.4298,-1.4274,-1.4154,-1.3925,-1.3612,-1.3244,-1.3322,-1.3443,-1.3491,-1.3467,-1.3346,-1.3123,-1.3074,-1.2977,-1.2813,-1.2813,-1.2813,-1.2813,-1.2813,-1.2813,-1.2813,-1.2813,-1.2813,-1.2813,-1.2813,-1.2813,-1.2813,-1.2813,-1.2813,-1.2813,-1.2813,-1.2813,-1.2813,-1.2764,-1.2764,0.0,0.0,0.0,-0.3882,0.0,0.0,0.0,-0.4366,-0.4644,-0.498,-0.577,-0.6496,-0.6841,-0.7549,-0.816,-0.836,-0.8955,-0.9132,-0.8395,-0.9172,-0.9805,-0.9841,-1.0067,-1.0369,-1.0859,-1.096,-1.1366,-1.2223,-1.2665,-1.2828,-1.2711,-1.3075,-1.3171,-1.29,-1.3027,-1.2967,-1.2705,-1.2822,-1.2829,-1.2693,-1.2357,-1.2198,-1.2198,-1.1844,-1.1964,-1.2457,-1.2693,-1.3088,-1.3589,-1.3921,-1.3969,-1.3886,-1.419,-1.4214,-1.4142,-1.44,-1.4418,-1.4256,-1.3996,-1.3682,-1.3372,-1.3089,-1.2829,-1.2612,-1.261,-1.2576,-1.263,-1.2999,-1.3395,-1.3756,-1.4035,-1.4255,-1.4432,-1.46,-1.4684,-1.4664,-1.4544,-1.4496,-1.4424,-1.416,-1.4094,-1.4016,-1.3745,-1.3708,-1.3732,-1.3871,-1.3781,-1.3636,-1.3515,-1.337,-1.3201,-1.2977,-1.2953,-1.2953,-1.2953,-1.2861,-1.291,-1.3128,-1.2921,-1.2837,-1.295,-1.2945,-1.2953,-1.2953,-1.2861,-1.2813,-1.2813,-1.2813,-1.2813,-1.2813,-1.2813,-1.2813,0.0,0.0,0.0,0.0,0.0,-0.4171,0.0,0.0,0.0,-0.5209,0.0,0.0,0.0,0.0,0.0,-0.7934,0.0,0.0,0.0,-0.9254,0.0,-1.007,-1.0187,-1.0349,-1.0537,-1.0983,-1.1554,-1.225,-1.2442,-1.2596,-1.2699,-1.29,-1.2918,-1.2711,-1.2954,-1.2967,-1.2705,-1.3015,-1.3037,-1.2762,-1.2342,-1.2157,-1.2143,-1.192,-1.2014,-1.2355,-1.3003,-1.3438,-1.3767,-1.4148,-1.4312,-1.4331,-1.4569,-1.456,-1.4399,-1.4669,-1.464,-1.4411,-1.4151,-1.4018,-1.391,-1.3635,-1.351,-1.342,-1.3149,-1.2994,-1.2963,-1.3139,-1.3395,-1.3699,-1.3965,-1.428,-1.4523,-1.4655,-1.4835,-1.4942,-1.4753,-1.4688,-1.4574,-1.4076,-1.416,-1.4274,-1.4226,-1.4094,-1.4046,-1.4274,-1.4159,-1.4032,-1.3983,-1.3783,-1.3541,-1.3292,-1.3199,-1.3171,-1.3171,-1.3031,-1.313,-1.354,-1.3226,-1.3081,-1.3248,-1.3201,-1.3171,-1.3171,-1.2983,-1.2861,-1.2861,-1.2813,-1.2813,-1.2813,-1.2813,-1.2813,0.0,0.0,0.0,0.0,-0.4923,0.0,0.0,0.0,-0.5163,-0.5145,0.0,0.0,0.0,0.0,0.0,0.0,0.0,0.0,-0.75,-0.8273,-0.897,-0.9213,-0.9962,-1.0537,-1.0756,-1.1193,-1.1692,-1.2256,-1.2105,-1.2195,-1.2681,-1.2735,-1.2735,-1.2705,-1.2954,-1.2967,-1.2705,-1.3189,-1.3312,-1.3061,-1.2811,-1.2711,-1.2694,-1.2438,-1.2602,-1.3094,-1.3409,-1.3803,-1.4232,-1.4519,-1.4644,-1.465,-1.4626,-1.4591,-1.4616,-1.494,-1.5035,-1.4981,-1.4704,-1.4871,-1.5157,-1.4877,-1.4633,-1.4382,-1.4123,-1.3913,-1.3723,-1.3523,-1.3767,-1.4189,-1.4452,-1.4339,-1.4294,-1.4822,-1.4792,-1.4661,-1.4686,-1.4688,-1.4616,-1.4298,-1.4274,-1.4226,-1.4003,-1.4112,-1.425,-1.4298,-1.4485,-1.4524,-1.4296,-1.4222,-1.4118,-1.3846,-1.3597,-1.3443,-1.3443,-1.3418,-1.3545,-1.3844,-1.3808,-1.3783,-1.3811,-1.3573,-1.3443,-1.3443,-1.3201,-1.3074,-1.3074,-1.2886,-1.2813,-1.2813,-1.2813,-1.2813,0.0,0.0,0.0,0.0,0.0,0.0,-0.5168,0.0,-0.5217,0.0,0.0,0.0,0.0,0.0,0.0,0.0,-0.7283,0.0,0.0,0.0,-0.8446,-0.8728,0.0,0.0,-1.0698,-1.1549,-1.2234,-1.2724,-1.2692,-1.2746,-1.2927,-1.2769,-1.2705,-1.2705,-1.2819,-1.2804,-1.2705,-1.3194,-1.3476,-1.3562,-1.3596,-1.3542,-1.3437,-1.3321,-1.349,-1.383,-1.3791,-1.4225,-1.4926,-1.4733,-1.4735,-1.491,-1.5196,-1.5139,-1.4918,-1.5222,-1.522,-1.5131,-1.5285,-1.5461,-1.5655,-1.5872,-1.5761,-1.5413,-1.484,-1.4617,-1.443,-1.3868,-1.4059,-1.4463,-1.4558,-1.4743,-1.488,-1.4979,-1.5052,-1.5042,-1.4758,-1.4814,-1.4861,-1.4592,-1.4794,-1.4898,-1.4629,-1.4424,-1.4352,-1.4515,-1.4617,-1.4725,-1.4769,-1.4631,-1.4443,-1.4158,-1.3889,-1.3796,-1.3941,-1.3674,-1.3823,-1.454,-1.4303,-1.4134,-1.4139,-1.3725,-1.3491,-1.3491,-1.3249,-1.305,-1.2934,-1.2837,-1.2861,-1.2977,-1.2861,-1.2813,-0.6376,0.0,0.0,0.0,0.0,0.0,0.0,0.0,0.0,0.0,0.0,0.0,0.0,0.0,0.0,0.0,0.0,-0.7481,0.0,-0.7522,0.0,0.0,0.0,0.0,0.0,-1.1438,-1.2298,-1.3157,-1.299,-1.2993,-1.3339,-1.2939,-1.2705,-1.2705,-1.2777,-1.2847,-1.2896,-1.3372,-1.3802,-1.4173,-1.433,-1.4372,-1.4279,-1.4306,-1.4457,-1.4691,-1.4587,-1.4897,-1.5497,-1.5176,-1.5069,-1.5179,-1.571,-1.5705,-1.5441,-1.5618,-1.5577,-1.5458,-1.5879,-1.6204,-1.6511,-1.7028,-1.6933,-1.6487,-1.5835,-1.549,-1.5209,-1.4598,-1.4601,-1.4799,-1.4731,-1.4943,-1.515,-1.503,-1.5201,-1.528,-1.498,-1.5071,-1.5143,-1.495,-1.5228,-1.5483,-1.5355,-1.4952,-1.4673,-1.4783,-1.4813,-1.491,-1.5173,-1.4986,-1.4748,-1.4543,-1.4288,-1.4181,-1.4294,-1.3934,-1.4073,-1.4932,-1.4677,-1.4501,-1.4399,-1.3963,-1.3684,-1.3612,-1.3346,-1.3104,-1.288,-1.288,-1.2958,-1.3098,-1.2886,-1.2837,0.0,0.0,0.0,-0.6686,0.0,0.0,0.0,0.0,-0.62,0.0,0.0,0.0,0.0,0.0,0.0,0.0,0.0,0.0,0.0,0.0,0.0,0.0,0.0,0.0,0.0,-1.0588,-1.1506,-1.3355,-1.2537,-1.2544,-1.3898,-1.3167,-1.2705,-1.2705,-1.2948,-1.3178,-1.3377,-1.3904,-1.4408,-1.4867,-1.495,-1.5064,-1.5252,-1.5319,-1.545,-1.5661,-1.599,-1.6008,-1.5801,-1.6042,-1.59,-1.5527,-1.5991,-1.6194,-1.6177,-1.6177,-1.6177,-1.6194,-1.6471,-1.7216,-1.811,-1.8573,-1.8226,-1.7594,-1.7303,-1.6725,-1.6101,-1.5814,-1.5555,-1.5308,-1.5048,-1.4806,-1.4702,-1.4954,-1.5016,-1.5099,-1.5402,-1.5484,-1.5484,-1.5484,-1.549,-1.5604,-1.5921,-1.5686,-1.5385,-1.5115,-1.5091,-1.5189,-1.544,-1.5258,-1.5069,-1.5069,-1.4834,-1.4569,-1.4328,-1.4274,-1.4401,-1.4696,-1.4949,-1.4961,-1.4702,-1.4425,-1.416,-1.3883,-1.3612,-1.337,-1.3098,-1.3098,-1.3098,-1.3098,-1.2886,-1.291,0.0,0.0,-0.9018,-0.8002,0.0,0.0,0.0,0.0,0.0,0.0,0.0,0.0,0.0,0.0,0.0,0.0,0.0,0.0,0.0,0.0,0.0,0.0,0.0,0.0,0.0,-1.0422,-1.1697,-1.2818,-1.3182,-1.352,-1.3844,-1.3557,-1.3152,-1.2705,-1.2795,-1.3016,-1.3398,-1.4059,-1.4825,-1.5702,-1.6199,-1.6501,-1.6607,-1.6643,-1.6699,-1.6747,-1.6556,-1.6511,-1.6572,-1.6315,-1.6109,-1.6004,-1.6329,-1.6572,-1.672,-1.6525,-1.6659,-1.6958,-1.7232,-1.7676,-1.8133,-1.8295,-1.838,-1.8311,-1.7742,-1.7602,-1.7429,-1.6371,-1.6257,-1.6327,-1.5695,-1.5371,-1.5163,-1.508,-1.5083,-1.506,-1.4974,-1.5258,-1.5551,-1.5739,-1.6057,-1.6319,-1.6443,-1.6542,-1.6333,-1.5482,-1.5357,-1.5325,-1.5241,-1.501,-1.4853,-1.4853,-1.4606,-1.4473,-1.457,-1.4896,-1.4986,-1.4708,-1.4937,-1.4992,-1.4702,-1.4261,-1.3901,-1.3636,-1.337,-1.3128,-1.291,-1.321,-1.3459,-1.3637,-1.3563,-1.3563,-0.9882,-0.9942,0.0,-0.8983,-0.8796,0.0,-0.7919,0.0,-0.733,0.0,0.0,0.0,0.0,0.0,0.0,0.0,0.0,0.0,0.0,-0.7459,0.0,0.0,0.0,0.0,0.0,-1.0312,-1.161,-1.3121,-1.344,-1.3806,-1.4377,-1.3904,-1.3563,-1.3421,-1.3273,-1.3485,-1.4104,-1.4707,-1.5488,-1.6455,-1.7064,-1.7401,-1.7504,-1.7435,-1.7504,-1.7619,-1.7234,-1.723,-1.7457,-1.6833,-1.6598,-1.6588,-1.6588,-1.676,-1.6979,-1.6807,-1.7145,-1.7692,-1.7692,-1.8118,-1.8627,-1.8519,-1.8643,-1.8712,-1.8234,-1.8187,-1.8087,-1.7131,-1.688,-1.6716,-1.6109,-1.573,-1.5454,-1.5276,-1.5229,-1.5255,-1.5283,-1.5361,-1.561,-1.6094,-1.6388,-1.6645,-1.6827,-1.7133,-1.6962,-1.5802,-1.5563,-1.5394,-1.512,-1.4877,-1.469,-1.469,-1.4558,-1.4479,-1.4564,-1.5052,-1.5137,-1.46,-1.4908,-1.4944,-1.4582,-1.4231,-1.3959,-1.3747,-1.343,-1.3236,-1.3191,-1.3391,-1.3626,-1.3902,-1.3994,-1.4096]},{"header":{"parameterUnit":"m.s-1","parameterCategory":1,"la1":30.6,"la2":29.2853,"lo1":-89.7004,"lo2":-87.6739,"dy":0.0162,"dx":0.0183,"nx":112,"ny":82,"refTime":"2023-04-05T12:00:00:Z","depth":0,"parameterNumber":3,"parameterNumberName":"V-component_of_WINDS"},"data":[0.0,0.0,0.0,0.0,0.0,0.0,0.0,0.0,0.0,0.0,0.0,0.0,0.0,0.0,0.0,0.0,0.0,0.0,0.0,0.0,0.0,0.0,0.0,0.0,0.0,0.0,0.0,0.0,0.0,0.0,0.0,0.0,0.0,0.0,0.0,0.0,0.0,0.0,0.0,0.0,0.0,0.0,0.0,0.0,0.0,0.0,0.0,0.0,0.0,0.0,0.0,0.0,0.0,0.0,0.0,0.0,0.0,0.0,0.0,0.0,0.0,0.0,0.0,0.0,0.0,0.0,0.0,0.0,0.0,0.0,0.0,0.0,0.0,0.0,0.0,0.0,0.0,0.0,0.0,0.0,0.0,0.0,0.0,0.0,0.0,0.0,0.0,0.0,0.0,0.0,1.7619,1.7555,2.0476,2.2299,2.1913,2.3665,2.3262,1.9719,0.0,0.0,0.0,0.0,0.0,0.0,0.0,0.0,0.0,0.0,0.0,0.0,0.0,0.0,0.0,0.0,0.0,0.0,0.0,0.0,0.0,0.0,0.0,0.0,0.0,0.0,0.0,0.0,0.0,0.0,0.0,0.0,0.0,0.0,0.0,0.0,0.0,0.0,0.0,0.0,0.0,0.0,0.0,0.0,0.0,0.0,0.0,0.0,0.0,0.0,0.0,0.0,0.0,0.0,0.0,0.0,0.0,0.0,0.0,0.0,0.0,0.0,0.0,0.0,0.0,0.0,0.0,0.0,0.0,0.0,0.0,0.0,0.0,0.0,0.0,0.0,0.0,0.0,0.0,0.0,0.0,0.0,0.0,0.0,0.0,0.0,0.0,0.0,0.0,0.0,0.0,0.0,0.0,0.0,0.0,0.0,0.0,0.0,0.0,0.0,0.0,0.0,0.0,0.0,1.8867,2.1495,2.1761,2.2268,2.3502,2.3431,2.2482,2.0527,0.0,0.0,0.0,0.0,0.0,0.0,0.0,0.0,0.0,0.0,0.0,0.0,0.0,0.0,0.0,0.0,0.0,0.0,0.0,0.0,0.0,0.0,0.0,0.0,0.0,0.0,0.0,0.0,0.0,0.0,0.0,0.0,0.0,0.0,0.0,0.0,0.0,0.0,0.0,0.0,0.0,0.0,0.0,0.0,0.0,0.0,0.0,0.0,0.0,0.0,0.0,0.0,0.0,0.0,0.0,0.0,0.0,0.0,0.0,0.0,0.0,0.0,0.0,0.0,0.0,0.0,0.0,0.0,0.0,0.0,0.0,0.0,0.0,0.0,0.0,0.0,0.0,0.0,0.0,0.0,0.0,0.0,0.0,0.0,0.0,0.0,0.0,0.0,0.0,0.0,0.0,0.0,0.0,0.0,0.0,0.0,0.0,0.0,0.0,0.0,0.0,0.0,0.0,1.768,1.8737,2.246,2.2566,2.2671,2.3456,2.3658,2.2894,2.0837,2.1025,0.0,0.0,0.0,0.0,0.0,0.0,0.0,0.0,0.0,0.0,0.0,0.0,0.0,0.0,0.0,0.0,0.0,0.0,0.0,0.0,0.0,0.0,0.0,0.0,0.0,0.0,0.0,0.0,0.0,0.0,0.0,0.0,0.0,0.0,0.0,0.0,0.0,0.0,0.0,0.0,0.0,0.0,0.0,0.0,0.0,0.0,0.0,0.0,0.0,0.0,0.0,0.0,0.0,0.0,0.0,0.0,0.0,0.0,0.0,0.0,0.0,0.0,0.0,0.0,0.0,0.0,0.0,0.0,0.0,0.0,0.0,0.0,0.0,0.0,0.0,0.0,0.0,0.0,0.0,0.0,0.0,0.0,0.0,0.0,0.0,0.0,0.0,0.0,0.0,0.0,0.0,0.0,0.0,0.0,0.0,0.0,0.0,0.0,0.0,0.0,0.0,0.0,1.8885,1.9168,2.2931,2.2994,2.2949,2.3385,2.3688,2.2988,2.0956,2.0478,0.0,0.0,0.0,0.0,0.0,0.0,0.0,0.0,0.0,0.0,0.0,0.0,0.0,0.0,0.0,0.0,0.0,0.0,0.0,0.0,0.0,0.0,0.0,0.0,0.0,0.0,0.0,0.0,0.0,0.0,0.0,0.0,0.0,0.0,0.0,0.0,0.0,0.0,0.0,0.0,0.0,0.0,0.0,0.0,0.0,0.0,0.0,0.0,0.0,0.0,0.0,0.0,0.0,0.0,0.0,0.0,0.0,0.0,0.0,0.0,0.0,0.0,0.0,0.0,0.0,0.0,0.0,0.0,0.0,0.0,0.0,0.0,0.0,0.0,0.0,0.0,0.0,0.0,0.0,0.0,0.0,0.0,0.0,0.0,0.0,0.0,0.0,0.0,0.0,0.0,0.0,0.0,0.0,0.0,0.0,0.0,0.0,0.0,0.0,0.0,0.0,0.0,2.0493,2.1411,2.4015,2.2959,2.2696,2.4263,2.3099,2.1868,2.0949,1.9484,0.0,0.0,0.0,0.0,0.0,0.0,0.0,0.0,0.0,0.0,0.0,0.0,0.0,0.0,0.0,0.0,0.0,0.0,0.0,0.0,0.0,0.0,0.0,0.0,0.0,0.0,0.0,0.0,0.0,0.0,0.0,0.0,0.0,0.0,0.0,0.0,0.0,0.0,0.0,0.0,0.0,0.0,0.0,0.0,0.0,0.0,0.0,0.0,0.0,0.0,0.0,0.0,0.0,0.0,0.0,0.0,0.0,0.0,0.0,0.0,0.0,0.0,0.0,0.0,0.0,0.0,0.0,0.0,0.0,0.0,0.0,0.0,0.0,0.0,0.0,0.0,0.0,0.0,0.0,0.0,0.0,0.0,0.0,0.0,0.0,0.0,0.0,0.0,0.0,0.0,0.0,0.0,0.0,0.0,0.0,0.0,0.0,0.0,0.0,0.0,0.0,0.0,2.1063,2.1732,0.0,2.353,2.3125,2.3758,2.3767,2.2712,2.0354,0.0,0.0,0.0,0.0,0.0,0.0,0.0,0.0,0.0,0.0,0.0,0.0,0.0,0.0,0.0,0.0,0.0,0.0,0.0,0.0,0.0,0.0,0.0,0.0,0.0,0.0,0.0,0.0,0.0,0.0,0.0,0.0,0.0,0.0,0.0,0.0,0.0,0.0,0.0,0.0,0.0,0.0,0.0,0.0,0.0,0.0,0.0,0.0,0.0,0.0,0.0,0.0,0.0,0.0,0.0,0.0,0.0,0.0,0.0,0.0,0.0,0.0,0.0,0.0,0.0,0.0,0.0,0.0,0.0,0.0,0.0,0.0,0.0,0.0,0.0,0.0,0.0,0.0,0.0,0.0,0.0,0.0,0.0,0.0,0.0,0.0,0.0,0.0,0.0,0.0,0.0,0.0,0.0,0.0,0.0,0.0,0.0,0.0,0.0,0.0,0.0,0.0,2.1774,2.1778,2.2398,0.0,2.389,2.3505,2.3787,2.4121,2.3135,2.0393,0.0,0.0,0.0,0.0,0.0,0.0,0.0,0.0,0.0,0.0,0.0,0.0,0.0,0.0,0.0,0.0,0.0,0.0,0.0,0.0,0.0,0.0,0.0,0.0,0.0,0.0,0.0,0.0,0.0,0.0,0.0,0.0,0.0,0.0,0.0,0.0,0.0,0.0,0.0,0.0,0.0,0.0,0.0,0.0,0.0,0.0,0.0,0.0,0.0,0.0,0.0,0.0,0.0,0.0,0.0,0.0,0.0,0.0,0.0,0.0,0.0,0.0,0.0,0.0,0.0,0.0,0.0,0.0,0.0,0.0,0.0,0.0,0.0,0.0,0.0,0.0,0.0,0.0,0.0,0.0,0.0,0.0,0.0,0.0,0.0,0.0,0.0,0.0,0.0,0.0,0.0,0.0,0.0,0.0,0.0,0.0,0.0,0.0,0.0,0.0,0.0,0.0,2.2009,2.2827,2.373,2.4607,2.3922,2.375,2.4606,2.396,2.281,0.0,0.0,0.0,0.0,0.0,0.0,0.0,0.0,0.0,0.0,0.0,0.0,0.0,0.0,0.0,0.0,0.0,0.0,0.0,0.0,0.0,0.0,0.0,0.0,0.0,0.0,0.0,0.0,0.0,0.0,0.0,0.0,0.0,0.0,0.0,0.0,0.0,0.0,0.0,0.0,0.0,0.0,0.0,0.0,0.0,0.0,0.0,0.0,0.0,0.0,0.0,0.0,0.0,0.0,0.0,0.0,0.0,0.0,0.0,0.0,0.0,0.0,0.0,0.0,0.0,0.0,0.0,0.0,0.0,0.0,0.0,0.0,0.0,0.0,0.0,0.0,0.0,0.0,0.0,0.0,0.0,0.0,0.0,0.0,0.0,0.0,0.0,0.0,0.0,0.0,0.0,0.0,0.0,0.0,0.0,0.0,0.0,0.0,0.0,0.0,0.0,0.0,0.0,2.2133,2.2884,2.3738,2.4609,2.3968,2.3576,2.3828,2.4204,2.347,2.123,0.0,0.0,0.0,0.0,0.0,0.0,0.0,0.0,0.0,0.0,0.0,0.0,0.0,0.0,0.0,0.0,0.0,0.0,0.0,0.0,0.0,0.0,0.0,0.0,0.0,0.0,0.0,0.0,0.0,0.0,0.0,0.0,0.0,0.0,0.0,0.0,0.0,0.0,0.0,0.0,0.0,0.0,0.0,0.0,0.0,0.0,0.0,0.0,0.0,0.0,0.0,0.0,0.0,0.0,0.0,0.0,0.0,0.0,0.0,0.0,0.0,0.0,0.0,0.0,0.0,0.0,0.0,0.0,0.0,0.0,0.0,0.0,0.0,0.0,0.0,0.0,0.0,0.0,0.0,0.0,0.0,0.0,0.0,0.0,0.0,0.0,0.0,0.0,0.0,0.0,0.0,0.0,0.0,0.0,0.0,0.0,0.0,0.0,0.0,0.0,0.0,0.0,2.2703,2.3461,2.4287,2.5163,2.4512,2.4018,2.4018,2.4504,2.4033,2.2253,0.0,0.0,0.0,0.0,0.0,0.0,0.0,0.0,0.0,0.0,0.0,0.0,0.0,0.0,0.0,0.0,0.0,0.0,0.0,0.0,0.0,0.0,0.0,0.0,0.0,0.0,0.0,0.0,0.0,0.0,0.0,0.0,0.0,0.0,0.0,0.0,0.0,0.0,0.0,0.0,0.0,0.0,0.0,0.0,0.0,0.0,0.0,0.0,0.0,0.0,0.0,0.0,0.0,0.0,0.0,0.0,0.0,0.0,0.0,0.0,0.0,0.0,0.0,0.0,0.0,0.0,0.0,0.0,0.0,0.0,0.0,0.0,0.0,0.0,0.0,0.0,0.0,0.0,0.0,0.0,0.0,0.0,0.0,0.0,0.0,0.0,0.0,0.0,0.0,0.0,0.0,0.0,0.0,0.0,0.0,0.0,0.0,0.0,0.0,0.0,0.0,0.0,2.3277,2.4225,2.5107,2.5891,2.5363,2.4906,2.4827,2.4827,2.4505,2.376,0.0,0.0,0.0,0.0,0.0,0.0,0.0,0.0,0.0,0.0,0.0,0.0,0.0,0.0,0.0,0.0,0.0,0.0,0.0,0.0,0.0,0.0,0.0,0.0,0.0,0.0,0.0,0.0,0.0,0.0,0.0,0.0,0.0,0.0,0.0,0.0,0.0,0.0,0.0,0.0,0.0,0.0,0.0,0.0,0.0,0.0,0.0,0.0,0.0,0.0,0.0,0.0,0.0,0.0,0.0,0.0,0.0,0.0,0.0,0.0,2.3469,0.0,0.0,0.0,0.0,0.0,0.0,0.0,0.0,0.0,0.0,0.0,0.0,0.0,0.0,0.0,0.0,0.0,0.0,0.0,0.0,0.0,0.0,0.0,0.0,0.0,0.0,0.0,0.0,0.0,0.0,0.0,0.0,0.0,0.0,0.0,0.0,0.0,0.0,0.0,0.0,0.0,2.168,2.3566,2.4945,2.5143,2.5644,2.5708,2.5017,2.4957,2.4601,2.3755,2.3308,0.0,0.0,0.0,0.0,0.0,0.0,0.0,0.0,0.0,0.0,0.0,0.0,0.0,0.0,0.0,0.0,0.0,0.0,0.0,0.0,0.0,0.0,0.0,0.0,0.0,0.0,0.0,0.0,0.0,0.0,0.0,0.0,0.0,0.0,0.0,0.0,0.0,0.0,0.0,0.0,0.0,0.0,0.0,0.0,0.0,0.0,0.0,0.0,0.0,0.0,0.0,0.0,0.0,0.0,0.0,0.0,0.0,0.0,0.0,0.0,2.3661,0.0,0.0,0.0,0.0,0.0,0.0,0.0,0.0,0.0,0.0,0.0,0.0,0.0,0.0,0.0,0.0,0.0,0.0,0.0,0.0,0.0,0.0,0.0,0.0,0.0,0.0,0.0,0.0,0.0,0.0,0.0,0.0,0.0,0.0,0.0,0.0,0.0,0.0,0.0,0.0,2.2399,2.3942,2.5296,2.611,2.5899,2.5697,2.562,2.5278,2.4841,2.4404,2.3957,0.0,0.0,0.0,0.0,0.0,0.0,0.0,0.0,0.0,0.0,0.0,0.0,0.0,0.0,0.0,0.0,0.0,0.0,0.0,0.0,0.0,0.0,0.0,0.0,0.0,0.0,0.0,0.0,0.0,0.0,0.0,0.0,0.0,0.0,0.0,0.0,0.0,0.0,0.0,0.0,0.0,0.0,0.0,0.0,0.0,0.0,0.0,0.0,0.0,0.0,0.0,0.0,0.0,3.1911,3.2705,3.3329,3.3332,3.3378,3.3147,2.8615,2.6555,2.6301,2.4999,0.0,0.0,0.0,0.0,0.0,0.0,0.0,0.0,0.0,0.0,0.0,0.0,0.0,0.0,0.0,0.0,0.0,0.0,0.0,0.0,0.0,0.0,0.0,0.0,2.6586,2.564,2.7875,0.0,0.0,0.0,0.0,0.0,0.0,0.0,0.0,0.0,0.0,0.0,2.3471,2.4619,2.5857,2.7253,2.6422,2.593,2.6308,2.5714,2.5273,2.5139,2.4439,2.3967,0.0,0.0,0.0,0.0,0.0,0.0,0.0,0.0,0.0,0.0,0.0,0.0,0.0,0.0,0.0,0.0,0.0,0.0,0.0,0.0,0.0,0.0,0.0,0.0,0.0,0.0,0.0,0.0,0.0,0.0,0.0,0.0,2.3307,2.3283,0.0,0.0,0.0,0.0,0.0,0.0,0.0,0.0,0.0,0.0,0.0,0.0,0.0,3.0067,3.1749,3.3448,3.4389,3.4615,3.6243,3.7033,3.7087,3.7083,3.7065,3.6924,3.5482,0.0,2.846,2.8858,0.0,0.0,0.0,0.0,0.0,0.0,0.0,0.0,0.0,0.0,0.0,0.0,0.0,0.0,0.0,0.0,0.0,0.0,0.0,0.0,0.0,0.0,2.8611,3.1259,3.1088,3.0776,0.0,2.9405,2.6397,2.6888,2.6408,0.0,0.0,0.0,0.0,0.0,0.0,0.0,2.2642,2.4798,2.6336,2.6615,2.7752,2.7947,2.6597,2.6319,2.5935,2.5234,2.5018,2.4613,2.3919,2.3718,0.0,0.0,0.0,0.0,0.0,0.0,0.0,0.0,0.0,0.0,0.0,0.0,0.0,0.0,0.0,0.0,0.0,0.0,0.0,0.0,0.0,0.0,0.0,0.0,0.0,0.0,0.0,0.0,0.0,2.2656,2.3653,2.2681,2.3777,2.4253,0.0,0.0,0.0,0.0,0.0,0.0,0.0,0.0,0.0,3.1761,3.2647,3.3672,3.4897,3.6669,3.7782,3.8242,3.9453,4.0266,4.0675,4.0675,4.0658,4.0603,4.0216,3.7972,3.4397,3.1774,2.9338,2.7163,0.0,0.0,0.0,0.0,2.6036,2.6472,2.7275,2.7885,2.8142,2.7198,0.0,0.0,0.0,0.0,0.0,0.0,0.0,0.0,0.0,0.0,3.04,3.3398,3.2781,3.1981,3.3651,3.1472,2.9129,0.0,2.782,2.6379,2.4594,0.0,0.0,0.0,0.0,2.3121,2.396,2.5463,2.6839,2.7801,2.8165,2.8204,2.7925,2.7467,2.7033,2.6673,2.6175,2.5723,2.5373,2.4868,2.4466,0.0,0.0,0.0,0.0,0.0,0.0,0.0,0.0,0.0,0.0,0.0,0.0,0.0,0.0,0.0,0.0,0.0,0.0,0.0,0.0,0.0,0.0,0.0,0.0,0.0,0.0,0.0,0.0,2.3636,2.5116,2.3143,2.5526,2.6638,0.0,0.0,0.0,0.0,0.0,0.0,3.1869,3.252,3.3724,3.5674,3.6373,3.7236,3.8331,3.9835,4.0881,4.1483,4.2309,4.3007,4.3586,4.3586,4.3581,4.3549,4.3357,4.2163,4.0036,3.5235,3.24,3.0971,2.965,2.8646,2.8011,2.8787,2.9091,2.9251,3.0063,3.0759,3.1031,2.9349,2.8979,2.8843,2.7178,0.0,0.0,0.0,0.0,2.9714,3.2917,3.2865,3.273,3.5643,3.4811,3.3746,3.5206,3.4008,3.2269,0.0,2.9419,2.7667,2.5755,0.0,0.0,0.0,0.0,2.4988,2.581,2.6657,2.7676,2.8945,2.8711,2.8634,2.9033,2.8505,2.8069,2.7855,2.7231,2.6787,2.6561,2.5929,2.5896,2.6546,0.0,0.0,0.0,0.0,0.0,0.0,0.0,0.0,0.0,0.0,0.0,0.0,0.0,0.0,0.0,0.0,0.0,0.0,0.0,0.0,0.0,0.0,0.0,0.0,0.0,0.0,0.0,0.0,0.0,2.6741,3.0093,0.0,0.0,0.0,0.0,3.2543,3.3324,3.4568,3.6379,3.6454,3.7596,4.0108,4.0223,4.1066,4.2758,4.3624,4.4066,4.4124,4.4989,4.5436,4.5451,4.5451,4.5425,4.5326,4.4554,4.4123,4.367,4.0093,3.6712,3.3788,3.3647,3.3043,3.2395,3.3248,3.3572,3.3686,3.4501,3.4805,3.4562,3.2891,3.1333,3.0268,3.0968,3.0669,0.0,0.0,3.2725,3.3337,3.5929,3.6584,3.7002,3.8782,3.8462,3.8023,3.8946,3.7163,3.4864,0.0,3.1252,3.0037,2.9892,0.0,2.6699,2.7455,2.6992,2.6887,2.7754,2.856,2.9119,2.9272,2.9885,2.9996,2.9342,2.9185,2.8804,2.8049,2.7954,2.7557,2.6719,2.6659,2.6644,2.6691,2.5833,0.0,0.0,0.0,0.0,0.0,0.0,0.0,0.0,0.0,0.0,0.0,0.0,0.0,0.0,0.0,0.0,0.0,0.0,0.0,0.0,0.0,0.0,0.0,0.0,0.0,0.0,0.0,0.0,3.0167,3.3812,0.0,3.3989,3.4571,3.5201,3.5493,3.6745,3.8012,3.9189,3.9744,4.0689,4.2128,4.2685,4.3256,4.3939,4.479,4.5194,4.5194,4.5522,4.564,4.5594,4.5594,4.5581,4.5549,4.526,4.4805,4.4172,4.2966,4.0744,3.8009,3.6897,3.6277,3.6043,3.6264,3.6759,3.726,3.6897,3.7167,3.7406,3.5764,3.4537,3.3724,3.4041,3.3947,3.3958,3.5173,3.5104,3.538,3.8501,3.8979,3.9064,4.0786,4.057,3.9902,3.9647,3.8438,3.7037,3.5817,3.3671,3.1706,3.0594,2.9692,2.888,2.809,2.776,2.8094,2.9498,2.9429,2.9691,3.0843,3.0716,3.0417,3.0162,3.0115,2.9989,2.9698,2.9144,2.8698,2.838,2.7838,2.8311,2.9941,2.9124,2.8413,0.0,0.0,0.0,0.0,0.0,0.0,0.0,0.0,0.0,0.0,0.0,0.0,0.0,0.0,0.0,0.0,0.0,0.0,0.0,0.0,0.0,0.0,0.0,0.0,0.0,0.0,3.3079,3.2784,3.6767,3.8861,3.716,3.8025,3.8791,3.905,4.0614,4.1785,4.2323,4.3188,4.3755,4.3962,4.4482,4.4783,4.4835,4.5413,4.5702,4.5702,4.5702,4.5683,4.5664,4.5664,4.568,4.5708,4.5708,4.538,4.4843,4.4896,4.3862,4.2071,4.0361,3.9683,3.9676,3.9581,3.9977,4.0454,3.978,3.9781,3.986,3.8488,3.7529,3.6873,3.6591,3.6723,3.717,3.8049,3.8074,3.8445,4.1019,4.1314,4.1235,4.2397,4.2039,4.1286,4.0707,3.9905,3.9041,3.8181,3.5821,3.3526,3.2072,3.1648,3.1022,2.9577,2.9659,3.0188,3.1005,3.0866,3.1129,3.2285,3.1607,3.1073,3.1105,3.0823,3.0646,3.0676,3.04,3.011,2.9825,2.8683,2.9135,3.1414,3.0602,2.9868,2.9256,0.0,0.0,0.0,0.0,0.0,0.0,0.0,0.0,0.0,0.0,0.0,0.0,0.0,0.0,0.0,0.0,0.0,0.0,0.0,0.0,0.0,0.0,0.0,2.8242,3.2631,3.5571,3.4819,3.9149,4.1567,3.9946,4.1258,4.255,4.3398,4.4952,4.5867,4.5846,4.6638,4.6677,4.5727,4.5704,4.5708,4.5708,4.5712,4.5715,4.5715,4.5715,4.5742,4.5791,4.5791,4.5832,4.5892,4.5892,4.5892,4.5892,4.5895,4.5917,4.5737,4.3976,4.3273,4.3273,4.3254,4.3234,4.3215,4.3234,4.2721,4.1917,4.1059,4.027,3.9488,3.8692,3.9097,4.0007,4.0844,4.1686,4.2547,4.342,4.3638,4.3642,4.3637,4.2997,4.2374,4.2317,4.1688,4.0876,3.9964,3.7648,3.5542,3.4675,3.3897,3.3098,3.2241,3.2852,0.0,3.229,3.2894,3.3391,3.3399,3.2538,3.1985,3.2046,3.123,3.0739,3.0839,3.1669,3.1762,3.0919,2.9229,2.9125,3.0838,3.0028,2.9567,2.9515,0.0,0.0,0.0,0.0,0.0,0.0,0.0,0.0,0.0,0.0,0.0,0.0,0.0,0.0,0.0,0.0,0.0,0.0,0.0,0.0,0.0,3.1277,3.2866,3.3482,3.6944,3.9981,4.1603,4.4659,4.6457,4.5997,4.6361,4.6748,4.698,4.7424,4.741,4.6773,4.6966,4.6677,4.5727,4.5704,4.5719,4.5769,4.5814,4.5854,4.5854,4.5888,4.5897,4.5872,4.5872,4.5883,4.5897,4.5897,4.5897,4.5903,4.6003,4.6043,4.5995,4.5398,4.5153,4.5073,4.4447,4.3824,4.3349,4.4007,4.3713,4.3052,4.28,4.2602,4.2428,4.222,4.2326,4.2572,4.2827,4.3066,4.344,4.4317,4.4534,4.4536,4.454,4.4366,4.3843,4.2625,4.2203,4.1603,4.0089,3.9197,3.8401,3.7512,3.6206,3.5187,3.493,3.4045,0.0,3.3931,3.3644,3.3393,3.3391,3.2038,3.1139,3.1164,3.0926,3.1042,3.1709,3.2552,3.2939,3.2709,3.1628,3.1525,3.2591,3.1799,3.1661,0.0,0.0,0.0,0.0,0.0,0.0,0.0,0.0,0.0,0.0,0.0,0.0,0.0,0.0,0.0,0.0,0.0,0.0,0.0,0.0,0.0,0.0,3.5478,3.7962,4.0235,4.1619,4.3208,4.5394,4.7289,4.8392,4.8392,4.8392,4.8392,4.8392,4.874,4.8554,4.7685,4.7994,4.777,4.6858,4.6501,4.6343,4.6383,4.6445,4.6316,4.5986,4.6365,4.635,4.5987,4.5987,4.6003,4.6029,4.6039,4.6021,4.6031,4.6105,4.6138,0.0,0.0,0.0,0.0,0.0,4.4951,4.4588,4.5081,4.4986,4.4561,4.4211,4.4107,4.4086,4.3736,4.3872,4.4147,4.4137,4.4413,4.4804,4.5301,4.5441,4.5441,4.5441,4.5168,4.4625,4.3657,4.3176,4.2537,4.1154,4.0889,0.0,3.9732,3.7902,3.6424,3.6049,3.5137,3.4535,3.4686,3.4573,3.4496,3.4491,3.3266,3.2291,3.1915,3.1899,0.0,0.0,0.0,3.3614,3.2898,3.2374,0.0,0.0,0.0,3.2124,3.3307,3.2115,0.0,0.0,2.9666,2.8663,0.0,0.0,0.0,0.0,0.0,0.0,0.0,0.0,0.0,0.0,0.0,0.0,0.0,0.0,0.0,0.0,3.9944,4.3097,4.7031,4.629,4.5857,4.7251,4.8162,4.8696,4.8704,4.8612,4.8585,4.8682,4.932,4.9359,4.8592,0.0,0.0,0.0,0.0,4.7364,4.7364,4.7415,4.7101,4.64,4.7131,4.7058,4.6271,4.6273,4.6258,4.6212,4.6201,4.6203,4.6212,4.6212,4.6212,4.6211,4.6198,4.6192,4.6192,4.6192,4.6192,4.621,4.621,0.0,0.0,4.5292,4.5059,4.4904,4.4202,4.4474,4.5058,4.5058,4.5603,4.6207,4.6207,4.6207,4.6207,4.6207,4.5603,4.5019,4.4923,4.4346,4.3589,4.2722,4.2384,4.2003,4.1233,3.9144,3.7289,3.6424,3.622,3.5834,3.4969,3.552,3.595,3.5865,0.0,0.0,3.3602,3.3451,3.3202,3.2715,3.4217,3.4426,3.2891,3.282,3.2086,3.055,3.1072,3.2153,3.3737,3.4243,3.4862,3.548,3.0783,2.983,0.0,0.0,0.0,0.0,0.0,0.0,0.0,0.0,0.0,0.0,0.0,0.0,0.0,0.0,0.0,4.0739,4.4002,4.6928,4.9092,4.9707,4.9779,4.939,5.0028,5.0528,5.0562,4.9882,4.9722,5.038,4.9974,4.9625,4.9468,4.9663,4.9417,4.8593,4.8406,4.8339,4.8339,4.8405,4.8357,4.8201,0.0,0.0,4.7315,4.7304,4.6938,4.6277,4.6276,4.6276,4.6277,4.6277,4.6277,4.6276,4.6223,4.6197,4.6197,4.6197,4.6192,4.6204,4.6204,4.6204,4.6162,4.5997,4.5942,4.5928,4.5763,4.5837,0.0,4.5954,4.6071,4.6207,4.6207,4.6207,4.6207,4.6207,4.6071,4.5761,4.5127,4.4857,4.449,4.362,4.2316,4.1303,4.1126,4.011,3.9036,3.8217,3.7495,3.6735,3.5854,3.5894,3.5738,3.5035,3.4177,3.3865,3.4391,3.3806,3.4236,3.6169,3.7216,3.7602,3.7286,3.7269,3.7099,3.6761,3.5541,3.5389,3.6369,3.5068,3.4831,3.5558,3.3802,3.3215,0.0,0.0,0.0,0.0,0.0,0.0,0.0,0.0,0.0,0.0,0.0,3.453,3.6233,0.0,4.1847,4.4439,4.7041,4.9208,5.0465,5.1025,5.1119,5.06,5.0881,5.1108,5.1145,5.0327,5.0141,5.0995,4.9863,4.9523,5.0402,5.0079,4.9875,4.9895,4.9516,4.9099,4.8647,4.8754,4.8362,4.7503,4.8458,4.8445,4.7606,4.8059,4.8002,4.7594,4.7592,4.7358,4.693,4.648,4.6305,4.6306,4.6264,4.6259,4.6254,4.6254,4.6252,4.6249,4.6249,4.6249,4.6248,4.6243,4.6245,4.6248,4.6243,4.6242,4.6241,4.6255,4.6254,4.6252,4.6247,4.6246,4.6246,4.6246,4.6246,4.615,4.5745,4.5648,4.5396,4.4523,4.3645,4.2767,4.1908,4.103,3.9879,3.82,3.7204,3.6481,3.6051,3.5992,3.5836,3.5407,3.4958,3.4705,3.4705,3.4705,3.5446,3.7184,3.8098,3.8523,3.8497,3.8075,3.7848,3.7841,3.6994,3.6532,3.6497,3.595,3.5679,3.5648,3.5126,3.4603,0.0,0.0,0.0,0.0,0.0,0.0,0.0,3.1661,3.2314,3.4868,3.6616,3.8366,4.0638,4.3017,4.5359,4.7631,4.9338,5.0532,5.107,5.1147,5.1047,5.0776,5.102,5.1225,5.1212,5.0264,5.008,5.1111,4.9593,4.9364,5.1106,5.0553,5.0496,5.1222,5.0602,4.9844,4.8984,4.9242,4.8605,4.7063,4.8626,4.8939,4.8139,4.8823,4.9059,4.8905,4.8903,4.8415,4.7557,4.6835,4.6445,4.6308,4.6308,4.6308,4.6304,4.6304,4.6303,4.6303,4.6303,4.6303,4.6303,4.6302,4.6302,4.6322,4.6497,4.6438,4.634,4.6492,4.6432,4.6294,4.6307,4.6306,4.6306,4.6306,4.6306,4.6306,4.6306,4.6306,4.6091,4.5387,4.4977,4.4293,4.2886,4.1522,3.9921,3.7868,3.695,3.6442,3.6265,3.6246,3.6324,3.6481,3.6344,3.6032,3.5506,3.6404,3.7223,3.775,3.859,3.9055,3.9006,3.8336,3.7956,3.7964,3.7787,3.7334,3.6641,3.7044,3.689,3.6202,3.6141,3.5507,2.4914,2.6159,2.8707,3.1069,3.2319,3.4155,0.0,3.9213,3.9408,4.2005,4.3311,4.4303,4.5387,4.7013,4.8578,4.9641,5.0626,5.1022,5.0337,5.0259,4.9945,4.9158,5.0379,5.1281,5.1282,4.9751,4.9438,5.1072,4.9595,4.9363,5.1115,5.1169,5.1218,5.1365,5.1289,5.0829,4.995,5.0733,5.0637,4.9699,5.066,5.0682,4.99,5.0019,4.9629,4.8906,4.8906,4.8418,4.7598,4.748,4.6992,4.6308,4.6308,4.6308,4.6308,4.6308,4.6308,4.6306,4.6306,4.6306,4.6306,4.6303,4.6304,4.6443,4.7221,4.6907,4.6458,4.7239,4.6906,4.6301,4.63,4.63,4.63,4.63,4.63,4.63,4.63,4.63,4.6261,4.6163,4.4895,4.378,4.3599,4.0967,3.878,3.8496,3.8376,3.8024,3.7243,3.7145,3.7458,3.824,3.7614,3.7438,3.8103,3.9626,4.025,3.9566,4.0347,4.0812,4.0801,4.0722,4.0657,4.0663,3.985,3.937,3.927,3.8525,3.8108,3.8011,3.8003,3.7113,2.8762,3.0426,3.2401,3.3977,3.5756,3.7691,3.9858,4.0445,4.1304,4.3918,4.5512,4.671,4.7586,4.8336,4.9257,5.0623,5.0737,5.0517,5.0146,4.9667,4.921,4.8844,4.9005,4.9326,4.9801,4.9207,4.9261,5.047,4.8974,4.898,5.119,5.0427,5.0359,5.1377,5.1403,5.0994,5.0174,5.0526,5.0252,4.9413,5.0292,5.0527,5.0214,5.0683,5.0703,5.0332,4.9863,4.9453,4.9062,4.8574,4.7832,4.7109,4.7617,4.7187,4.6308,4.6308,4.6308,4.6308,4.6308,4.6308,4.6308,4.6307,4.664,4.7031,4.6893,4.6932,4.703,4.6872,4.6579,4.6305,4.6302,4.6301,4.6301,4.6301,4.6301,4.6301,4.6301,4.6301,4.6301,4.6301,4.5716,4.5052,4.4542,4.2845,4.14,4.0888,3.9127,3.8089,3.8734,3.8378,3.8376,3.9215,3.943,3.9449,3.9313,4.0406,4.0738,3.9858,4.062,4.1107,4.1103,4.1096,4.1091,4.1105,4.0714,4.0243,3.9692,3.8833,3.8153,3.7656,3.7656,3.7279,3.0785,3.3027,3.5017,3.638,3.8997,4.1303,4.154,4.2437,4.3765,4.5664,4.7201,4.8261,4.8418,4.8826,4.9485,5.052,4.9941,4.9472,4.9707,4.8785,4.8076,4.808,4.7572,4.7473,4.8059,4.8371,4.8781,4.9367,4.8509,4.8862,5.0951,5.0134,5.0155,5.1366,5.1406,5.1016,5.0215,5.043,5.0098,4.9277,5.0117,5.0527,5.0545,5.1131,5.1406,5.1367,5.0781,5.041,5.0137,4.9258,4.8535,4.7969,4.8125,4.7715,4.6953,4.6484,4.6308,4.6308,4.6308,4.6308,4.6308,4.6308,4.6738,4.7207,4.7051,4.7129,4.7207,4.707,4.6679,4.6307,4.6305,4.6305,4.6305,4.6305,4.6305,4.6305,4.6305,4.6305,4.6305,4.6305,4.6481,4.6461,4.5835,4.4781,4.3923,4.3531,4.0755,3.9151,4.0439,4.024,4.0139,4.0471,4.1291,4.1563,4.0936,4.1444,4.1443,4.0561,4.1108,4.1343,4.1109,4.0868,4.0844,4.1098,4.0638,4.0174,3.9729,3.8906,3.8182,3.7556,3.7556,3.7431,2.9208,3.2133,3.5313,3.7878,4.1719,4.5052,4.59,4.738,4.8591,4.8667,4.9392,4.9511,4.7849,4.8921,4.9798,4.9018,4.814,4.7867,4.8723,4.7358,4.6284,4.6283,4.6306,4.6346,0.0,4.7147,4.7647,4.7667,4.8414,4.9256,5.0194,5.0937,5.1348,5.1406,5.1406,5.1016,5.0215,5.0976,5.0957,5.0176,5.0976,5.1365,5.1352,5.1391,5.14,5.1406,5.1367,5.0918,5.0137,4.9258,4.8887,4.8691,4.7031,4.7383,4.8613,4.6914,4.6308,4.6308,4.6308,4.6308,4.6308,4.6308,4.6328,4.6641,4.832,4.7656,4.6699,4.8359,4.7598,4.6308,4.6308,4.6308,4.6308,4.6308,4.6308,4.6308,4.6308,4.6308,4.6308,4.6308,4.6973,4.7558,4.7538,4.6093,4.5234,4.6053,4.3943,4.2263,4.2318,4.3041,4.3236,4.2416,4.3099,4.3605,4.358,4.3618,4.3244,4.2376,4.2356,4.1986,4.1128,4.0288,4.0249,4.1089,3.944,3.8984,3.9782,3.8912,3.8496,3.8457,3.8457,3.801,3.2215,3.547,3.8708,4.1327,4.437,4.6944,4.7767,4.8403,4.8645,4.8063,4.7245,4.6139,4.4434,4.5039,4.5878,4.6173,4.6935,4.7592,4.79,4.6939,4.6203,4.6199,4.575,0.0,0.0,0.0,0.0,4.7597,4.7871,4.8672,5.0117,4.9902,5.0254,5.1367,5.1406,5.1269,5.1008,5.1262,5.1236,5.0926,5.1199,5.1331,5.1338,5.1338,5.1357,5.1379,5.0793,5.07,5.0898,4.9473,4.8906,4.8848,4.8242,4.7676,4.7167,4.7168,4.7168,4.7089,4.6504,4.6308,4.6308,4.6308,4.707,4.793,4.7344,4.7578,4.791,4.7344,4.6758,4.6308,4.6308,4.6308,4.6308,4.6308,4.6738,4.7168,4.7168,4.7617,4.8027,4.8027,4.8262,4.8281,4.7695,4.7109,4.6621,4.6347,4.5058,4.3923,4.3334,4.4525,4.5091,4.4212,4.4896,4.5188,4.46,4.4561,4.4188,4.3322,4.2716,4.2265,4.1967,4.1128,4.0796,4.109,4.0514,4.0079,3.9806,3.9507,3.9076,3.8492,3.8558,3.8382,3.5514,3.8808,4.1812,4.4434,4.6815,4.8474,4.8386,4.8589,4.8378,4.6875,4.5437,4.3828,4.1844,4.1893,4.2317,4.2573,4.3557,4.4707,4.5932,4.5368,4.5144,4.6089,4.5468,4.496,0.0,0.0,0.0,4.6229,4.6756,4.7733,4.9199,4.9336,4.998,5.1365,5.1404,5.1398,5.1355,5.1355,5.1344,5.1295,5.1278,5.128,5.1295,5.1278,5.1298,5.1336,5.0769,5.0662,5.0792,4.9405,4.8841,4.8805,4.818,4.7653,4.7263,4.7518,4.7791,4.7946,4.707,4.6972,4.7187,4.6875,4.7519,4.8222,4.7109,4.7324,4.7793,4.6992,4.6543,4.6367,4.6679,4.6757,4.6835,4.7167,4.7656,4.8066,4.8065,4.8495,4.8905,4.8905,4.9139,4.9159,4.8593,4.8241,4.7655,4.6484,4.582,4.5254,4.4705,4.5603,4.6091,4.5524,4.5973,4.6071,4.5503,4.5464,4.5091,4.4227,4.3348,4.2721,4.2405,4.1292,4.0804,4.1097,4.0506,4.0072,3.9793,3.9491,3.9041,3.8505,3.8542,3.8387,3.8851,4.1912,4.4529,4.7081,4.8895,4.9619,4.8027,4.8183,4.7909,4.5208,4.387,4.2416,3.9815,3.9472,3.9336,3.8557,3.8654,3.9958,4.321,4.2955,4.3359,4.5837,0.0,0.0,0.0,0.0,0.0,4.3758,0.0,4.6574,4.7597,4.9199,5.0466,5.1369,5.1388,5.1354,5.1292,5.1288,5.1286,5.1288,5.1232,5.1217,5.1229,5.1156,5.1143,5.1156,5.1117,5.0652,4.9855,4.8955,4.8641,4.8566,4.6866,4.7247,4.8663,4.7822,4.8076,4.8702,4.7887,4.8142,4.8689,4.7811,4.7554,4.7591,4.7558,4.6992,4.6541,4.7363,4.6972,4.6502,4.7439,4.7635,4.7829,4.8684,4.8921,4.8962,4.8958,4.8995,4.9034,4.9034,4.9601,5.0089,5.005,4.9367,4.8255,4.656,4.6304,4.6305,4.6308,4.6308,4.6308,4.6308,4.6308,4.6308,4.6307,4.6307,4.5935,4.5052,4.4173,4.3314,4.2436,4.0834,4.0327,4.1089,3.9546,3.9073,3.9803,3.9002,3.8612,3.8557,3.8555,3.8164,4.1894,4.4608,4.7073,4.8989,4.9291,4.9023,4.8593,4.7649,4.5778,4.1897,3.9379,3.688,3.3687,3.5186,3.7034,3.7467,4.0758,4.356,4.438,4.43,4.4415,4.5073,0.0,4.4834,4.4828,4.4824,0.0,0.0,4.4614,4.6169,4.83,4.8265,4.9141,5.1256,5.1333,5.1286,5.1228,5.1189,5.1156,5.1142,5.1132,5.0817,5.024,5.0195,4.9863,4.9327,4.8682,4.8631,4.8923,4.7436,4.7227,4.7723,4.6628,4.6489,4.6859,4.6633,4.711,4.782,4.7607,4.7698,4.7787,4.6908,4.7064,4.7474,4.6831,4.6929,4.7319,4.7534,4.6967,4.6655,4.8177,4.8099,4.7826,4.8683,4.9368,4.9798,4.9797,5.0304,5.0753,5.0753,5.0402,4.9914,4.9308,4.8507,4.7551,4.6459,4.6302,4.6303,4.6307,4.6307,4.6308,4.6308,4.6308,4.6308,4.6308,4.6308,4.5937,4.5056,4.4177,4.3319,4.2441,4.1366,4.0898,4.1092,4.0683,4.0233,3.9805,4.0234,4.0076,3.939,3.9448,3.9352,4.5178,4.7039,4.8433,4.9764,4.916,4.7729,4.5806,4.4342,4.217,3.7844,3.5484,3.3497,3.1216,3.2974,3.4784,3.4901,3.8955,4.2323,4.3023,4.3467,4.399,4.4718,4.4796,0.0,4.3733,4.4671,4.4987,0.0,4.4573,4.5835,4.8055,4.8078,4.9022,5.1191,5.1267,5.1226,5.1156,5.1114,5.0914,5.0533,5.0946,5.0519,4.9343,4.9683,4.9401,4.8635,0.0,4.7971,4.7968,4.7027,4.6726,4.6806,4.6346,4.6157,4.6203,4.6591,4.7047,4.746,4.7457,4.7701,4.7916,4.713,4.7194,4.7447,4.6554,4.6905,4.7606,4.7608,4.749,4.7704,4.907,4.9051,4.8913,4.9789,5.0338,5.0671,5.0668,5.1057,5.1409,5.1409,5.1018,5.0278,4.907,4.8443,4.7719,4.6473,4.6296,4.6296,4.6302,4.6305,4.6307,4.6308,4.6308,4.6308,4.6308,4.6308,4.5937,4.5058,4.418,4.33,4.2434,4.1561,4.1093,4.1107,4.1093,4.0859,4.037,4.0854,4.083,4.032,4.0354,4.0161,4.7863,4.8768,4.8944,4.9603,4.8539,4.6196,4.1822,4.0208,3.8308,3.3733,3.2188,3.1372,3.0457,3.1752,3.2863,3.255,3.5965,3.9277,4.1085,4.1883,4.2905,4.4596,4.4596,4.3984,4.2816,4.4601,4.565,4.5161,4.5125,4.592,4.772,4.8365,4.9444,5.1132,5.1185,5.1153,5.1094,5.0966,5.052,4.9798,5.049,4.9985,4.8433,4.9198,4.9078,4.8239,4.8239,4.7778,4.703,4.703,4.6617,4.5991,4.6054,4.6071,4.6169,4.6927,4.7217,4.7207,4.7207,4.7758,4.8312,4.7626,4.7488,4.7409,4.6547,4.6899,4.7619,4.7722,4.8267,4.9024,5.002,5.0196,5.0312,5.1182,5.1402,5.1405,5.1396,5.1394,5.1354,5.1233,5.1213,5.0687,4.9051,4.8776,4.8249,4.6676,4.6459,4.642,4.631,4.6301,4.6306,4.6306,4.6308,4.6308,4.6308,4.6308,4.5877,4.4889,4.4114,4.3253,4.2256,4.1507,4.1103,4.1082,4.1102,4.1107,4.1092,4.1097,4.1091,4.1081,4.1102,4.0685,4.74,4.8254,4.8654,4.8087,4.7182,4.5285,4.0922,3.9263,3.7017,3.125,2.9997,2.9444,2.7861,2.9587,3.2098,3.4729,3.7599,4.0322,4.2731,4.2573,4.2864,4.4586,4.354,4.3362,4.5166,4.5144,0.0,0.0,4.686,4.7631,4.9381,4.8929,4.9398,5.106,5.1049,5.1025,5.1016,5.0293,4.9868,4.9702,4.9158,4.8385,4.7446,4.7598,4.7194,4.6363,4.6363,0.0,4.6121,4.6121,4.6031,4.5926,4.5932,4.5922,4.595,4.6094,4.6199,4.6236,4.6236,4.6802,4.7401,4.6613,4.6856,4.7287,4.6469,4.6856,4.7746,4.8392,4.8685,4.9172,5.0753,5.0635,5.0322,5.1199,5.1395,5.1396,5.1394,5.1394,5.1171,5.0398,5.0235,4.989,4.8828,4.8686,4.8362,4.7365,4.7296,4.712,4.638,4.6291,4.6298,4.6302,4.6303,4.6304,4.6304,4.6304,4.5617,4.4021,4.3787,4.2954,4.1305,4.1153,4.1078,4.1017,4.1078,4.1105,4.11,4.1092,4.1064,4.1017,4.1072,4.099,4.7836,4.813,4.7868,4.6985,4.5788,4.3434,3.8196,3.6324,3.4122,2.8563,2.7816,2.7885,2.705,2.9383,3.1954,3.3557,3.6759,3.9752,4.1845,4.2172,4.2852,4.4598,4.4406,4.4258,4.4566,4.5799,4.6732,4.7159,4.7995,4.8891,4.9797,4.9847,5.0215,5.1015,5.0975,5.0739,5.0337,4.9911,4.9237,4.8347,4.8426,4.7766,4.6542,4.6985,4.6716,4.5903,4.5903,4.5874,4.5858,4.5858,4.5858,4.5858,4.5896,4.5903,4.5945,4.6406,4.6596,4.6628,4.6628,4.7465,4.833,4.7087,4.7296,4.7944,4.7566,4.8072,4.8888,4.9268,4.9694,5.0235,5.1085,5.0982,5.0777,5.1208,5.1307,5.1307,5.1307,5.1307,5.1161,5.0704,5.062,5.0337,4.9423,4.9292,4.8867,4.7556,4.7434,4.7185,4.6311,4.6227,4.6245,4.6245,4.6244,4.624,4.624,4.624,4.5683,4.4363,4.4314,4.3521,4.1746,4.1718,4.1518,4.1064,4.1078,4.1102,4.1096,4.1096,4.1067,4.0992,4.1074,4.1078,4.7474,4.7538,4.6863,4.5813,4.4519,4.1864,3.5665,3.3705,3.1769,2.6644,2.6145,2.6732,2.7092,2.9368,3.1438,3.2152,3.5101,3.8095,4.0329,4.1238,4.2437,4.4516,4.511,0.0,4.4147,4.6229,0.0,4.7596,4.8999,4.9903,5.0057,5.065,5.0982,5.0975,5.0937,5.0593,4.9954,4.9798,4.9005,4.766,4.8224,4.7656,4.6177,4.6862,4.6703,4.5886,4.5886,4.585,4.5803,4.5803,4.5803,4.5807,4.5857,4.5886,4.5967,4.6652,4.6894,4.6928,4.7103,4.803,4.8956,4.7828,4.7978,4.8586,4.8591,4.9073,4.9654,4.9848,5.0522,5.1193,5.1198,5.1205,5.1208,5.1208,5.1208,5.1208,5.1208,5.1208,5.1145,5.0935,5.0894,5.0672,4.9973,4.9711,4.9141,4.7755,4.7458,4.7073,4.6207,4.6156,4.6178,4.6178,4.6199,4.6198,4.6198,4.6198,4.581,4.4859,4.4844,4.4177,4.2626,4.2381,4.2073,4.1644,4.1276,4.118,4.1358,4.1165,4.1064,4.1021,4.1071,4.1096,4.4709,4.5687,4.5818,4.4141,4.361,4.1721,3.4944,3.3349,3.1833,2.6668,2.5658,2.6182,2.7717,2.8297,2.9569,3.2677,3.3508,3.5183,3.9237,3.9876,4.1109,4.425,0.0,0.0,4.6364,4.6135,4.6771,4.9018,5.0055,5.0676,5.0877,5.0951,5.0967,5.0906,5.0902,5.0859,5.0782,5.0074,4.9614,4.9455,4.8747,4.7919,4.6987,4.7068,4.6623,4.581,4.581,4.5807,0.0,4.5803,4.5803,4.5807,4.581,4.581,4.581,4.5891,4.593,4.6042,4.6832,4.7215,4.7447,4.8086,4.8396,4.8523,4.8588,4.8656,4.8871,4.9673,5.053,5.1211,5.1193,5.1191,5.1208,5.1208,5.1208,5.1208,5.1208,5.1208,5.0955,5.0083,4.9933,4.9883,4.9739,4.9107,4.8565,4.8404,4.776,4.7021,4.6205,4.6115,4.6112,4.6119,4.6152,4.6203,4.6203,4.6203,4.5797,4.4857,4.4818,4.4379,4.3436,4.2639,4.2572,4.3352,4.1819,4.14,4.2194,4.1401,4.1036,4.109,4.11,4.1096,4.4057,4.5412,4.5626,4.3933,4.232,3.9762,3.4493,3.2079,2.9936,2.6336,2.56,2.6127,2.7847,2.8185,2.8791,3.0651,3.182,0.0,3.5529,3.7625,3.9944,4.2701,4.4019,4.5021,0.0,0.0,4.7292,4.8363,4.9355,4.9954,5.0029,5.06,5.0937,5.0898,5.0898,5.067,5.0186,4.9858,4.9165,4.814,4.8314,4.7676,4.6345,4.6867,4.6906,4.6577,4.6577,4.6577,0.0,4.6577,4.6268,4.5803,4.5803,4.5803,4.5861,4.6384,4.6577,4.6635,4.6983,4.7447,4.785,4.7676,4.765,4.7859,4.8935,4.9252,4.9434,5.0329,5.0785,5.1027,5.1069,5.1056,5.102,5.102,5.102,5.102,5.102,5.102,5.091,5.052,5.0454,5.0304,4.9792,4.9434,4.8866,4.782,4.743,4.6929,4.6089,4.5989,4.5986,4.5986,4.6032,4.6078,4.6078,4.6078,4.592,4.5546,4.5527,4.515,4.4324,4.3952,4.3683,4.3537,4.2345,4.1892,4.225,4.141,4.1011,4.1049,4.1036,4.1058,4.2103,4.4052,4.4928,4.3471,4.1143,3.818,3.42,3.1278,2.8685,2.6121,2.56,2.6129,2.785,2.8163,2.8513,2.9604,0.0,3.2084,3.345,3.595,3.8535,4.094,0.0,4.4237,4.4605,4.6238,4.7526,4.8105,4.8842,4.9404,4.9781,5.0229,5.0604,5.0898,5.067,5.0264,4.9703,4.9935,4.9184,4.7486,4.8372,4.7869,4.6209,4.7099,4.7351,4.7119,4.737,4.7351,0.0,4.7099,4.6596,4.5823,4.6074,4.6171,4.6287,4.7157,4.7486,4.7525,4.7773,4.7927,4.8005,4.7908,4.7514,4.7425,4.9146,4.9502,4.9556,5.065,5.0945,5.0906,5.096,5.0945,5.0898,5.0898,5.0898,5.0898,5.0898,5.0898,5.0898,5.0898,5.0898,5.0651,4.9838,4.9494,4.8817,4.7312,4.6927,4.6561,4.5974,4.5899,4.5896,4.5896,4.5937,4.5971,4.5963,4.5963,4.5972,4.5972,4.5975,4.5723,4.5157,4.4904,4.4483,4.3877,4.2767,4.222,4.2235,4.1394,4.0995,4.099,4.0995,4.1044,3.7983,4.0946,4.3313,4.2425,4.0255,3.7426,3.4066,3.1281,2.8671,2.6121,2.56,2.6105,2.7791,2.8102,2.8667,3.0401,3.0694,0.0,3.413,3.5256,3.6719,0.0,4.0088,4.1156,4.268,4.4946,4.7057,4.8839,4.8938,0.0,5.0625,4.9932,4.9939,5.0879,5.0128,4.9703,4.9703,5.0496,5.0051,4.8392,4.9262,4.8778,4.7119,4.7985,4.7927,4.7157,4.8005,4.7908,0.0,4.7099,4.6596,4.5881,4.6751,4.7099,4.7196,4.8063,4.8392,4.8508,4.9378,4.8546,4.7409,4.9126,4.8516,4.7415,4.9084,4.9057,4.8759,5.0438,5.0898,5.0898,5.0898,5.0898,5.0898,5.0898,5.0898,5.0898,5.0898,5.0898,5.0898,5.0898,5.0898,5.0651,4.9838,4.8972,4.8101,4.7235,4.6364,4.584,4.5893,4.59,4.59,4.59,4.59,4.5893,4.5908,4.5892,4.5892,4.5892,4.5892,4.5892,4.5892,4.5113,4.4694,4.4695,4.3059,4.223,4.2299,4.1424,4.0995,4.099,4.0995,4.1036,3.4948,3.6958,3.8036,3.7159,3.4962,3.2615,3.0994,2.8658,2.6573,2.5771,2.6067,2.6652,2.7174,2.8222,2.9173,2.9719,3.0311,3.1158,0.0,0.0,0.0,3.8923,4.1758,4.3999,0.0,0.0,4.6227,4.6199,4.7885,4.8573,4.7796,4.826,4.9022,5.0047,4.9246,4.8804,4.8817,4.9068,4.8624,4.7525,4.8392,4.7908,4.6248,4.7119,4.737,4.7119,4.7389,4.7351,4.7099,4.7099,4.6945,4.6728,4.6985,4.7442,4.7948,4.8238,4.7944,4.7496,4.7801,4.7561,4.7194,4.7735,4.7917,4.8137,4.9258,4.94,4.9383,5.0507,5.084,5.084,5.084,5.084,5.084,5.084,5.084,5.084,5.084,5.0861,5.0901,5.0901,5.0901,5.0651,4.9838,4.8972,4.8101,4.7235,4.6364,4.581,4.5821,4.5824,4.5824,4.5824,4.5864,4.5903,4.5893,4.5896,4.5925,4.5969,4.5972,4.5991,4.6027,4.5214,4.4746,4.4705,4.302,4.2162,4.2228,4.1354,4.0951,4.0993,4.1007,4.0994,3.1566,3.3693,3.4738,3.4185,3.2083,3.0025,2.9509,2.742,2.5562,2.556,2.6006,2.6501,2.6802,2.7744,2.8662,2.9293,3.0112,3.1151,3.2558,0.0,0.0,3.9207,4.2179,0.0,0.0,4.5355,4.5615,4.5407,4.7219,4.7911,4.6938,4.7555,4.8135,4.8561,4.8137,4.7914,4.7908,4.8237,4.777,4.653,4.7419,4.7067,4.5669,4.6607,4.7013,4.7055,4.7425,4.7398,0.0,4.7097,4.6896,4.6607,4.6924,4.738,4.7886,4.8523,4.8406,4.7995,4.8376,4.8291,4.8055,4.8388,4.882,4.9301,4.9843,4.9997,5.004,5.0257,5.055,5.0801,5.0801,5.0823,5.0844,5.0846,5.0868,5.0869,5.0829,5.0865,5.0905,5.0905,5.0889,5.053,4.9374,4.8725,4.7944,4.6746,4.6123,4.5809,4.5803,4.5817,4.5831,4.5844,4.5887,4.5899,4.5899,4.5899,4.5925,4.5964,4.5967,4.5983,4.602,4.55,4.4902,4.4252,4.3153,4.2465,4.225,4.1666,4.1248,4.0952,4.0952,4.0935,0.0,3.09,3.2747,3.2749,3.0921,2.9115,2.913,2.7258,0.0,2.549,2.5591,2.5924,2.6678,2.6955,2.761,2.9216,3.0154,3.1538,3.4019,3.5835,0.0,0.0,4.1757,0.0,4.2441,4.3978,4.5305,4.6057,4.691,4.7428,4.7507,4.7564,4.7302,4.6603,4.6833,4.6981,4.6988,4.78,4.7322,4.56,4.6414,4.6302,4.5429,4.6379,4.6782,0.0,4.7778,4.7731,4.6982,4.699,4.6503,4.585,4.6664,4.7031,4.7266,4.8825,4.9404,4.9515,5.033,5.0074,4.9545,5.0426,5.0704,5.0692,5.0625,5.0639,5.0537,4.9727,5.0074,5.0692,5.0692,5.079,5.0893,5.0899,5.0933,5.096,5.0902,5.0894,5.0894,5.0894,5.0909,5.0382,4.8759,4.838,4.7757,4.6132,4.5835,4.5795,4.5793,4.5847,4.588,4.5893,4.5899,4.5899,4.5899,4.5902,4.5908,4.5917,4.5892,4.5895,4.5904,4.5859,4.5074,4.3513,4.3371,4.2973,4.2281,4.2281,4.1832,4.1,4.1,4.0959,2.5953,0.0,2.7413,2.7404,2.6919,2.6433,0.0,0.0,0.0,0.0,0.0,2.6659,2.6844,2.7901,2.908,3.0141,3.0943,3.2271,3.4642,3.7954,0.0,4.186,4.3496,4.3996,4.2671,4.464,4.5763,4.5242,4.6563,4.6853,4.5613,4.6292,4.635,4.5586,4.5702,4.5853,4.5954,4.617,4.6038,4.56,4.5812,4.572,4.5405,4.5635,4.575,4.5769,4.5998,4.5988,4.581,4.59,4.6196,4.6572,4.681,4.7328,4.7972,4.8358,4.8467,4.8474,4.873,4.8686,4.8643,4.9525,5.0209,5.0576,4.9913,4.9721,4.9682,4.947,4.9566,4.972,4.972,5.024,5.0744,5.0748,5.0751,5.0778,5.0823,5.0852,5.0897,5.0897,5.0893,5.0762,5.0367,4.9176,4.8156,4.7757,4.6565,4.5723,4.5715,4.5742,4.5754,4.5742,4.5791,4.5828,4.5828,4.588,4.5925,4.5975,4.5935,4.5953,4.6059,4.5359,4.4497,4.3432,4.2754,4.2316,4.2141,4.2847,4.2722,4.1812,4.1812,4.146,2.5267,2.5559,2.5599,2.5609,2.5552,2.5518,2.5546,0.0,0.0,0.0,0.0,2.6423,2.6794,2.7916,2.919,3.0395,3.1866,3.3692,0.0,0.0,4.0687,4.1982,4.3246,4.3944,0.0,4.4948,4.5489,4.4981,4.6127,4.6278,4.4971,4.5818,4.597,4.5133,4.5189,4.5346,4.561,4.5547,4.5685,4.6042,4.5616,4.5533,4.5767,4.5828,4.5654,4.5359,4.619,4.6325,4.5965,4.6019,4.6287,4.6598,4.633,4.6473,4.6929,4.7416,4.7801,4.8163,4.8604,4.9017,4.9422,4.9898,5.0341,5.0548,4.9654,4.9394,4.9317,4.8913,4.8798,4.8894,4.9298,4.9778,5.0239,5.0605,5.0752,5.0788,5.0797,5.0851,5.0784,5.0378,5.0626,5.0653,4.9841,4.9226,4.8723,4.8355,4.7155,4.629,4.6291,4.5966,4.5742,4.5742,4.578,4.5794,4.5794,4.5835,4.586,4.5914,4.5864,4.5896,4.5964,4.5471,4.4807,4.397,4.3482,4.3066,4.2703,4.3585,4.3537,4.2659,4.2659,4.2392,2.5303,2.5832,2.6075,2.567,2.5544,2.5495,2.549,0.0,0.0,0.0,0.0,2.605,2.7011,2.7916,2.9061,3.0709,3.3111,0.0,3.8289,3.9291,4.0276,4.1638,4.2575,0.0,4.4693,4.4926,4.501,4.4949,4.559,4.566,4.4915,4.5658,4.5751,4.5029,4.4991,4.5178,4.5537,4.5434,4.571,4.6386,4.5584,4.5477,4.5988,4.6095,4.5778,4.5213,0.0,0.0,4.6514,4.6541,4.6544,4.6498,4.5818,4.5519,4.5585,4.6369,4.7198,4.8024,4.8759,4.9591,5.0284,5.0168,5.0207,5.0188,4.9591,4.9317,4.9086,4.8471,4.8197,4.8235,4.8856,4.9151,4.9493,5.032,5.061,5.072,5.0786,5.0846,5.0679,4.9925,5.0389,5.0404,4.8913,4.9131,4.926,4.8561,4.7728,4.7162,4.7179,4.6472,4.5962,4.5977,4.5845,4.5771,4.5771,4.5781,4.5773,4.5768,4.5782,4.5789,4.5796,4.5684,4.5295,4.4602,4.4592,4.4263,4.3573,4.4386,4.4327,4.3478,4.3478,4.3401,2.5455,2.7079,2.8204,2.6056,2.5517,2.549,2.5508,0.0,0.0,0.0,0.0,0.0,2.86,2.9499,3.0576,3.2429,0.0,3.8435,0.0,0.0,4.3106,4.2744,0.0,4.4464,4.313,4.4266,4.4985,4.4751,4.4915,4.496,4.4827,4.5058,4.5143,4.4991,4.4991,4.5078,4.5262,4.5246,4.5287,4.5415,4.526,4.5131,4.5016,4.5048,4.4953,4.4789,0.0,4.5533,4.6107,4.6213,4.6649,4.7182,4.6512,4.6309,4.632,4.5768,4.6211,4.7101,4.7235,4.7812,4.8394,4.7697,4.7947,4.8606,4.9221,4.8875,4.8432,4.9029,4.8663,4.7966,4.7428,4.7807,4.8561,4.9478,4.9708,4.9904,5.0638,5.0806,5.0771,5.0636,5.0713,5.072,5.0382,4.9867,4.9444,4.9254,4.8494,4.7936,4.7926,4.7233,4.6732,4.6722,4.6072,4.5633,4.5633,4.5629,4.5629,4.5633,4.5684,4.5742,4.5795,4.5144,4.4736,4.4604,4.4591,4.4516,4.4323,4.52,4.5139,4.4222,4.4222,4.3878,2.6029,2.6695,2.7309,2.7509,2.8266,2.8691,2.7688,0.0,0.0,0.0,0.0,0.0,0.0,0.0,3.3674,3.7233,0.0,3.9838,4.1386,4.1908,4.2139,0.0,0.0,4.4059,4.4064,4.466,4.4973,4.4815,4.4764,4.4757,4.4757,4.4901,4.4991,4.4991,4.508,4.5125,4.5148,4.5061,4.5272,4.5719,4.5237,4.5141,4.5456,4.5456,4.5172,4.4743,0.0,4.6039,4.6008,4.6069,4.6289,4.6527,4.5841,4.5608,4.5668,4.591,4.6383,4.6966,4.7408,4.8101,4.874,4.8375,4.8509,4.8875,4.9279,4.8798,4.8068,4.7938,4.7621,4.7386,4.7561,4.7813,4.8164,4.8671,4.9484,5.0129,5.0061,5.0411,5.0622,5.0179,5.0471,5.0503,4.9551,4.945,4.935,4.8884,4.803,4.7453,4.7453,4.6719,4.6201,4.6201,4.584,4.5594,4.5594,4.5594,4.5594,4.5594,4.5633,4.5662,4.5683,4.5376,4.5205,4.5246,4.5248,4.5242,4.5265,4.5656,4.5615,4.5166,4.5166,4.4954,2.6242,2.6397,2.6755,2.833,2.9552,3.0285,2.9849,2.9964,0.0,0.0,0.0,0.0,0.0,3.3289,0.0,4.0563,4.1189,4.127,4.1686,4.17,4.189,4.2492,4.3116,4.3953,4.5142,4.4907,4.4659,4.4574,4.4455,4.4403,4.4403,4.4751,4.4961,4.4991,4.5072,4.5125,4.5103,4.4961,4.5236,4.5854,4.513,4.5097,4.5673,4.5673,4.5301,4.4716,4.6004,4.6324,4.5935,4.5968,4.6047,4.6085,4.54,4.5004,4.4915,4.5889,4.6372,4.6608,4.7227,4.7904,4.8514,4.8514,4.8644,4.8817,4.8817,4.8495,4.7962,4.7184,4.6833,4.6805,4.7343,4.7424,4.7432,4.7722,4.8822,4.9668,4.9173,4.9783,5.0234,4.9604,5.018,5.0303,4.8819,4.9243,4.9436,4.8414,4.7825,4.7418,4.7201,4.642,4.5898,4.5898,4.5725,4.5618,4.5627,4.562,4.5625,4.5625,4.5603,4.5618,4.5627,4.5673,4.573,4.5804,4.5798,4.5823,4.584,4.584,4.5823,4.5783,4.5775,4.5778,2.5567,2.7271,2.8692,2.7321,2.6468,2.6977,3.0825,3.0543,0.0,3.2444,0.0,0.0,0.0,3.5037,3.7343,3.9271,4.1509,4.3509,4.4954,0.0,4.5141,4.5126,4.5183,4.5194,4.5117,4.4313,4.3734,4.3618,4.3535,4.3489,4.3489,4.4335,4.4864,4.5004,4.4943,4.4973,4.5103,4.4961,4.4902,4.4903,4.477,4.4698,4.47,4.47,4.4628,4.4522,4.4634,4.5092,4.5719,4.5853,4.6302,4.6857,4.6104,4.5403,4.484,4.5108,4.5298,4.5418,4.5475,4.5668,4.5859,4.5859,4.6413,4.7081,4.7081,4.7594,4.8184,4.8117,4.7381,4.6412,4.5624,4.5458,4.5681,4.6447,4.6861,4.7271,4.7956,4.889,4.9551,4.9428,5.012,5.0409,4.9485,5.0043,5.0043,4.8365,4.875,4.8937,4.8129,4.7317,4.6812,4.6812,4.609,4.5631,4.5693,4.5695,4.5696,4.5696,4.5622,4.5631,4.5693,4.5699,4.5723,4.5807,4.5811,4.5773,4.5719,4.5719,4.5719,4.5717,4.5715,4.5715,2.6161,2.7376,2.847,2.8422,2.8147,2.869,3.185,3.333,3.3989,3.3902,3.5302,0.0,0.0,0.0,3.952,4.0696,4.2579,4.4246,4.5294,4.5448,4.5419,4.5343,4.485,4.4484,4.4377,4.3477,4.2851,4.2755,4.2611,4.2771,4.3304,4.3781,4.4316,4.487,4.4967,4.5039,4.5045,4.4956,4.4864,4.4789,4.4719,4.4646,4.4549,4.4549,4.4517,4.4501,4.4501,4.4677,4.4958,4.5012,4.5193,4.5409,4.5143,4.4935,4.4808,4.4925,4.5089,4.5264,4.5381,4.5822,4.6362,4.6431,4.6688,4.7165,4.8206,4.7645,4.685,4.7755,4.6935,4.5858,4.6124,4.6084,4.5957,4.5792,4.6669,4.7477,4.7246,4.7953,4.8778,4.9303,4.9668,4.961,4.874,4.8856,4.8509,4.6802,4.6867,4.6981,4.6654,4.6348,4.6152,4.6152,4.5862,4.5661,4.5701,4.565,4.5646,4.5646,4.5647,4.5664,4.5699,4.5743,4.5758,4.575,4.5773,4.5765,4.5704,4.5704,4.5712,4.5762,4.5758,4.5757,2.7037,2.7613,2.8319,2.951,2.9788,3.0536,3.3599,3.5408,3.6475,3.6685,3.7656,3.828,3.7674,0.0,0.0,0.0,4.3273,4.4865,4.5338,4.5395,4.5269,4.4925,4.4355,4.3876,4.3573,4.2626,4.1997,4.1951,4.1745,4.1992,4.2844,4.3296,4.3926,4.477,4.4925,4.4997,4.4991,4.4925,4.4865,4.4776,4.4712,4.4639,4.4535,4.4494,4.448,4.448,4.448,4.448,4.448,4.4494,4.4501,4.4508,4.451,4.4612,4.4732,4.4802,4.4955,4.5164,4.5281,4.5803,4.6392,4.6491,4.6739,4.7158,4.8049,4.729,4.6286,4.6987,4.6273,4.5476,4.6124,4.6118,4.5795,4.5298,4.6164,4.6953,4.6339,4.6978,4.7943,4.8793,4.899,4.8894,4.8567,4.8274,4.7721,4.6552,4.6213,4.608,4.608,4.584,4.5672,4.5703,4.5698,4.5705,4.5702,4.5654,4.5637,4.5637,4.5672,4.57,4.5707,4.5735,4.5743,4.5708,4.5743,4.5754,4.5707,4.5707,4.5719,4.577,4.5796,4.5803,2.8057,2.8097,2.8549,3.0251,3.0712,3.1863,3.6136,3.6345,3.6839,4.1113,4.0663,3.9446,3.9241,4.0033,0.0,4.0619,4.34,4.554,4.5419,4.5405,4.5055,4.4117,4.3987,4.3668,4.287,4.1822,4.1197,4.1197,4.0934,4.1147,4.1941,4.2872,4.3831,4.477,4.4789,4.4858,4.501,4.4925,4.4827,4.4705,4.4705,4.4666,4.4592,4.4461,4.4397,4.4397,4.4397,4.4397,4.4385,4.4461,4.4482,4.4515,4.4572,4.4599,4.4605,4.4679,4.4821,4.501,4.4991,4.5213,4.5499,4.5499,4.617,4.683,4.5974,4.6364,4.6885,4.5898,4.5504,4.5366,4.5221,4.5057,4.4895,4.4895,4.5043,4.5181,4.5114,4.598,4.7012,4.7831,4.8054,4.8375,4.924,4.8682,4.8101,4.8101,4.7428,4.6908,4.6908,4.6148,4.5631,4.5697,4.5701,4.5698,4.5704,4.5704,4.5704,4.5704,4.5704,4.5707,4.5701,4.5701,4.5702,4.5704,4.5702,4.5701,4.5701,4.5701,4.5701,4.5701,4.577,4.5807,2.6168,2.8062,2.9853,2.9861,3.2089,3.4772,3.667,3.7331,0.0,0.0,4.1143,4.0196,3.9464,4.0502,0.0,4.0695,4.2387,4.415,4.5242,4.5395,4.5053,4.4112,4.3496,4.2813,4.1977,4.0923,4.0273,4.0216,4.0014,4.0213,4.0972,4.195,4.2887,4.3786,4.4512,4.4883,4.4925,4.4901,4.4827,4.4705,4.4652,4.4572,4.4461,4.448,4.4423,4.4336,4.4437,4.4114,4.3566,4.3624,4.3982,4.4515,4.4572,4.4599,4.4612,4.4738,4.4821,4.4883,4.508,4.5213,4.5315,4.5516,4.5761,4.6096,4.6557,4.6395,4.6103,4.6362,4.587,4.5232,4.5159,4.4973,4.4821,4.4821,4.4973,4.5103,4.4979,4.5418,4.6043,4.686,4.7593,4.8178,4.8432,4.8826,4.8854,4.8202,4.7972,4.7668,4.7043,4.6735,4.637,4.5824,4.5738,4.5698,4.5704,4.5671,4.5633,4.5633,4.5633,4.5654,4.5703,4.5707,4.5699,4.5702,4.5705,4.5684,4.5631,4.5631,4.5648,4.5701,4.5726,4.5734,2.7715,2.9364,3.0943,3.2198,3.4176,3.6198,3.7739,3.9238,0.0,0.0,4.2547,4.1561,4.093,4.1375,0.0,4.1124,4.2121,4.3405,4.4676,4.4833,4.461,4.3993,4.3491,4.2728,4.1546,4.0767,4.0182,3.9789,3.957,3.9956,4.1111,4.1756,4.2674,4.3919,4.455,4.4852,4.4852,4.4827,4.4745,4.4619,4.4605,4.4517,4.4354,4.4409,4.4394,4.4351,4.4458,4.4219,4.3762,4.3818,4.4146,4.4578,4.4652,4.4666,4.4659,4.4783,4.4815,4.4821,4.5028,4.5136,4.523,4.539,4.5475,4.5642,4.6294,4.6034,4.563,4.6103,4.5744,4.517,4.5043,4.4901,4.4789,4.4789,4.4889,4.4949,4.487,4.5076,4.5538,4.6353,4.6769,4.7199,4.787,4.7948,4.7932,4.8054,4.7883,4.7424,4.6553,4.6437,4.6261,4.5812,4.5698,4.5673,4.5695,4.5633,4.5594,4.5594,4.5594,4.5616,4.5651,4.5656,4.5662,4.5657,4.5652,4.564,4.5594,4.5594,4.5627,4.5657,4.5693,4.5694,3.0959,3.1303,3.1918,3.5963,3.6614,3.6897,3.9279,4.1526,4.348,4.4878,0.0,4.3234,4.2953,4.234,4.1839,4.1737,4.2318,4.3034,4.3788,4.3949,4.3921,4.3711,4.37,4.3066,4.1457,4.0984,4.0467,3.9756,3.9421,3.9999,4.1667,4.197,4.2838,4.4499,4.4701,4.4789,4.4789,4.4719,4.4639,4.4515,4.4551,4.4475,4.43,4.4307,4.4358,4.4411,4.4398,4.4467,4.4605,4.4597,4.4623,4.4712,4.4776,4.4745,4.4706,4.4833,4.484,4.4821,4.4864,4.5009,4.5175,4.5192,4.5284,4.5415,4.5558,4.5497,4.5386,4.54,4.53,4.5131,4.4943,4.4858,4.4783,4.4783,4.4808,4.4808,4.4783,4.4943,4.5337,4.6123,4.5818,4.5894,4.7428,4.6593,4.6263,4.7803,4.7425,4.6679,4.5812,4.5688,4.5686,4.5684,4.5627,4.5603,4.5697,4.564,4.5594,4.5594,4.5594,4.5594,4.5594,4.5594,4.5594,4.5594,4.5594,4.5594,4.5594,4.5594,4.5594,4.5594,4.5657,4.5693,2.8439,3.0806,3.3274,3.5523,3.7959,4.0106,4.1291,4.1959,4.2234,4.1895,4.3115,4.3801,4.2456,4.1967,4.1778,4.1836,4.1777,4.2059,4.3,4.36,4.3651,4.2944,4.2862,4.2457,4.14,3.9921,3.922,3.9667,3.8827,3.8792,3.9892,4.1226,4.2149,4.2585,4.3981,4.4757,4.4789,4.4719,4.4666,4.4572,4.4482,4.4383,4.43,4.4409,4.4466,4.4449,4.3769,4.3919,4.4542,4.3929,4.4081,4.4712,4.4725,4.4718,4.4712,4.4719,4.4776,4.4796,4.4827,4.4877,4.4985,4.5148,4.5219,4.529,4.5528,4.5424,4.5258,4.5371,4.5191,4.4949,4.4901,4.4802,4.4712,4.4712,4.4751,4.4796,4.4719,4.4913,4.5148,4.5273,4.581,4.6363,4.6726,4.7208,4.7695,4.8172,4.7886,4.7353,4.6628,4.6392,4.6099,4.5594,4.5485,4.5508,4.5688,4.564,4.5594,4.5594,4.5594,4.5594,4.5594,4.5594,4.5594,4.5594,4.5594,4.5594,4.5594,4.5594,4.5594,4.5594,4.5603,4.5627,2.9175,3.0997,3.2857,3.617,3.8632,4.045,4.1287,4.177,4.1805,4.0974,4.2109,4.298,4.2033,4.1424,4.1086,4.1101,4.0934,4.116,4.2129,4.2526,4.268,4.261,4.2633,4.228,4.135,3.9954,3.9432,4.023,3.8896,3.8806,4.055,4.1114,4.178,4.2692,4.3591,4.4283,4.4693,4.4639,4.4572,4.4503,4.4433,4.4354,4.43,4.4416,4.448,4.4489,4.4057,4.4155,4.4561,4.4168,4.4283,4.4705,4.4705,4.4685,4.4659,4.4692,4.4712,4.4718,4.4789,4.4815,4.487,4.5003,4.5068,4.5095,4.5341,4.5239,4.5084,4.5264,4.5117,4.4889,4.4852,4.4789,4.4705,4.4705,4.4712,4.4712,4.4705,4.4846,4.4968,4.4943,4.5374,4.5729,4.5729,4.6246,4.6704,4.6831,4.6713,4.648,4.6122,4.5964,4.5741,4.5384,4.5305,4.5305,4.539,4.537,4.5356,4.5356,4.5429,4.5467,4.5467,4.5555,4.5594,4.5594,4.5594,4.5594,4.5594,4.5594,4.5594,4.5594,4.5594,4.5594,3.0318,3.1337,3.2462,3.7138,3.8802,3.9483,4.0191,4.0983,4.1367,4.0675,4.1252,4.1797,4.1516,4.0871,4.0287,4.0056,4.0119,4.0377,4.0867,4.1084,4.1377,4.1881,4.2002,4.1763,4.1073,4.0011,3.9732,4.0627,3.9083,3.9113,4.1461,4.1204,4.1612,4.2989,4.3251,4.3639,4.4166,4.4242,4.4261,4.4226,4.4308,4.4325,4.4278,4.4325,4.4397,4.4494,4.4544,4.4585,4.4605,4.4666,4.4692,4.4705,4.4692,4.4652,4.4605,4.4652,4.4639,4.4612,4.4738,4.477,4.4802,4.4858,4.4883,4.4931,4.5142,4.5068,4.4937,4.5142,4.5062,4.4877,4.4827,4.4757,4.4705,4.4692,4.4632,4.4605,4.4685,4.4732,4.4796,4.4864,4.4889,4.4901,4.4956,4.5028,4.5129,4.5292,4.5274,4.5235,4.5286,4.5192,4.5142,4.5164,4.5108,4.5061,4.5103,4.5103,4.5103,4.5103,4.5234,4.5292,4.5267,4.5457,4.5546,4.5518,4.5568,4.5594,4.5594,4.5594,4.5581,4.5555,4.5555,4.5541,2.8278,3.1241,3.4695,3.7573,3.8371,3.8474,0.0,0.0,3.9766,0.0,4.0681,4.1491,4.0725,4.0378,4.0005,3.9342,3.9783,3.9765,3.8499,3.9488,4.0101,3.9393,3.9371,3.9633,4.0191,3.866,3.8253,3.9751,3.8777,3.8621,3.9865,4.1083,4.1571,4.1161,4.2563,4.3041,4.2435,4.3121,4.3478,4.355,4.3955,4.414,4.4124,4.414,4.4248,4.4411,4.4475,4.4556,4.4599,4.4605,4.4652,4.468,4.4639,4.4605,4.4592,4.4537,4.457,4.4599,4.4619,4.4712,4.4796,4.4802,4.4846,4.4931,4.5142,4.5068,4.4937,4.5142,4.5062,4.4877,4.4827,4.4757,4.4692,4.4626,4.4558,4.4556,4.4679,4.4712,4.4719,4.4789,4.4852,4.4968,4.5131,4.502,4.5024,4.5332,4.5143,4.5028,4.5186,4.4997,4.4889,4.5009,4.4961,4.4967,4.5097,4.5103,4.5103,4.5103,4.5234,4.5241,4.5129,4.5251,4.5291,4.5162,4.5443,4.5594,4.5594,4.5594,4.5508,4.5337,4.5337,4.5281,2.881,3.0909,3.3156,3.6683,3.7177,3.7038,3.7983,3.8493,3.8733,3.8605,3.9062,3.9518,3.9541,3.9117,3.8661,3.8352,3.8598,3.8592,3.8008,3.8458,3.8701,3.8294,3.8333,3.8457,3.8627,3.8334,3.8572,3.9615,3.9189,3.9276,4.0171,4.0851,4.1076,4.0746,4.1923,4.24,4.205,4.2876,4.3294,4.3299,4.3961,4.3953,4.3397,4.3987,4.4303,4.4358,4.444,4.4522,4.4537,4.4537,4.4558,4.4578,4.457,4.4274,4.3868,4.3834,4.3533,4.3147,4.3193,4.3553,4.402,4.4096,4.4442,4.4864,4.4985,4.4961,4.4901,4.4955,4.4907,4.4815,4.4725,4.4666,4.4626,4.4551,4.451,4.4522,4.459,4.4619,4.4666,4.4738,4.4808,4.4864,4.4955,4.4925,4.4955,4.5098,4.4984,4.4925,4.5009,4.4858,4.4776,4.484,4.4744,4.4705,4.4751,4.4757,4.4757,4.4757,4.4924,4.4995,4.4925,4.5106,4.5167,4.5108,4.5243,4.5315,4.5315,4.5315,4.5279,4.5186,4.5186,4.5162,2.8443,2.9647,3.0804,3.4434,3.5157,3.5364,0.0,0.0,3.7816,0.0,3.7525,3.7611,3.8099,3.7857,3.7537,3.7395,3.7564,3.7632,3.7344,3.7437,3.744,3.7186,3.7256,3.7294,3.7234,3.7931,3.8653,3.9298,3.9439,3.9738,4.0343,4.0755,4.0793,4.0381,4.1408,4.1772,4.1359,4.223,4.2742,4.2905,4.3683,4.3631,4.2884,4.3907,4.4351,4.4307,4.4444,4.4501,4.4501,4.4501,4.4501,4.4501,4.4501,4.4132,4.3576,4.3349,4.2861,4.2293,4.2107,4.2503,4.3119,4.3442,4.397,4.4518,4.4795,4.4858,4.4833,4.4802,4.4796,4.4757,4.4632,4.4599,4.4578,4.4522,4.4501,4.4501,4.4501,4.4544,4.4612,4.4666,4.4738,4.4764,4.4764,4.4827,4.4846,4.4864,4.487,4.4877,4.4889,4.4808,4.4725,4.4712,4.4592,4.4522,4.4508,4.4501,4.4501,4.4501,4.4692,4.4789,4.4731,4.4913,4.5014,4.5014,4.4967,4.501,4.5103,4.5103,4.5061,4.5014,4.5014,4.501,2.5492,2.6928,2.8569,3.0397,3.2043,3.3459,0.0,0.0,3.6897,3.6631,3.6527,3.6433,3.6267,3.6933,3.7276,3.6579,3.7213,3.7231,3.5657,3.6203,3.6429,3.5549,3.5435,3.572,3.6397,3.6953,3.7595,3.8331,3.9014,3.943,3.9467,4.0911,4.1042,3.9523,4.1041,4.1168,3.9651,4.0484,4.1316,4.2073,4.2754,4.3038,4.3031,4.39,4.43,4.4307,4.4444,4.4501,4.4501,4.4501,4.4501,4.4501,4.4501,4.447,4.4344,4.3512,4.3221,4.31,4.2226,4.203,4.2309,4.3132,4.3485,4.3718,4.4556,4.4751,4.4712,4.4777,4.4745,4.4692,4.4619,4.4599,4.4578,4.4522,4.4501,4.4501,4.4501,4.4544,4.4599,4.4605,4.4666,4.4712,4.4712,4.4712,4.4719,4.4808,4.4815,4.4821,4.4889,4.4833,4.4764,4.4712,4.4639,4.4565,4.4508,4.4501,4.4501,4.4501,4.4692,4.4706,4.451,4.4712,4.4827,4.4827,4.4626,4.4725,4.5103,4.5103,4.4997,4.4827,4.4827,4.4718,2.4973,2.5948,2.6924,2.9179,3.1018,3.2493,3.3343,3.5243,3.6758,3.6498,3.6421,3.6483,3.676,3.6661,3.6324,3.5661,3.6317,3.6565,3.5574,3.5713,3.5773,3.5343,3.5752,3.6101,3.6202,3.7781,3.8652,3.8271,3.9392,4.0115,4.0108,4.1134,4.147,4.0885,4.1531,4.1374,4.0269,4.0576,4.0889,4.1164,4.1894,4.223,4.2261,4.3177,4.385,4.4307,4.4444,4.4501,4.4501,4.4501,4.4501,4.4501,4.4501,4.4161,4.3556,4.2686,4.2055,4.1513,4.0663,4.0759,4.1311,4.1682,4.2165,4.2775,4.37,4.3945,4.4033,4.4535,4.4619,4.4577,4.453,4.4461,4.4409,4.438,4.439,4.4451,4.4451,4.4501,4.4542,4.4542,4.4585,4.4639,4.4639,4.4679,4.4712,4.4719,4.4744,4.4751,4.4821,4.4751,4.4685,4.4705,4.4599,4.4535,4.4508,4.4501,4.4501,4.4501,4.4565,4.459,4.4508,4.4565,4.4605,4.4605,4.4549,4.4632,4.4901,4.4789,4.4679,4.4605,4.4605,4.4565,2.3471,0.0,0.0,0.0,2.9062,3.0897,3.2304,3.4348,3.5941,3.6013,3.6214,3.6462,3.676,3.6801,3.6569,3.6001,3.6389,3.6668,3.6375,3.6295,3.6239,3.6143,3.6502,3.6706,3.6519,3.8122,3.8889,3.8216,3.932,4.0151,4.0454,4.1231,4.1797,4.2102,4.1668,4.1176,4.0667,4.0393,4.0262,4.0281,4.1312,4.1808,4.1831,4.3035,4.3846,4.4344,4.4437,4.4487,4.4501,4.4501,4.4501,4.4501,4.4501,4.4128,4.351,4.2648,4.1817,4.0987,4.0169,4.0127,4.0453,4.076,4.1224,4.1832,4.2756,4.3221,4.3547,4.404,4.431,4.4466,4.4444,4.4365,4.43,4.43,4.4336,4.438,4.438,4.4444,4.4501,4.4501,4.4542,4.4565,4.4565,4.4599,4.4639,4.4666,4.4672,4.4692,4.477,4.4692,4.4646,4.4666,4.4585,4.4517,4.4508,4.4501,4.4501,4.4501,4.4501,4.4501,4.4501,4.4501,4.4524,4.4599,4.4524,4.4599,4.4789,4.4592,4.4501,4.4501,4.4501,4.4501,0.0,0.0,0.0,0.0,0.0,0.0,3.1033,0.0,3.4395,3.51,3.5823,3.6274,3.6159,3.7283,3.8079,3.7575,3.7495,3.7606,3.7897,3.7805,3.7738,3.7753,3.7476,3.7273,3.7324,3.777,3.8084,3.8121,3.8693,3.9442,4.039,4.1226,4.2036,4.2839,4.1357,4.0542,4.0568,3.9772,3.9379,3.9417,4.0991,4.1757,4.1813,4.347,4.4288,4.436,4.436,4.4414,4.4501,4.4501,4.4501,4.4501,4.4501,4.4466,4.4296,4.3484,4.2653,4.181,4.0981,4.0221,3.9752,4.0516,4.076,4.0923,4.1795,4.259,4.3219,4.3275,4.3809,4.435,4.4296,4.4292,4.4292,4.4292,4.4292,4.4292,4.4292,4.4401,4.4501,4.4501,4.4501,4.4501,4.4501,4.4501,4.451,4.4585,4.4592,4.4619,4.4692,4.4699,4.4672,4.4605,4.4592,4.4565,4.4508,4.4501,4.4501,4.4501,4.4501,4.4501,4.4501,4.4501,4.4592,4.4796,4.4599,4.4592,4.4783,4.4592,4.4501,4.4501,4.4501,4.4501,2.2331,0.0,0.0,0.0,0.0,0.0,0.0,0.0,3.4231,3.4343,3.5466,3.6546,3.6905,3.6799,3.6796,3.7284,3.7436,3.7189,3.633,3.6033,3.6118,3.6645,3.6553,3.6831,3.7854,3.7504,3.7698,0.0,3.7947,3.8513,4.1133,4.2575,4.2939,4.2057,4.1599,4.0794,3.961,3.9368,3.9256,3.9275,4.0344,4.0882,4.096,4.2062,4.2927,4.3528,4.3584,4.3949,4.4501,4.4501,4.4501,4.4501,4.4458,4.4394,4.421,4.3329,4.2827,4.2428,4.1036,4.049,4.0345,3.997,3.9896,4.0071,4.0847,4.1233,4.1645,4.2763,4.3205,4.3435,4.3949,4.4147,4.4195,4.4108,4.4165,4.4229,4.4229,4.4285,4.4373,4.4411,4.4418,4.4433,4.4494,4.4501,4.4515,4.4517,4.4535,4.4544,4.4619,4.4578,4.4565,4.4592,4.457,4.4528,4.4508,4.4501,4.4501,4.4501,4.4501,4.4501,4.4501,4.4501,4.4535,4.4578,4.4535,4.4535,4.4578,4.4535,4.4501,4.4501,4.4501,4.4501,0.0,0.0,0.0,0.0,0.0,0.0,2.8629,3.0849,3.3006,3.4356,3.5291,3.608,3.6767,3.6656,3.6537,3.6763,3.6842,3.6872,3.6888,3.6728,3.6773,3.7214,3.679,3.6804,3.7628,3.7187,3.7237,3.813,3.758,3.8346,4.0966,4.263,4.2932,4.1704,4.1667,4.1042,3.9714,3.9702,3.9509,3.9175,4.0079,4.0523,4.0595,4.1455,4.2146,4.2679,4.303,4.3481,4.3971,4.428,4.4437,4.444,4.4376,4.4322,4.4192,4.3673,4.3245,4.2716,4.1467,4.0886,4.0568,3.9751,3.9527,3.9646,4.0076,4.04,4.0828,4.1705,4.2392,4.3033,4.3797,4.4062,4.4104,4.402,4.4062,4.4119,4.4119,4.4139,4.4207,4.4325,4.4376,4.4397,4.4416,4.4444,4.4458,4.4423,4.4444,4.4461,4.451,4.4515,4.4503,4.4544,4.451,4.4501,4.4501,4.4501,4.4501,4.4501,4.4501,4.4501,4.4501,4.4501,4.4501,4.4501,4.4501,4.4501,4.4501,4.4501,4.4501,4.4501,4.4535,4.4535,0.0,0.0,0.0,0.0,0.0,0.0,2.9161,2.9993,3.098,3.4029,3.4569,3.4707,3.545,3.5988,3.6101,3.5493,3.5567,3.6342,3.8137,3.8255,3.8207,3.8307,3.7386,3.6792,3.6973,3.6702,3.664,3.6906,3.7711,3.8792,4.0185,4.1783,4.2303,4.1486,4.1467,4.1077,4.026,4.026,3.987,3.9101,4.0051,4.0458,4.0396,4.1276,4.1756,4.1935,4.2595,4.3058,4.3376,4.4015,4.4329,4.4376,4.4314,4.4259,4.4207,4.4248,4.3744,4.2914,4.2174,4.1422,4.0679,3.9862,3.9551,3.9482,3.9476,3.9917,4.0448,4.0484,4.1541,4.2838,4.3655,4.3867,4.3878,4.3971,4.3997,4.4005,4.4005,4.4005,4.4051,4.4222,4.4336,4.4354,4.4322,4.4347,4.438,4.4307,4.4358,4.439,4.4397,4.4447,4.4501,4.4501,4.4501,4.4501,4.4501,4.4501,4.4501,4.4501,4.4501,4.4501,4.4501,4.4501,4.4501,4.4501,4.4501,4.4501,4.4501,4.4501,4.4501,4.4508,4.4551,4.457,0.0,0.0,0.0,0.0,0.0,0.0,2.623,2.7424,2.8577,2.9242,3.0312,3.1165,3.1226,3.1229,3.1153,3.0984,3.2609,3.4348,3.557,3.5637,3.5806,3.6503,3.5638,3.5489,3.6782,3.5627,3.5597,3.753,3.9078,3.9758,3.9368,4.0921,4.1467,4.0668,4.0631,4.0223,3.9361,3.9342,3.9268,3.9101,4.0113,4.0178,3.9483,4.0517,4.1299,4.184,4.2038,4.2862,4.4083,4.4177,4.4267,4.4314,4.4252,4.4207,4.4184,4.4093,4.3951,4.3675,4.2872,4.2124,4.1362,4.0568,3.9906,3.9392,3.9283,3.9361,3.9602,4.0239,4.1052,4.1938,4.2735,4.2946,4.3121,4.3773,4.395,4.4005,4.4005,4.4005,4.4013,4.4051,4.4165,4.4263,4.4354,4.4351,4.4314,4.43,4.4307,4.4344,4.439,4.4404,4.4433,4.4501,4.4501,4.4501,4.4501,4.4501,4.4501,4.4501,4.4501,4.4501,4.4501,4.4501,4.4501,4.4501,4.4501,4.4501,4.4501,4.4501,4.4501,4.4501,4.4515,4.4515,0.0,0.0,0.0,2.5408,0.0,0.0,0.0,2.6993,2.766,2.889,2.934,2.9608,2.9931,2.9861,2.9741,2.9705,3.1425,3.2653,3.2387,3.408,3.5507,3.5943,3.5108,3.4796,3.5587,3.5229,3.5777,3.7758,3.9052,3.9554,3.912,4.0315,4.0613,3.9777,4.0167,3.9981,3.9101,3.9535,3.9779,3.9802,3.9949,3.9977,3.9977,4.0552,4.0964,4.1307,4.2092,4.2891,4.3595,4.349,4.3475,4.3543,4.3917,4.4073,4.4096,4.3992,4.3966,4.3875,4.3076,4.2582,4.2169,4.1357,4.0845,4.0463,3.9993,3.9511,3.931,4.0155,4.0622,4.1037,4.187,4.2373,4.2746,4.3164,4.3569,4.3905,4.3945,4.3961,4.3984,4.407,4.4112,4.4116,4.4181,4.4233,4.4226,4.4162,4.4211,4.4255,4.4292,4.4336,4.4387,4.4433,4.444,4.444,4.444,4.4487,4.4655,4.504,4.4693,4.4677,4.5071,4.4686,4.444,4.444,4.4487,4.4501,4.4501,4.4501,4.4501,4.4501,4.4501,4.4501,0.0,0.0,0.0,0.0,0.0,2.5699,0.0,0.0,0.0,2.8989,0.0,0.0,0.0,0.0,0.0,2.8547,0.0,0.0,0.0,3.2274,0.0,3.4904,3.4667,3.4456,3.4399,3.5099,3.623,3.777,3.8365,3.8767,3.9082,3.9777,3.9832,3.912,3.9944,3.9981,3.9101,4.013,4.0574,4.0477,4.0056,4.0235,4.0912,4.0977,4.1051,4.1215,4.2448,4.3028,4.3088,4.2985,4.2931,4.2986,4.3463,4.3672,4.3746,4.3841,4.3913,4.3865,4.3231,4.2905,4.2652,4.2043,4.1735,4.1456,4.062,3.9993,3.9674,4.0213,4.0252,4.0355,4.1214,4.1767,4.2179,4.2485,4.3084,4.3625,4.3854,4.3897,4.3955,4.4138,4.407,4.4013,4.4028,4.4112,4.4127,4.4013,4.4234,4.4418,4.4434,4.4476,4.455,4.4605,4.4469,4.4376,4.4376,4.4437,4.4775,4.5529,4.5011,4.4972,4.5635,4.4835,4.4376,4.4376,4.4451,4.4487,4.4487,4.4501,4.4501,4.4501,4.4501,4.4501,0.0,0.0,0.0,0.0,2.461,0.0,0.0,0.0,2.5378,2.5721,0.0,0.0,0.0,0.0,0.0,0.0,0.0,0.0,2.6539,2.8674,3.0587,3.1289,3.3165,3.4399,3.431,3.5033,3.6185,3.7789,3.7324,3.7603,3.9027,3.9194,3.9194,3.9101,3.9944,3.9981,3.9101,4.0668,4.1122,4.0423,4.1178,4.1577,4.1684,4.1741,4.212,4.2746,4.2853,4.3282,4.3883,4.3788,4.3767,4.3704,4.3011,4.2754,4.2828,4.3543,4.382,4.3818,4.3788,4.3113,4.2288,4.2304,4.1831,4.1112,4.023,4.0551,4.1089,4.0415,4.0126,4.0207,4.1025,4.0775,4.0646,4.2075,4.2582,4.2958,4.3733,4.3897,4.3921,4.4005,4.4013,4.4028,4.4161,4.4085,4.402,4.4005,4.4663,4.5204,4.5256,4.528,4.5292,4.5376,4.4737,4.4314,4.4314,4.4322,4.4651,4.5458,4.5428,4.5436,4.5529,4.4744,4.4314,4.4314,4.4387,4.4404,4.4404,4.448,4.4501,4.4501,4.4501,4.4501,0.0,0.0,0.0,0.0,0.0,0.0,2.6055,0.0,2.5148,0.0,0.0,0.0,0.0,0.0,0.0,0.0,2.593,0.0,0.0,0.0,2.9214,3.0067,0.0,0.0,3.4124,3.4896,3.617,3.8375,3.7727,3.775,3.8987,3.908,3.9101,3.9101,3.9454,3.9479,3.9101,3.9721,4.0348,4.0978,4.0782,4.1293,4.2374,4.241,4.2541,4.2802,4.3409,4.37,4.3734,4.3325,4.3098,4.2996,4.2543,4.275,4.3324,4.359,4.3736,4.3788,4.3693,4.3361,4.2938,4.2879,4.2295,4.157,4.1405,4.1277,4.1177,4.0999,4.0831,4.0772,4.1112,4.1274,4.1515,4.2226,4.2802,4.3301,4.3791,4.3875,4.3859,4.3929,4.4294,4.4444,4.404,4.3984,4.4172,4.4674,4.5072,4.5488,4.5967,4.5621,4.5374,4.5423,4.4729,4.4431,4.4897,4.455,4.5036,4.6736,4.6421,4.5962,4.5449,4.4718,4.43,4.43,4.4373,4.4411,4.4466,4.4494,4.4487,4.4433,4.4487,4.4501,2.7012,0.0,0.0,0.0,0.0,0.0,0.0,0.0,0.0,0.0,0.0,0.0,0.0,0.0,0.0,0.0,0.0,2.6036,0.0,2.6126,0.0,0.0,0.0,0.0,0.0,3.3574,3.4909,3.7609,3.7067,3.7273,3.8807,3.9024,3.9101,3.9101,3.9324,3.9321,3.9038,3.9394,4.0155,4.1308,4.0819,4.1301,4.2674,4.2912,4.282,4.2514,4.3519,4.3806,4.3535,4.3006,4.2775,4.2715,4.2585,4.3003,4.3679,4.3575,4.361,4.3652,4.348,4.3339,4.3223,4.3022,4.2577,4.2123,4.2143,4.1917,4.1645,4.1657,4.1593,4.1503,4.1527,4.1763,4.2124,4.2664,4.3225,4.3756,4.4128,4.4159,4.4134,4.42,4.4621,4.4885,4.4516,4.4364,4.4498,4.5162,4.5254,4.5634,4.6698,4.6122,4.5645,4.569,4.4972,4.4637,4.4991,4.4531,4.5061,4.7001,4.6816,4.6257,4.5408,4.4624,4.424,4.4263,4.4344,4.4416,4.4461,4.4461,4.4458,4.4397,4.448,4.4494,0.0,0.0,0.0,2.6816,0.0,0.0,0.0,0.0,2.4984,0.0,0.0,0.0,0.0,0.0,0.0,0.0,0.0,0.0,0.0,0.0,0.0,0.0,0.0,0.0,0.0,3.0479,3.1666,3.4623,3.4387,3.5423,3.8444,3.8927,3.9101,3.9101,3.9925,3.9891,3.8918,4.0451,4.1185,4.1126,4.1926,4.2321,4.2336,4.3184,4.3033,4.2166,4.2981,4.3391,4.3488,4.3337,4.3389,4.3545,4.3418,4.3385,4.3412,4.3412,4.3412,4.3385,4.326,4.2947,4.2599,4.2399,4.2486,4.254,4.1773,4.2323,4.3065,4.2297,4.2164,4.2274,4.2347,4.1811,4.1662,4.3353,4.3765,4.4005,4.481,4.4967,4.4967,4.4967,4.4986,4.5236,4.5994,4.5476,4.5001,4.5093,4.5101,4.5727,4.7433,4.6958,4.6465,4.6465,4.574,4.4923,4.4098,4.4013,4.4403,4.5313,4.6093,4.6131,4.5332,4.4477,4.407,4.4199,4.4263,4.4336,4.4397,4.4397,4.4397,4.4397,4.448,4.4473,0.0,0.0,3.3151,3.0127,0.0,0.0,0.0,0.0,0.0,0.0,0.0,0.0,0.0,0.0,0.0,0.0,0.0,0.0,0.0,0.0,0.0,0.0,0.0,0.0,0.0,2.9896,3.1866,3.3887,3.4794,3.5981,3.7653,3.8483,3.8953,3.9101,3.938,3.9328,3.891,3.9838,4.0455,4.0772,4.1522,4.2159,4.2705,4.3005,4.2941,4.265,4.306,4.3223,4.3242,4.3277,4.3375,4.3455,4.3313,4.3242,4.3205,4.326,4.3187,4.305,4.292,4.2739,4.2589,4.252,4.2462,4.2428,4.2309,4.2495,4.2735,4.2858,4.2839,4.2813,4.3048,4.2958,4.2969,4.364,4.3804,4.3894,4.4192,4.4157,4.422,4.4755,4.5264,4.5688,4.5955,4.6231,4.6285,4.5938,4.5897,4.6135,4.682,4.6197,4.5714,4.5714,4.4952,4.4544,4.4841,4.5844,4.6122,4.535,4.6056,4.6141,4.5332,4.455,4.4173,4.4255,4.4336,4.4409,4.4473,4.4955,4.5166,4.5133,4.5155,4.5155,3.5039,3.555,0.0,3.3019,3.2543,0.0,2.9947,0.0,2.7476,0.0,0.0,0.0,0.0,0.0,0.0,0.0,0.0,0.0,0.0,2.4638,0.0,0.0,0.0,0.0,0.0,2.8671,3.0544,3.2784,3.3687,3.4992,3.6971,3.788,3.8501,3.884,3.8891,3.8818,3.8618,3.927,3.9892,4.0474,4.1196,4.1817,4.2324,4.2352,4.2324,4.2276,4.2456,4.2647,4.2871,4.3078,4.3169,4.3214,4.3214,4.3169,4.3104,4.3151,4.2975,4.2711,4.2711,4.2554,4.2397,4.2402,4.2369,4.2338,4.2504,4.2524,4.2545,4.2939,4.3059,4.3124,4.3375,4.3513,4.3716,4.413,4.4229,4.4303,4.4623,4.4142,4.393,4.4981,4.5332,4.5654,4.6232,4.6994,4.7243,4.6386,4.6013,4.6008,4.6449,4.5788,4.5295,4.5295,4.4804,4.4562,4.4822,4.6327,4.6587,4.4934,4.5881,4.5992,4.4878,4.4375,4.4441,4.5141,4.4624,4.4682,4.5347,4.5207,4.5096,4.5032,4.4983,4.5135]}]]